     2.11           OBSERVATION DATA    G (GPS)             RINEX VERSION / TYPE
teqc 2010Oct21 OPUS Account 20111027 14:54:10UTC            PGM / RUN BY / DATE
L 1524                                                      MARKER NAME
1215                                                        MARKER NUMBER
CSMIDDLETON NGS                                             OBSERVER / AGENCY
0220320152 TRIMBLE 5700 2.01                                REC # / TYPE / VERS
12214372 TRM41249.00 NONE                                   ANT # / TYPE
  -759078.4940 -5529977.2613  3075862.6392                  APPROX POSITION XYZ
        2.0000        0.0000        0.0000                  ANTENNA: DELTA H/E/N
     1     1                                                WAVELENGTH FACT L1/2
     5    L1    L2    C1    P1    P2                        # / TYPES OF OBSERV
    15                                                      LEAP SECONDS
  2011     8    14     0     0   30.0000000     GPS         TIME OF FIRST OBS
                                                            END OF HEADER
 11  8 14  0  0 30.0000000  0  8G12G10G17G28G05G04G09G02
 -13472672.71957 -10483441.10955  22676899.8054                   22676897.5084
 -22967888.87958 -17883279.20356  21369313.7814                   21369311.8484
 -31768820.05158 -24739220.97755  22352161.3054                   22352159.3594
 -30779037.43756 -23971673.39853  23684584.5474                   23684584.6484
  -6541842.51657  -5082262.33654  23706202.8594                   23706204.6684
 -34271660.16058 -26688586.00056  20524003.2274                   20524001.0904
 -16830926.16457 -13099430.10555  22530849.3204                   22530848.6844
 -28114527.03958 -21891795.29756  20845621.5004                   20845617.5704
 11  8 14  0  1  0.0000000  0  8G12G10G17G28G05G04G09G02
 -13586890.09047 -10572441.62945  22655165.3204                   22655163.2304
 -23047634.29348 -17945418.43046  21354138.5864                   21354136.8134
 -31753608.06647 -24727367.50045  22355056.1174                   22355054.5164
 -30710752.39846 -23918464.35543  23697579.7974                   23697578.6564
  -6673826.64147  -5185106.82844  23681086.7734                   23681088.5474
 -34243085.86748 -26666320.32046  20529440.7194                   20529438.6604
 -16806099.85547 -13080084.96545  22535574.0004                   22535573.3324
 -28171436.47348 -21936140.27346  20834792.0704                   20834788.1294
 11  8 14  0  1 30.0000000  0  8G12G10G17G28G05G04G09G02
 -13700883.05947 -10661267.29745  22633472.7584                   22633470.8094
 -23126869.29748 -18007159.93746  21339060.4924                   21339058.6134
 -31738275.82447 -24715420.31645  22357974.0164                   22357972.0984
 -30642199.53546 -23865046.62543  23710624.3674                   23710624.5594
  -6805757.02747  -5287909.42644  23655980.4924                   23655982.4344
 -34214152.26248 -26643774.65646  20534946.8444                   20534944.8244
 -16780804.27347 -13060374.16845  22540387.1484                   22540387.1024
 -28227966.80948 -21980189.84846  20824034.9144                   20824030.7464
 11  8 14  0  2  0.0000000  0  8G12G10G17G28G05G04G09G02
 -13814652.59847 -10749918.87145  22611823.1094                   22611821.3164
 -23205594.35948 -18068504.09446  21324080.0554                   21324077.6334
 -31722826.07047 -24703381.57045  22360913.9144                   22360912.0204
 -30573384.16046 -23811424.34443  23723719.6804                   23723719.5234
  -6937634.51647  -5390670.81244  23630885.7034                   23630887.2854
 -34184865.12148 -26620953.51246  20540519.9144                   20540517.6174
 -16755045.52347 -13040302.46545  22545289.3204                   22545288.6484
 -28284122.10248 -22023947.16846  20813348.8204                   20813345.0164
 11  8 14  0  2 30.0000000  0  8G12G10G17G28G05G04G09G02
 -13928194.58647 -10838393.13345  22590216.7274                   22590214.7664
 -23283806.16848 -18129448.31246  21309196.2584                   21309194.2194
 -31707257.09447 -24691249.91445  22363876.5474                   22363874.8554
 -30504306.42647 -23757597.62944  23736865.0864                   23736864.9104
  -7069454.87547  -5493387.67645  23605800.4844                   23605802.5124
 -34155225.68048 -26597857.84046  20546159.9064                   20546157.8164
 -16728825.29347 -13019871.17245  22550278.8284                   22550278.2114
 -28339901.37948 -22067411.50046  20802734.2664                   20802730.1374
 11  8 14  0  3  0.0000000  0  8G12G10G17G28G05G04G09G02
 -14041506.00447 -10926687.72345  22568654.3204                   22568652.1564
 -23361501.58248 -18189990.14846  21294411.2974                   21294409.9224
 -31691568.00447 -24679024.67645  22366862.3054                   22366860.1094
 -30434967.81247 -23703567.62144  23750059.5554                   23750059.8204
  -7201214.99247  -5596057.61745  23580727.5164                   23580729.2034
 -34125235.81248 -26574489.11746  20551866.9144                   20551864.7624
 -16702146.27747 -12999082.38345  22555355.4384                   22555355.0274
 -28395304.42648 -22110582.66447  20792191.2194                   20792187.1524
 11  8 14  0  3 30.0000000  0  8G12G10G17G28G05G04G09G02
 -14154584.50447 -11014800.83645  22547136.6174                   22547134.0784
 -23438677.96548 -18250127.54346  21279725.2114                   21279723.6134
 -31675758.05547 -24666705.26246  22369871.0554                   22369868.3204
 -30365370.04746 -23649335.66444  23763303.9304                   23763304.5554
  -7332911.89147  -5698678.28545  23555666.3134                   23555667.6914
 -34094897.62148 -26550848.96546  20557640.0314                   20557637.8714
 -16675011.12547 -12977938.18045  22560519.1954                   22560519.0004
 -28450331.75848 -22153461.06246  20781719.8204                   20781715.8484
 11  8 14  0  4  0.0000000  0  8G12G10G17G28G05G04G09G02
 -14267429.06247 -11102731.63745  22525663.0004                   22525660.2854
 -23515334.17648 -18309859.59846  21265138.4304                   21265135.9804
 -31659828.21947 -24654292.43445  22372902.1884                   22372899.9884
 -30295516.37946 -23594904.32443  23776596.6174                   23776596.5234
  -7464544.03947  -5801248.50845  23530617.1564                   23530618.8324
 -34064215.14148 -26526940.54346  20563478.5554                   20563476.4884
 -16647424.35247 -12956442.06245  22565768.7974                   22565768.5904
 -28504985.23048 -22196048.13746  20771319.6954                   20771315.7194
 11  8 14  0  4 30.0000000  0  8G12G10G17G28G05G04G09G02
 -14380037.55147 -11190478.50445  22504233.9774                   22504231.6524
 -23591468.67247 -18369185.13346  21250650.2274                   21250648.1804
 -31643778.38747 -24641786.09445  22375956.4224                   22375954.1804
 -30225409.32847 -23540275.51243  23789937.0864                   23789937.8244
  -7596109.20747  -5903766.54344  23505580.7814                   23505582.4654
 -34033191.47348 -26502766.25846  20569382.3284                   20569379.9574
 -16619389.60547 -12934596.87545  22571103.6254                   22571103.3484
 -28559265.82848 -22238344.66047  20760990.3284                   20760986.3364
 11  8 14  0  5  0.0000000  0  8G12G10G17G28G05G04G09G02
 -14492408.25047 -11278040.07045  22482850.5784                   22482848.1484
 -23667079.96148 -18428102.98046  21236261.3674                   21236259.7464
 -31627609.45747 -24629186.94946  22379033.1884                   22379030.8594
 -30155051.98846 -23485451.69943  23803326.0634                   23803326.3554
  -7727605.93447  -6006231.25444  23480557.6804                   23480559.0824
 -34001829.81648 -26478328.59446  20575350.4924                   20575348.1134
 -16590911.13747 -12912405.93745  22576523.2814                   22576522.6024
 -28613175.23048 -22280351.93746  20750731.8204                   20750727.8014
 11  8 14  0  5 30.0000000  0  8G12G10G17G28G05G04G09G02
 -14604538.00447 -11365413.87145  22461512.8284                   22461510.5594
 -23742164.38348 -18486610.27346  21221973.4384                   21221971.8134
 -31611319.52747 -24616493.51645  22382133.0084                   22382130.6724
 -30084445.13346 -23430433.44543  23816762.0314                   23816762.8634
  -7859029.94547  -6108639.29744  23455548.4454                   23455549.0704
 -33970131.57048 -26453628.66046  20581381.9534                   20581380.0704
 -16561990.69547 -12889870.60945  22582026.4774                   22582026.0864
 -28666712.72348 -22322069.42646  20740543.8914                   20740539.7774
 11  8 14  0  6  0.0000000  0  8G12G10G17G28G05G04G09G02
 -14716427.59047 -11452600.52345  22440220.6094                   22440218.4924
 -23816723.09048 -18544707.93046  21207785.5634                   21207783.5204
 -31594911.44147 -24603708.01645  22385255.4144                   22385253.0434
 -30013593.49646 -23375224.45743  23830244.3444                   23830245.2854
  -7990381.74247  -6210991.09844  23430552.4614                   23430553.6604
 -33938102.50848 -26428670.94546  20587477.1564                   20587474.9844
 -16532634.40647 -12866995.65645  22587613.1954                   22587612.5234
 -28719882.40248 -22363500.30146  20730425.7814                   20730421.8874
 11  8 14  0  6 30.0000000  0  8G12G10G17G28G05G04G09G02
 -14828070.18447 -11539594.72345  22418976.1884                   22418973.7114
 -23890749.78948 -18602391.02746  21193698.5164                   21193697.2074
 -31578380.98047 -24590827.15245  22388400.9534                   22388398.7034
 -29942495.37546 -23319823.42643  23843774.0554                   23843774.1724
  -8121654.53147  -6313281.33644  23405572.1024                   23405572.8984
 -33905741.14148 -26403454.28946  20593635.2734                   20593632.9614
 -16502842.03547 -12843780.91045  22593282.1954                   22593282.1804
 -28772680.46948 -22404641.61347  20720378.4224                   20720374.6884
 11  8 14  0  7  0.0000000  0  8G12G10G17G28G05G04G09G02
 -14939464.97347 -11626395.80945  22397778.3524                   22397776.3754
 -23964243.59048 -18659658.88746  21179713.3444                   21179711.3794
 -31561728.99247 -24577851.59445  22391569.7344                   22391567.7194
 -29871154.18746 -23264232.98043  23857350.5084                   23857350.5514
  -8252846.90247  -6415508.91844  23380606.9774                   23380607.4844
 -33873051.43748 -26377981.79746  20599856.1954                   20599853.9344
 -16472617.91047 -12820229.71145  22599034.0234                   22599033.4224
 -28825109.16448 -22445495.09846  20710402.0234                   20710397.9964
 11  8 14  0  7 30.0000000  0  8G12G10G17G28G05G04G09G02
 -15050612.30947 -11713004.08245  22376627.4534                   22376625.5084
 -24037204.84848 -18716511.77046  21165829.0164                   21165827.2304
 -31544957.62547 -24564783.01245  22394761.2034                   22394759.1024
 -29799574.45746 -23208456.61743  23870971.5234                   23870971.7974
  -8383958.71147  -6517673.75845  23355657.3054                   23355657.5044
 -33840038.47348 -26352257.40246  20606138.0474                   20606136.1254
 -16441967.46147 -12796346.31645  22604866.3364                   22604865.9694
 -28877171.68448 -22486063.25846  20700494.7894                   20700490.6094
 11  8 14  0  8  0.0000000  0  8G12G10G17G28G05G04G09G02
 -15161504.93747 -11799413.88745  22355525.5944                   22355522.9734
 -24109626.49648 -18772944.17646  21152047.7424                   21152045.6374
 -31528061.74647 -24551617.41845  22397976.2664                   22397974.4924
 -29727753.70346 -23152492.50843  23884638.5704                   23884638.4104
  -8514982.32047  -6619769.83645  23330723.6564                   23330724.4494
 -33806699.79348 -26326279.21146  20612482.2274                   20612480.1994
 -16410889.34447 -12772129.68045  22610780.5004                   22610780.0664
 -28928863.85948 -22526342.83246  20690657.9534                   20690654.1214
 11  8 14  0  8 30.0000000  0  8G12G10G17G28G05G04G09G02
 -15272142.68047 -11885625.07446  22334471.5784                   22334469.2814
 -24181508.89848 -18828956.39546  21138368.9144                   21138367.1804
 -31511043.19947 -24538356.22745  22401214.9304                   22401212.8984
 -29655696.28946 -23096343.91443  23898350.9534                   23898350.1644
  -8645917.50447  -6721797.03145  23305807.7734                   23305808.2544
 -33773040.42248 -26300051.12946  20618887.3364                   20618885.1564
 -16379389.16047 -12747584.16845  22616774.5704                   22616774.5204
 -28980188.58648 -22566336.09046  20680891.2344                   20680887.2234
 11  8 14  0  9  0.0000000  0  8G12G10G17G28G05G04G09G02
 -15382520.76647 -11971633.92645  22313468.0634                   22313465.5904
 -24252847.80548 -18884545.11746  21124793.6334                   21124791.7154
 -31493899.08247 -24524997.18445  22404477.1804                   22404475.5434
 -29583402.14146 -23040010.89143  23912108.1564                   23912108.1994
  -8776759.35547  -6823751.48045  23280909.0944                   23280910.0354
 -33739060.58248 -26273573.33646  20625353.7034                   20625351.4144
 -16347467.80547 -12722710.44545  22622849.1644                   22622849.2974
 -29031144.63348 -22606042.07446  20671194.5944                   20671190.7704
 11  8 14  0  9 30.0000000  0  8G12G10G17G28G05G04G09G02
 -15492640.14547 -12057441.19145  22292512.4614                   22292510.1054
 -24323644.04748 -18939710.96946  21111321.6024                   21111319.4024
 -31476632.48847 -24511542.71145  22407763.0164                   22407761.2464
 -29510876.04346 -22983497.15243  23925909.1804                   23925909.1094
  -8907508.57447  -6925633.75045  23256027.4774                   23256028.8404
 -33704766.18448 -26246850.43446  20631879.5234                   20631877.4614
 -16315131.78147 -12697513.60945  22629002.7424                   22629002.7584
 -29081736.00048 -22645463.88346  20661567.4304                   20661563.2344
 11  8 14  0 10  0.0000000  0  8G12G10G17G28G05G04G09G02
 -15602496.87947 -12143043.80146  22271607.8674                   22271605.4264
 -24393894.20348 -18994451.31646  21097953.0164                   21097951.0474
 -31459241.48847 -24497991.30145  22411072.8364                   22411070.7304
 -29438118.46147 -22926802.99643  23939755.3914                   23939754.8204
  -9038159.92647  -7027439.75445  23231165.5554                   23231166.6884
 -33670158.00448 -26219883.02746  20638465.4144                   20638462.9924
 -16282382.68747 -12671994.91445  22635234.2424                   22635234.6994
 -29131961.28148 -22684600.44146  20652009.5634                   20652005.4414
 11  8 14  0 10 30.0000000  0  8G12G10G17G28G05G04G09G02
 -15712088.15647 -12228439.55946  22250752.9304                   22250750.4964
 -24463595.88748 -19048764.27346  21084689.4614                   21084687.4534
 -31441725.34847 -24484342.37945  22414405.6884                   22414403.8794
 -29365131.82046 -22869930.38343  23953643.7194                   23953644.0594
  -9168710.88747  -7129167.55545  23206322.0164                   23206323.5044
 -33635238.28948 -26192672.86346  20645110.3054                   20645108.3714
 -16249223.80946 -12646156.89545  22641544.6334                   22641544.5824
 -29181821.36348 -22723452.43447  20642521.7424                   20642517.5704
 11  8 14  0 11  0.0000000  0  8G12G10G17G28G05G04G09G02
 -15821410.66447 -12313625.88346  22229949.7504                   22229947.3524
 -24532746.35948 -19102647.71146  21071530.9454                   21071528.7384
 -31424082.75847 -24470594.91445  22417762.9384                   22417761.3284
 -29291917.41846 -22812880.29743  23967576.3444                   23967576.0514
  -9299158.03947  -7230814.47745  23181499.1644                   23181499.6094
 -33600008.96548 -26165221.45346  20651814.3834                   20651812.3284
 -16215657.48047 -12620001.38745  22647931.9384                   22647932.1844
 -29231315.90648 -22762019.58646  20633103.1484                   20633098.8554
 11  8 14  0 11 30.0000000  0  8G12G10G17G28G05G04G09G02
 -15930463.79747 -12398602.31246  22209197.9144                   22209195.3554
 -24601345.06648 -19156101.20346  21058476.7814                   21058474.3754
 -31406314.93747 -24456749.87145  22421144.2194                   22421142.1524
 -29218478.69546 -22755655.39143  23981550.7194                   23981551.5984
  -9429500.04347  -7332379.46545  23156695.8594                   23156696.3674
 -33564474.12148 -26137531.97346  20658576.2814                   20658574.1684
 -16181688.81647 -12593532.36345  22654396.0314                   22654396.4304
 -29280447.55148 -22800303.96946  20623753.7194                   20623749.2854
 11  8 14  0 12  0.0000000  0  8G12G10G17G28G05G04G09G02
 -16039244.68047 -12483366.58645  22188496.8284                   22188494.7114
 -24669389.78148 -19209123.01646  21045528.0394                   21045525.7704
 -31388420.92647 -24442806.50045  22424549.0864                   22424547.2034
 -29144817.49646 -22698257.16443  23995567.7664                   23995568.7584
  -9559733.61347  -7433859.97745  23131912.9694                   23131913.5234
 -33528635.91048 -26109606.10946  20665395.9694                   20665394.2704
 -16147320.35247 -12566751.82045  22660936.3444                   22660936.5234
 -29329216.68748 -22838305.87547  20614473.3594                   20614469.2854
 11  8 14  0 12 30.0000000  0  8G12G10G17G28G05G04G09G02
 -16147751.87948 -12567917.60946  22167848.6804                   22167845.9844
 -24736879.04348 -19261712.01646  21032685.3284                   21032683.1954
 -31370401.53147 -24428765.44145  22427978.0704                   22427975.9734
 -29070936.60946 -22640687.79743  24009627.1094                   24009628.2734
  -9689856.97347  -7535254.60245  23107150.9694                   23107151.6024
 -33492497.61748 -26081446.39846  20672272.8134                   20672270.8914
 -16112556.32047 -12539663.03545  22667552.1174                   22667552.2814
 -29377624.93448 -22876026.56647  20605261.6954                   20605257.4414
 11  8 14  0 13  0.0000000  0  8G12G10G17G28G05G04G09G02
 -16255980.21547 -12652251.32046  22147253.5004                   22147251.2664
 -24803808.53948 -19313864.83246  21019948.8364                   21019946.9654
 -31352253.58647 -24414624.21145  22431431.1334                   22431429.5634
 -28996835.57846 -22582946.80943  24023728.7974                   24023728.6454
  -9819864.89147  -7636559.26245  23082411.5234                   23082411.5704
 -33456059.37548 -26053052.98046  20679206.9064                   20679205.0474
 -16077397.71546 -12512266.78945  22674242.1804                   22674242.5664
 -29425670.34448 -22913464.53546  20596118.5004                   20596114.5474
 11  8 14  0 13 30.0000000  0  8G12G10G17G28G05G04G09G02
 -16363927.85947 -12736366.31245  22126711.4224                   22126709.4614
 -24870176.75448 -19365580.28946  21007319.5394                   21007317.4264
 -31333977.02747 -24400382.75845  22434909.6024                   22434907.1684
 -28922517.12946 -22525036.47743  24037871.0554                   24037870.8674
  -9949754.66447  -7737771.85945  23057693.5634                   23057694.5164
 -33419323.85248 -26024427.91046  20686197.5784                   20686195.4144
 -16041848.03947 -12484565.80945  22681007.3054                   22681007.9964
 -29473354.03548 -22950620.63746  20587044.7814                   20587040.5784
 11  8 14  0 14  0.0000000  0  8G12G10G17G28G05G04G09G02
 -16471592.55947 -12820260.82445  22106223.6174                   22106221.2854
 -24935982.28548 -19416857.29346  20994797.1804                   20994795.2504
 -31315571.70347 -24386040.97345  22438411.9844                   22438409.9804
 -28847983.93045 -22466958.77043  24052053.9064                   24052054.0164
 -10079524.35947  -7838890.89845  23032999.2664                   23032999.8954
 -33382294.30148 -25995573.72746  20693244.0234                   20693241.8404
 -16005911.59846 -12456563.46145  22687845.6334                   22687845.8324
 -29520677.43048 -22987495.99247  20578039.4694                   20578035.1294
 11  8 14  0 14 30.0000000  0  8G12G10G17G28G05G04G09G02
 -15003549.20347 -11676330.87945  22385582.9694                   22385580.3404
 -23425801.73048 -18240093.19146  21282174.7274                   21282172.4454
 -29721618.42647 -23143999.49645  22741731.3054                   22741729.2854
 -27197821.03146 -21181117.72743  24366069.5944                   24366070.6684
  -8633747.18447  -6712311.06645  23308121.0864                   23308122.1564
 -31769554.88748 -24738893.67646  21000138.2814                   21000136.0394
 -14394173.17246 -11200663.46145  22994549.6334                   22994549.5554
 -27992220.17248 -21796490.31247  20868895.4224                   20868891.0664
 11  8 14  0 15  0.0000000  0  8G12G10G17G28G05G04G09G02
 -15110641.25447 -11759779.16846  22365203.9694                   22365201.4774
 -23490476.50448 -18290489.08646  21269867.9224                   21269865.5004
 -29702954.77047 -23129456.41045  22745283.1414                   22745280.9264
 -27122864.57446 -21122710.19143  24380333.3834                   24380334.6764
  -8763267.93047  -6813236.12145  23283473.8594                   23283474.4804
 -31731944.41448 -24709586.81646  21007295.0554                   21007293.1604
 -14357472.73847 -11172065.78545  23001533.2504                   23001533.1724
 -28038825.40248 -21832806.05946  20860026.5704                   20860022.1684
 11  8 14  0 15 30.0000000  0  8G12G10G17G28G05G04G09G02
 -15217444.56647 -11843002.47746  22344880.1414                   22344877.5824
 -23554584.95748 -18340443.70346  21257668.0554                   21257666.2304
 -29684163.04347 -23114813.53945  22748858.8914                   22748856.6844
 -27047701.57046 -21064141.71543  24394636.2584                   24394637.0704
  -8892661.73847  -6914062.29345  23258851.1174                   23258851.7734
 -31694049.23048 -24680058.12546  21014506.1174                   21014504.1374
 -14320397.15247 -11143175.78145  23008588.3444                   23008589.0004
 -28085074.57448 -21868844.35546  20851225.4614                   20851221.0984
 11  8 14  0 16  0.0000000  0  8G12G10G17G28G05G04G09G02
 -15323958.84047 -11926000.54746  22324611.0084                   22324608.7934
 -23618126.28148 -18389956.39146  21245576.7194                   21245574.4734
 -29665244.10947 -23100071.54345  22752459.1414                   22752456.8484
 -26972335.30546 -21005414.89843  24408978.0474                   24408978.9024
  -9021927.03547  -7014788.31645  23234252.6954                   23234253.1454
 -31655873.04748 -24650310.46146  21021771.1724                   21021768.8914
 -14282951.07447 -11113997.09445  23015714.3594                   23015714.8914
 -28130969.76648 -21904606.82046  20842492.1024                   20842487.6994
 11  8 14  0 16 30.0000000  0  8G12G10G17G28G05G04G09G02
 -15430177.49247 -12008768.28546  22304398.2034                   22304395.9924
 -23681094.62548 -18439022.60546  21233593.8984                   21233592.5594
 -29646193.74647 -23085227.14545  22756084.5474                   22756082.1454
 -26896763.85546 -20946528.13343  24423359.5474                   24423359.5084
  -9151057.19947  -7115409.04745  23209680.1254                   23209680.3134
 -31617414.39148 -24620342.69146  21029089.4774                   21029087.3834
 -14245133.78147 -11084529.14845  23022911.2504                   23022911.2384
 -28176507.56648 -21940090.79747  20833826.4774                   20833821.9344
 11  8 14  0 17  0.0000000  0  8G12G10G17G28G05G04G09G02
 -15536099.05547 -12091304.51646  22284241.8284                   22284239.5904
 -23743489.59448 -18487642.02746  21221720.6954                   21221718.6644
 -29627012.59447 -23070280.82445  22759734.8524                   22759732.7504
 -26820990.88346 -20887484.37942  24437778.3674                   24437778.1604
  -9280050.73047  -7215923.32845  23185133.2974                   23185133.1994
 -31578677.18048 -24590157.86746  21036460.8754                   21036458.9964
 -14206950.14847 -11054775.73445  23030176.9064                   23030177.5354
 -28221690.59048 -21975298.32447  20825228.3524                   20825223.8284
 11  8 14  0 17 30.0000000  0  7G12G10G17G05G04G09G02
 -15641722.85547 -12173608.73046  22264142.3984                   22264140.1094
 -23805311.32848 -18535814.78146  21209956.6174                   21209954.3834
 -29607701.80147 -23055233.50445  22763409.4064                   22763407.4924
  -9408906.66847  -7316330.38345  23160612.5554                   23160612.9804
 -31539665.54347 -24559759.19946  21043884.6414                   21043882.3954
 -14168405.48046 -11024740.99245  23037511.9844                   23037512.4844
 -28266521.50848 -22010231.47347  20816697.2584                   20816692.8134
 11  8 14  0 18  0.0000000  0  7G12G10G17G05G04G09G02
 -15747044.48047 -12255677.49646  22244100.4454                   22244097.8094
 -23866555.70748 -18583537.64846  21198301.9694                   21198299.7584
 -29588258.57447 -23040082.98445  22767109.4144                   22767107.1174
  -9537619.57847  -7416625.98045  23136119.3834                   23136119.2584
 -31500379.68048 -24529146.84446  21051360.2664                   21051358.1764
 -14129500.68746 -10994425.63745  23044915.1804                   23044915.5704
 -28310998.59848 -22044888.91847  20808233.5944                   20808229.0904
 11  8 14  0 18 30.0000000  0  7G12G10G17G05G04G09G02
 -15852050.93447 -12337500.66846  22224118.3204                   22224115.6644
 -23927210.82848 -18630801.34846  21186759.5164                   21186757.9414
 -29568672.71947 -23024821.30945  22770836.0394                   22770834.4304
  -9666176.69947  -7516800.19945  23111655.5084                   23111655.5434
 -31460811.92648 -24498314.84846  21058890.1414                   21058887.7544
 -14090228.73847 -10963824.18745  23052388.4924                   23052389.0084
 -28355112.50048 -22079263.35947  20799838.9774                   20799834.5704
 11  8 14  0 19  0.0000000  0  7G12G10G17G05G04G09G02
 -15956738.15247 -12419075.09846  22204197.2114                   22204194.5864
 -23987273.39848 -18677603.32046  21175330.1644                   21175328.0314
 -29548941.81247 -23009446.61745  22774591.1414                   22774588.9064
  -9794573.32047  -7616849.35545  23087222.4384                   23087222.5394
 -31420962.91048 -24467263.67246  21066473.1644                   21066470.9024
 -14050591.60247 -10932938.17644  23059931.4454                   23059931.9264
 -28398862.43448 -22113354.18047  20791513.9534                   20791509.3204
 11  8 14  0 19 30.0000000  0  7G12G10G17G05G04G09G02
 -16061104.35247 -12500399.39146  22184336.4774                   22184333.9534
 -24046742.19548 -18723942.60546  21164013.8524                   21164011.6804
 -29529065.85247 -22993958.89145  22778373.2504                   22778371.4384
  -9922807.32447  -7716771.78545  23062820.1334                   23062820.4654
 -31380835.63348 -24435995.67646  21074108.8674                   21074107.0434
 -14010593.18447 -10901770.65644  23067542.4534                   23067542.9924
 -28442249.75848 -22147162.44546  20783257.3984                   20783252.6764
 11  8 14  0 20  0.0000000  0  7G12G10G17G05G04G09G02
 -16165154.00047 -12581477.02046  22164536.4224                   22164534.1484
 -24105622.63748 -18769823.44546  21152809.0784                   21152806.9884
 -29509051.59447 -22978363.39545  22782182.1094                   22782179.6604
 -10050882.17247  -7816570.19545  23038447.9614                   23038448.1214
 -31340439.70748 -24404518.34446  21081796.1804                   21081794.0004
 -13970243.86347 -10870329.68044  23075220.9614                   23075221.1214
 -28485282.04348 -22180694.05947  20775068.6024                   20775063.9384
 11  8 14  0 20 30.0000000  0  7G12G10G17G05G04G09G02
 -16268882.75047 -12662304.59446  22144798.1174                   22144795.5744
 -24163911.56248 -18815243.35546  21141717.0864                   21141714.7504
 -29488896.57447 -22962658.20745  22786017.3594                   22786015.1604
 -10178794.23047  -7916241.76645  23014106.8984                   23014107.3204
 -31299775.64548 -24372832.07046  21089534.0084                   21089532.2814
 -13929545.75847 -10838616.96144  23082965.9774                   23082965.7034
 -28527959.03948 -22213948.82847  20766947.2894                   20766942.7504
 11  8 14  0 21  0.0000000  0  7G12G10G17G05G04G09G02
 -16372290.36347 -12742881.93446  22125119.8914                   22125117.4104
 -24221609.13748 -18860202.47746  21130737.6804                   21130735.2664
 -29468602.46547 -22946844.64145  22789879.4384                   22789876.6414
 -10306542.22747  -8015785.48845  22989797.4534                   22989797.1134
 -31258848.18748 -24340940.55546  21097322.5474                   21097320.4924
 -13888503.99247 -10806636.43744  23090775.6484                   23090775.9384
 -28570283.63348 -22246928.99647  20758893.1954                   20758888.6454
 11  8 14  0 21 30.0000000  0  7G12G10G17G05G04G09G02
 -16475380.53947 -12823211.93446  22105502.6724                   22105499.9534
 -24278720.25048 -18904704.61746  21119869.7974                   21119867.1334
 -29448174.90647 -22930927.08245  22793766.3674                   22793764.3524
 -10434129.35947  -8115203.85945  22965517.8444                   22965517.7664
 -31217665.82448 -24308850.42246  21105159.0864                   21105157.5434
 -13847128.14547 -10774395.60245  23098649.1644                   23098649.6484
 -28612262.82848 -22279640.02746  20750904.7974                   20750900.1334
 11  8 14  0 22  0.0000000  0  7G12G10G17G05G04G09G02
 -16578147.37547 -12903289.97746  22085946.9224                   22085944.4804
 -24335239.69948 -18948745.71146  21109113.9384                   21109111.9224
 -29427609.79347 -22914902.35545  22797679.9304                   22797677.9104
 -10561549.64147  -8214492.23845  22941271.1094                   22941270.4574
                                  21113044.8134                   21113042.4494
 -13805418.17646 -10741894.40644  23106586.7424                   23106586.9614
 -28653894.10948 -22312079.95346  20742982.6644                   20742978.1764
 11  8 14  0 22 30.0000000  0  7G12G10G17G05G04G09G02
 -16680588.41447 -12983114.15246  22066452.7974                   22066449.8834
 -24391165.79348 -18992324.45746  21098471.9224                   21098469.8054
 -29406907.00047 -22898770.33245  22801619.4774                   22801617.3834
 -10688800.05947  -8313648.25445  22917055.9454                   22917055.2704
 -31134534.81248 -24244072.81246  21120978.7034                   21120976.2974
 -13763377.37546 -10709135.43044  23114586.6094                   23114587.4304
 -28695178.04748 -22344249.23047  20735126.5784                   20735121.7464
 11  8 14  0 23  0.0000000  0  7G12G10G17G05G04G09G02
 -16782701.54347 -13062682.81246  22047021.3204                   22047018.5474
 -24446497.95747 -19035440.39146  21087942.1564                   21087939.9384
 -29386066.66447 -22882531.14145  22805585.2194                   22805583.3364
 -10815878.26247  -8412670.07045  22892873.2664                   22892873.1724
 -31092592.66048 -24211390.63346  21128959.8364                   21128957.6454
 -13721009.92646 -10676121.92644  23122648.8204                   23122649.1724
 -28736116.24248 -22376149.09447  20727336.3674                   20727331.6094
 11  8 14  0 23 30.0000000  0  7G12G10G17G05G04G09G02
 -16884484.51247 -13141994.19946  22027652.7194                   22027649.9774
 -24501234.45347 -19078092.17646  21077526.6884                   21077523.9774
 -29365088.27347 -22866184.35945  22809577.4144                   22809575.1884
 -10942781.59447  -8511555.64845  22868724.7894                   22868724.1764
 -31050402.64548 -24178515.30546  21136988.4844                   21136986.0944
 -13678319.51646 -10642856.75844  23130772.4844                   23130773.6414
 -28776710.25448 -22407780.77347  20719611.4534                   20719606.7424
 11  8 14  0 24  0.0000000  0  7G12G10G17G05G04G09G02
 -16985934.85247 -13221046.39546  22008347.6724                   22008344.9534
 -24555373.64548 -19120278.51646  21067223.6334                   21067221.7974
 -29343970.87547 -22849729.26245  22813595.6724                   22813594.0314
 -11069506.90247  -8610302.49245  22844609.0474                   22844609.3094
 -31007966.57448 -24145448.26246  21145063.6334                   21145061.6134
 -13635309.25847 -10609342.36744  23138957.5554                   23138957.8444
 -28816960.39548 -22439144.49246  20711952.0944                   20711947.5594
 11  8 14  0 24 30.0000000  0  7G12G10G17G05G04G09G02
 -17087052.10947 -13299839.04346  21989105.1484                   21989102.5784
 -24608916.08648 -19161999.85546  21057035.2504                   21057033.2384
 -29322716.17247 -22833167.19145  22817640.6564                   22817638.3914
 -11196053.25047  -8708909.88345  22820528.0164                   22820528.0864
 -30965289.36348 -24112193.31246  21153185.1254                   21153182.9064
 -13591984.76247 -10575583.09444  23147201.5634                   23147202.6134
 -28856869.40248 -22470242.40647  20704357.4304                   20704353.1564
 11  8 14  0 25  0.0000000  0  7G12G10G17G05G04G09G02
 -17187832.32047 -13378369.05946  21969927.5554                   21969925.0664
 -24661859.45348 -19203254.39146  21046960.2734                   21046958.2734
 -29301322.33247 -22816496.69545  22821711.5554                   22821709.9144
 -11322416.61747  -8807374.69545  22796481.8834                   22796481.7464
 -30922371.86348 -24078751.10546  21161351.7894                   21161349.4344
 -13548348.26247 -10541580.71144  23155505.9224                   23155506.3754
 -28896437.09048 -22501074.35247  20696828.1804                   20696823.6994
 11  8 14  0 25 30.0000000  0  7G12G10G17G05G04G09G02
 -17288272.79747 -13456634.33646  21950813.9304                   21950811.5434
 -24714201.98048 -19244040.75046  21036999.6484                   21036998.0634
 -29279788.49247 -22799717.11745  22825809.0164                   22825807.4884
 -11448593.45747  -8905694.15645  22772471.3134                   22772470.9104
 -30879216.27048 -24045123.39146  21169563.9924                   21169562.0204
 -13504402.84447 -10507337.59844  23163868.0164                   23163868.9844
 -28935664.52748 -22531641.16447  20689363.4064                   20689358.7464
 11  8 14  0 26  0.0000000  0  7G12G10G17G05G04G09G02
 -17388373.48047 -13534634.85246  21931765.6174                   21931762.8014
 -24765944.60548 -19284359.64846  21027153.5634                   21027151.8014
 -29258117.01247 -22782830.28145  22829933.3834                   22829931.3874
 -11574583.81247  -9003868.31245  22748495.9454                   22748496.0204
 -30835827.51648 -24011313.97746  21177820.4304                   21177818.4144
 -13460154.57846 -10472858.51244  23172288.5704                   23172289.6914
 -28974554.94948 -22561945.37547  20681962.7664                   20681957.9804
 11  8 14  0 26 30.0000000  0  7G12G10G17G05G04G09G02
 -17488129.38747 -13612366.69146  21912782.7504                   21912780.0354
 -24817082.91848 -19324207.65246  21017422.3204                   21017420.1764
 -29236304.43047 -22765833.50045  22834083.8444                   22834082.3244
 -11700382.17647  -9101892.87145  22724557.6724                   22724556.9104
 -30792205.08648 -23977322.48446  21186121.6254                   21186119.7384
 -13415603.96146 -10438143.82044  23180766.0314                   23180767.2304
 -29013106.26648 -22591985.35546  20674626.6804                   20674621.8284
 11  8 14  0 27  0.0000000  0  7G12G10G17G05G04G09G02
 -17587537.37547 -13689827.43746  21893866.1414                   21893863.2424
 -24867615.40248 -19363583.58646  21007806.3204                   21007804.0864
 -29214349.62547 -22748725.90245  22838261.9534                   22838260.1764
 -11825984.92247  -9199764.99645  22700655.7114                   22700654.9264
 -30748350.83648 -23943150.34846  21194466.6094                   21194464.6024
 -13370753.73447 -10403195.64844  23189301.0164                   23189301.5204
 -29051318.82048 -22621761.35947  20667355.2344                   20667350.5274
 11  8 14  0 27 30.0000000  0  7G12G10G17G05G04G09G02
 -17686595.34447 -13767015.44146  21875015.7194                   21875013.2934
 -24917541.38748 -19402486.92246  20998305.4924                   20998303.4964
 -29192252.85247 -22731507.67245  22842467.0634                   22842465.1954
 -11951389.46147  -9297482.67645  22676791.7424                   22676791.2074
 -30704267.78148 -23908799.91046  21202855.5394                   21202853.5274
 -13325608.14146 -10368017.32045  23197892.3524                   23197892.9614
 -29089194.65248 -22651274.99646  20660147.2734                   20660142.7304
 11  8 14  0 28  0.0000000  0  7G12G10G17G05G04G09G02
 -17785302.64847 -13843930.19946  21856232.4384                   21856229.6254
 -24966861.04748 -19440917.78546  20988920.3984                   20988918.2584
 -29170014.92247 -22714179.47345  22846698.4144                   22846696.8714
 -12076594.51247  -9395044.90645  22652965.7894                   22652965.3164
 -30659959.48448 -23874273.96946  21211287.2034                   21211285.1914
 -13280171.90647 -10332612.51245  23206538.3444                   23206539.3094
 -29126736.03548 -22680528.02347  20653003.7894                   20652998.8984
 11  8 14  0 28 30.0000000  0  7G12G10G17G05G04G09G02
 -17883657.32847 -13920570.18446  21837516.0704                   21837513.4494
 -25015573.30948 -19478875.37146  20979650.6724                   20979648.8794
 -29147635.19947 -22696740.77045  22850957.4454                   22850955.6914
 -12201597.26247  -9492449.50445  22629178.7894                   22629178.2424
 -30615428.80148 -23839574.73046  21219761.0704                   21219758.9734
 -13234449.10947 -10296984.41845  23215239.2274                   23215239.9964
 -29163944.22748 -22709521.41847  20645923.0554                   20645918.4144
 11  8 14  0 29  0.0000000  0  7G12G10G17G05G04G09G02
 -17981655.50047 -13996932.37546  21818867.6644                   21818865.0394
 -25063676.31248 -19516358.19946  20970497.1174                   20970495.0354
 -29125112.83247 -22679190.92245  22855243.2344                   22855241.7154
 -12326394.16847  -9589693.70345  22605430.3524                   22605429.8834
 -30570677.25448 -23804703.38746  21228276.9454                   21228275.0514
 -13188442.41447 -10261135.10245  23223993.9694                   23223994.9144
 -29200819.11747 -22738255.10247  20638906.0864                   20638901.3874
 11  8 14  0 29 30.0000000  0  7G12G10G17G05G04G09G02
 -18079292.23847 -14073012.93446  21800288.1954                   21800285.5554
 -25111166.13348 -19553363.23846  20961459.8674                   20961458.1374
 -29102444.74247 -22661527.53145  22859556.8754                   22859555.4144
 -12450980.12147  -9686773.53145  22581722.6884                   22581721.8794
 -30525704.36748 -23769659.57046  21236834.9304                   21236832.7464
 -13142152.95747 -10225065.46545  23232802.3054                   23232803.3954
 -29237359.50448 -22766728.12947  20631952.6024                   20631948.1334
 11  8 14  0 30  0.0000000  0  7G12G10G17G05G04G09G02
 -18176567.29747 -14148811.65646  21781776.6804                   21781774.6604
 -25158043.38748 -19589890.93746  20952539.4384                   20952537.5984
 -29079632.13747 -22643751.51645  22863898.4774                   22863896.9224
 -12575353.62147  -9783687.80545  22558054.9304                   22558054.4534
 -30480514.57448 -23734446.74246  21245434.6954                   21245432.1414
 -13095585.65647 -10188779.33244  23241664.1724                   23241665.0234
 -29273568.03148 -22794942.56646  20625062.4304                   20625057.7584
 11  8 14  0 30 30.0000000  0  7G12G10G17G05G04G09G02
 -18273478.05947 -14224326.52346  21763335.8914                   21763333.1134
 -25204307.25048 -19625940.67646  20943735.8134                   20943733.6414
 -29056674.63747 -22625862.61345  22868267.1884                   22868265.0664
 -12699512.19947  -9880434.60945  22534428.3054                   22534427.7344
 -30435110.10247 -23699066.62946  21254074.5944                   21254072.3444
 -13048743.96546 -10152279.36344  23250578.1884                   23250578.5394
 -29309445.62148 -22822899.13347  20618235.1484                   20618230.4964
 11  8 14  0 31  0.0000000  0  8G12G10G17G25G05G04G09G02
 -18370023.59847 -14299556.78946  21744963.5084                   21744960.8674
 -25249957.87947 -19661512.57846  20935048.8204                   20935046.5354
 -29033572.87547 -22607861.29345  22872663.1254                   22872661.1994
   1384455.25857   1093986.00854  24640058.2344                   24640060.3364
 -12823454.09447  -9977012.58645  22510842.9304                   22510841.9924
 -30389494.66047 -23663522.13346  21262755.0554                   21262752.8364
 -13001632.73047 -10115569.37544  23259542.8594                   23259543.9494
 -29344995.03948 -22850599.97347  20611470.3444                   20611465.7074
 11  8 14  0 31 30.0000000  0  8G12G10G17G25G05G04G09G02
 -18466206.17647 -14374504.22746  21726660.7664                   21726658.2274
 -25294999.06248 -19696609.57846  20926477.5784                   20926475.7624
 -29010331.39547 -22589751.10245  22877085.8594                   22877083.9844
   1255209.91847    993275.49644  24615463.7584                   24615465.5084
 -12947181.07047 -10073423.10545  22487298.0164                   22487297.2814
 -30343675.43748 -23627818.83246  21271474.2194                   21271472.0824
 -12954260.30147 -10078655.85944  23268557.3054                   23268558.1484
 -29380221.91848 -22878049.48846  20604766.6954                   20604762.3444
 11  8 14  0 32  0.0000000  0  8G12G10G17G25G05G04G09G02
 -18562030.64547 -14449172.62946  21708425.7584                   21708423.1374
 -25339436.79348 -19731236.36346  20918021.4774                   20918019.1804
 -28986957.07047 -22571537.39145  22881534.0704                   22881532.0274
   1126062.38747    892641.21144  24590887.9844                   24590890.1024
 -13070697.48447 -10169669.53945  22463793.9144                   22463793.2344
 -30297662.03548 -23591964.24246  21280229.9224                   21280228.0434
 -12906637.64147 -10041547.37544  23277620.0554                   23277620.7384
 -29415134.37148 -22905253.99246  20598123.3754                   20598119.0984
 11  8 14  0 32 30.0000000  0  8G12G10G17G25G05G04G09G02
 -18657487.89147 -14523554.87146  21690260.9614                   21690258.1604
 -25383263.89148 -19765387.33646  20909681.4144                   20909679.5474
 -28963442.64847 -22553214.52045  22886008.6804                   22886006.5474
    997021.65247    792090.14144  24566332.1884                   24566334.0824
 -13193994.25847 -10265744.83245  22440330.7344                   22440330.1454
 -30251450.04748 -23555954.90246  21289024.0004                   21289021.6484
 -12858761.87546 -10004241.63744  23286730.1254                   23286730.5594
 -29449727.45748 -22932209.64146  20591540.0314                   20591535.7544
 11  8 14  0 33  0.0000000  0  8G12G10G17G25G05G04G09G02
 -18752574.50847 -14597648.30946  21672166.4534                   21672163.8244
 -25426478.32448 -19799060.90246  20901457.9924                   20901455.8554
 -28939786.68447 -22534781.34845  22890510.1174                   22890508.2854
    868090.92247    691624.77744  24541797.2814                   24541798.7624
 -13317067.55547 -10361645.99245  22416910.8134                   22416909.8054
 -30205040.99248 -23519792.00846  21297855.2344                   21297852.9964
 -12810635.39147  -9966740.55544  23295888.5004                   23295889.6254
 -29484000.85548 -22958916.16847  20585018.3984                   20585013.7464
 11  8 14  0 33 30.0000000  0  8G12G10G17G25G05G04G09G02
 -18847284.65647 -14671448.38346  21654143.7344                   21654141.2384
 -25469075.09047 -19832253.16846  20893352.1414                   20893349.5474
 -28915984.99647 -22516234.62945  22895039.6174                   22895037.4844
    739276.46547    591249.97744  24517284.5554                   24517286.2194
 -13439910.35247 -10457367.53545  22393534.4384                   22393534.1054
 -30158433.41848 -23483474.42646  21306724.6644                   21306722.2974
 -12762257.83247  -9929043.86344  23305094.5944                   23305095.4304
 -29517951.83248 -22985371.46547  20578557.5864                   20578553.1094
 11  8 14  0 34  0.0000000  0  8G12G10G17G25G05G04G09G02
 -18941615.00847 -14744952.50846  21636193.3444                   21636190.6844
 -25511052.55547 -19864962.85946  20885364.0704                   20885361.5984
 -28892036.29347 -22497573.34045  22899596.9774                   22899594.5004
    610581.38347    490968.21144  24492794.9064                   24492796.5084
 -13562519.37147 -10552906.91845  22370202.7344                   22370201.8324
 -30111628.67247 -23447003.20346  21315631.2034                   21315629.4654
 -12713632.01247  -9891153.69944  23314347.9844                   23314348.4144
 -29551581.00048 -23011575.99647  20572158.1414                   20572153.7154
 11  8 14  0 34 30.0000000  0  8G12G10G17G25G05G04G09G02
 -19035562.97747 -14818158.66446  21618315.6644                   21618313.0164
 -25552409.59048 -19897189.10246  20877493.8054                   20877491.6054
 -28867939.51247 -22478796.66445  22904182.3364                   22904180.6644
    482008.44147    390781.62544  24468327.7894                   24468329.8634
 -13684891.16447 -10648261.46545  22346915.8204                   22346915.2894
 -30064628.82048 -23410379.96146  21324574.6024                   21324572.8364
 -12664760.98446  -9853072.46544  23323647.1484                   23323648.7034
 -29584888.99648 -23037530.25447  20565819.8594                   20565815.4694
 11  8 14  0 35  0.0000000  0  8G12G10G17G25G05G04G09G02
 -19129121.44148 -14891061.30946  21600512.1644                   21600509.4454
 -25593140.70748 -19928927.60946  20869742.9064                   20869740.8594
 -28843689.47747 -22459900.57045  22908796.9144                   22908795.1954
    353564.77046    290695.73043  24443885.8204                   24443887.5004
 -13807018.32047 -10743425.37545  22323676.2814                   22323675.3054
 -30017431.27048 -23373602.67646  21333556.3444                   21333554.1094
 -12615643.41446  -9814799.14544  23332994.7814                   23332994.9344
 -29617871.98448 -23063231.26647  20559543.4384                   20559539.1884
 11  8 14  0 35 30.0000000  0  8G12G10G17G25G05G04G09G02
 -19222291.84847 -14963661.57046  21582782.1564                   21582779.4694
 -25633248.78148 -19960180.63746  20862110.9064                   20862108.4694
 -28819290.11747 -22440888.11745  22913440.0474                   22913438.5004
    225248.60246    190709.16043  24419467.6884                   24419469.5944
 -13928901.85547 -10838399.44946  22300482.4614                   22300481.1484
 -29970042.48048 -23336676.36346  21342574.1094                   21342572.1254
 -12566287.30546  -9776339.93744  23342386.7894                   23342387.6524
 -29650535.19148 -23088683.08647  20553327.8364                   20553323.6524
 11  8 14  0 36  0.0000000  0  8G12G10G17G25G05G04G09G02
 -19315069.38747 -15035955.69146  21565127.3364                   21565124.2624
 -25672730.66048 -19990945.71146  20854597.4454                   20854595.2704
 -28794738.16047 -22421756.75445  22918112.1024                   22918110.6094
     97064.92246     90825.87143  24395075.4454                   24395076.9264
 -14050536.13747 -10933179.30545  22277336.1174                   22277335.0744
 -29922462.05148 -23299600.73846  21351628.3834                   21351626.3444
 -12516693.30147  -9737695.37544  23351824.8054                   23351825.2234
 -29682876.89548 -23113884.38747  20547173.3054                   20547169.1764
 11  8 14  0 36 30.0000000  0  8G12G10G17G25G05G04G09G02
 -19407453.19148 -15107943.00846  21547547.1254                   21547544.3014
 -25711587.28148 -20021223.59046  20847203.1644                   20847201.2734
 -28770034.76247 -22402507.37145  22922813.5704                   22922811.2664
    -30985.29746     -8953.45743  24370708.0784                   24370709.2304
 -14171920.11347 -11027764.11346  22254237.2894                   22254236.4654
 -29874693.82448 -23262378.77346  21360718.2424                   21360716.5904
 -12466866.30546  -9698869.27044  23361306.2584                   23361307.2344
 -29714900.06648 -23138837.48047  20541079.4064                   20541075.0044
 11  8 14  0 37  0.0000000  0  8G12G10G17G25G05G04G09G02
 -19499439.18048 -15179620.33646  21530042.6484                   21530039.8054
 -25749815.91048 -20051012.11746  20839928.5314                   20839926.4494
 -28745177.54347 -22383138.13345  22927543.7814                   22927541.3754
   -158897.83646   -108625.54743  24346367.0864                   24346367.7894
 -14293049.02347 -11122150.16045  22231187.1724                   22231186.0234
 -29826738.10948 -23225010.71546  21369844.0084                   21369842.5634
 -12416808.24247  -9659863.10944  23370831.9844                   23370832.9104
 -29746603.87148 -23163541.71947  20535046.4304                   20535041.8634
 11  8 14  0 37 30.0000000  0  8G12G10G17G25G05G04G09G02
 -19591024.52048 -15250985.47746  21512614.4694                   21512611.8094
 -25787415.61348 -20080310.57046  20832773.8594                   20832771.4534
 -28720165.65247 -22363648.36345  22932303.2814                   22932301.3444
   -286670.00846   -208188.28144  24322052.3914                   24322054.3364
 -14413920.00447 -11216335.23045  22208186.1724                   22208184.8204
 -29778596.89148 -23187498.11746  21379005.1254                   21379003.1054
 -12366522.28547  -9620679.38344  23380401.3054                   23380402.2114
 -29777989.19148 -23187997.78947  20529074.1414                   20529069.6684
 11  8 14  0 38  0.0000000  0  8G12G10G17G25G05G04G09G02
 -19682206.13348 -15322036.03546  21495263.1954                   21495260.1724
 -25824385.17648 -20109118.00446  20825738.5864                   20825736.0084
 -28694998.10947 -22344037.29345  22937092.1804                   22937090.4304
   -414298.66846   -307639.15643  24297765.9064                   24297768.1604
 -14534529.26647 -11310316.36746  22185235.0314                   22185234.2384
 -29730271.78548 -23149842.23446  21388200.9304                   21388199.1804
 -12316011.31647  -9581320.30144  23390012.9224                   23390014.3794
 -29809056.63348 -23212206.16847  20523162.3834                   20523157.7194
 11  8 14  0 38 30.0000000  0  8G12G10G17G25G05G04G09G02
 -19772982.96548 -15392771.17646  21477989.3914                   21477986.0744
 -25860724.38748 -20137434.27046  20818823.5554                   20818821.1994
 -28669675.23047 -22324305.18745  22941911.0554                   22941908.8014
   -541782.43446   -406977.14544  24273506.6334                   24273508.4494
 -14654874.78947 -11404091.99246  22162333.8204                   22162332.5394
 -29681766.03548 -23112045.57446  21397431.1724                   21397429.1764
 -12265279.94547  -9541789.50044  23399667.7424                   23399668.5944
 -29839808.18448 -23236168.39147  20517309.7814                   20517305.8054
 11  8 14  0 39  0.0000000  0  8G12G10G17G25G05G04G09G02
 -19863351.39148 -15463188.09446  21460792.5084                   21460789.0944
 -25896431.83648 -20165258.23046  20812028.5314                   20812026.1334
 -28644195.19547 -22304450.61745  22946759.5394                   22946757.5124
   -669117.62147   -506199.34044  24249275.7504                   24249277.3524
 -14774953.00047 -11497659.33246  22139483.5084                   22139482.7664
 -29633080.67248 -23074108.97346  21406696.0394                   21406694.4144
 -12214330.30947  -9502088.61744  23409362.8054                   23409364.4304
 -29870243.74248 -23259884.39147  20511518.2734                   20511513.8134
 11  8 14  0 39 30.0000000  0  8G12G10G17G25G05G04G09G02
 -19953309.74648 -15533285.48046  21443674.0394                   21443670.6254
 -25931507.33248 -20192589.77046  20805353.7344                   20805351.4414
 -28618558.35547 -22284473.88745  22951638.0474                   22951636.2774
   -796302.44147   -605304.37544  24225073.3444                   24225075.1764
 -14894761.35247 -11591016.38345  22116684.6724                   22116683.5234
 -29584218.52048 -23036034.61746  21415994.1094                   21415992.3754
 -12163166.74647  -9462221.03544  23419099.2034                   23419100.7384
 -29900364.83248 -23283355.35247  20505786.7114                   20505782.3714
 11  8 14  0 40  0.0000000  0  8G12G10G17G25G05G04G09G02
 -20042855.73448 -15603061.55146  21426633.7114                   21426630.8874
 -25965950.50448 -20219428.59446  20798799.5704                   20798797.2624
 -28592764.68047 -22264374.94545  22956546.6024                   22956545.3444
   -923334.36747   -704290.23844  24200899.5554                   24200901.7464
 -15014297.17647 -11684161.07446  22093937.4614                   22093936.4534
 -29535181.84848 -22997824.27346  21425325.2894                   21425323.7424
 -12111792.60547  -9422189.35944  23428875.1334                   23428876.8444
 -29930172.78148 -23306582.30947  20500114.5944                   20500110.0084
 11  8 14  0 40 30.0000000  0  8G12G10G17G25G05G04G09G02
 -20131988.39848 -15672515.55146  21409672.3134                   21409669.5474
 -25999762.17248 -20245775.33646  20792365.4774                   20792363.1994
 -28566814.85247 -22244154.32445  22961484.4534                   22961483.0204
  -1050212.48047   -803156.27044  24176755.6804                   24176757.4414
 -15133558.78947 -11777092.08646  22071242.6174                   22071241.7504
 -29485974.21948 -22959480.70746  21434689.6644                   21434687.8324
 -12060212.85547  -9381997.46944  23438690.4844                   23438691.8244
 -29959670.46148 -23329567.49647  20494501.5164                   20494496.5164
 11  8 14  0 41  0.0000000  0  8G12G10G17G25G05G04G09G02
 -20220702.80948 -15741643.66046  21392790.7114                   21392787.4064
 -26032939.04748 -20271627.43446  20786052.3134                   20786049.5474
 -28540705.66446 -22223809.54344  22966452.5944                   22966451.5354
  -1176931.52747   -901898.32844  24152642.0234                   24152643.5314
 -15252540.89147 -11869805.30546  22048601.2814                   22048599.8444
 -29436595.06648 -22921003.49246  21444085.7114                   21444084.1334
 -12008428.35547  -9341646.04344  23448545.1884                   23448546.3714
 -29988856.19948 -23352309.60947  20488947.2814                   20488942.6454
 11  8 14  0 41 30.0000000  0  8G12G10G17G25G05G04G09G02
 -20308998.58247 -15810445.55946  21375988.3754                   21375985.6214
 -26065482.88748 -20296986.25046  20779859.3054                   20779856.7114
 -28514438.53947 -22203341.70345  22971451.1884                   22971449.7734
  -1303491.02746  -1000516.03544  24128558.2034                   24128559.7814
 -15371242.39847 -11962299.88345  22026013.1644                   22026011.6294
 -29387048.49648 -22882395.81246  21453514.6484                   21453512.7274
 -11956444.46147  -9301139.23844  23458437.1334                   23458438.7584
 -30017732.93048 -23374810.94147  20483452.1884                   20483447.7304
 11  8 14  0 42  0.0000000  0  8G12G10G17G25G05G04G09G02
 -20396874.81647 -15878920.55146  21359265.9614                   21359263.6684
 -26097394.11348 -20321852.11746  20773786.6414                   20773784.3754
 -28488014.32447 -22182751.44945  22976480.5784                   22976478.6024
  -1429889.81247  -1099008.50844  24104505.2194                   24104507.0984
 -15489662.02347 -12054574.82446  22003478.2034                   22003477.2304
 -29337338.10248 -22843660.48046  21462974.3834                   21462972.2154
 -11904266.02047  -9260480.82444  23468366.4694                   23468368.5164
 -30046303.05548 -23397073.36747  20478015.6414                   20478011.1414
 11  8 14  0 42 30.0000000  0  8G12G10G17G25G05G04G09G02
 -20484325.11747 -15947063.64846  21342624.7814                   21342621.8834
 -26128668.85548 -20346222.03546  20767835.2424                   20767833.1334
 -28461428.71947 -22162035.44545  22981539.0784                   22981537.4694
  -1556121.71146  -1197370.93044  24080483.9924                   24080485.4494
 -15607792.95747 -12146624.79346  21980998.6644                   21980997.4924
 -29287462.21148 -22804796.18446  21472465.4384                   21472463.3914
 -11851893.10947  -9219670.89544  23478332.9224                   23478334.8554
 -30074564.32448 -23419095.12547  20472637.4384                   20472632.9844
 11  8 14  0 43  0.0000000  0  8G12G10G17G25G05G04G09G02
 -20571351.41047 -16014876.34446  21326064.3754                   21326061.5594
 -26159310.34448 -20370098.49646  20762004.4614                   20762001.8054
 -28434685.33247 -22141196.50445  22986628.5234                   22986626.5514
  -1682187.95346  -1295604.22744  24056493.8364                   24056496.4304
 -15725636.57047 -12238450.88746  21958573.4694                   21958572.8054
 -29237426.70748 -22765807.50846  21481986.8914                   21481985.2814
 -11799332.84447  -9178714.96544  23488334.4224                   23488336.2704
 -30102521.37148 -23440879.82847  20467317.6174                   20467313.0314
 11  8 14  0 43 30.0000000  0  8G12G10G17G25G05G04G09G02
 -20657949.96547 -16082355.75446  21309585.2274                   21309582.1914
 -26189316.76648 -20393480.10546  20756294.3834                   20756291.8674
 -28407781.97347 -22120232.90645  22991748.2344                   22991745.8404
  -1808084.48847  -1393705.31644  24032537.1094                   24032538.6334
 -15843188.19947 -12330049.45746  21936204.3204                   21936203.4694
 -29187232.24248 -22726694.94946  21491538.1724                   21491535.8754
 -11746587.17247  -9137614.56244  23498371.8524                   23498373.5784
 -30130174.03548 -23462427.35547  20462055.4384                   20462050.9024
 11  8 14  0 44  0.0000000  0  8G12G10G17G25G05G04G09G02
 -20744119.50047 -16149500.85246  21293187.6414                   21293184.7544
 -26218688.94148 -20416367.49646  20750705.0554                   20750702.4574
 -28380719.43747 -22099145.27745  22996897.8914                   22996896.2114
  -1933810.17247  -1491673.27343  24008611.6804                   24008613.1764
 -15960446.32847 -12421419.32846  21913890.7584                   21913889.4574
 -29136882.12148 -22687461.10546  21501119.3594                   21501117.9694
 -11693660.94546  -9096373.47344  23508443.5234                   23508445.2934
 -30157524.68048 -23483739.53547  20456850.6564                   20456846.2304
 11  8 14  0 44 30.0000000  0  8G12G10G17G25G05G04G09G02
 -20829855.85947 -16216308.41046  21276872.3444                   21276869.5234
 -26247424.34047 -20438758.69146  20745236.7894                   20745234.6484
 -28353495.35547 -22077931.77745  23002078.5864                   23002076.8914
  -2059360.31647  -1589504.44544  23984720.7034                   23984721.7074
 -16077406.25447 -12512556.83646  21891633.9774                   21891633.0394
 -29086376.62548 -22648106.19546  21510730.5164                   21510728.5744
 -11640555.46547  -9054992.68744  23518549.2424                   23518551.0594
 -30184572.39147 -23504815.66847  20451703.9304                   20451698.9574
 11  8 14  0 45  0.0000000  0  8G12G10G17G25G05G04G09G02
 -19339732.85547 -15055173.60546  21560433.3914                   21560430.6214
 -24700100.78148 -19233052.00446  21039682.7664                   21039680.1884
 -26750688.83647 -20828991.69145  23307081.7734                   23307080.6334
   -609307.29347   -459592.89544  24260656.3674                   24260657.4884
 -14618639.90247 -11375855.69546  22169227.9844                   22169226.5434
 -27460298.32448 -21381032.20345  21820162.7814                   21820161.0744
 -10011854.92647  -7785875.50444  23828481.0554                   23828482.1254
 -28635896.60548 -22298055.31247  20746407.0394                   20746402.4534
 11  8 14  0 45 30.0000000  0  8G12G10G17G25G05G04G09G02
 -19424593.26247 -15121298.59846  21544285.1334                   21544282.5984
 -24727559.42648 -19254448.33246  21034457.2814                   21034454.9964
 -26723137.14847 -20807522.89845  23312325.6334                   23312323.7664
   -734496.09447   -557142.52744  24236833.7114                   24236834.5864
 -14734991.59047 -11466519.25046  22147086.8914                   22147085.7814
 -27409485.32048 -21341437.66845  21829832.4144                   21829830.3714
  -9958398.41447  -7744221.18744  23838653.5554                   23838654.4884
 -28662339.45347 -22318660.10947  20741375.0864                   20741370.2934
 11  8 14  0 46  0.0000000  0  8G12G10G17G25G05G04G09G02
 -19509011.21547 -15187078.81646  21528220.6414                   21528218.0044
 -24754378.29348 -19275346.13746  21029353.7344                   21029351.7344
 -26695419.82047 -20785925.02745  23317599.9064                   23317597.9614
   -859499.43447   -654547.62144  24213046.5314                   24213047.8874
 -14851034.07447 -11556941.87546  22125004.6414                   22125003.2894
 -27358520.69148 -21301724.97745  21839530.5394                   21839528.3954
  -9904770.64147  -7702433.40643  23848858.6954                   23848860.2424
 -28688480.31647 -22339029.61347  20736400.7424                   20736395.9384
 11  8 14  0 46 30.0000000  0  8G12G10G17G25G05G04G09G02
 -19592987.58647 -15252514.93746  21512240.5944                   21512237.7624
 -24780560.06647 -19295747.50046  21024372.0084                   21024369.4804
 -26667539.58647 -20764200.21945  23322905.4774                   23322903.9384
   -984317.86747   -751808.64144  24189294.3754                   24189295.5744
 -14966767.57047 -11647123.72346  22102981.3754                   22102979.8984
 -27307409.46148 -21261898.04746  21849256.6804                   21849255.0594
  -9850978.05947  -7660517.23844  23859095.0474                   23859096.4384
 -28714323.67248 -22359167.28147  20731482.9844                   20731478.3164
 11  8 14  0 47  0.0000000  0  8G12G10G17G25G05G04G09G02
 -19676521.51647 -15317606.30146  21496344.8914                   21496341.9184
 -24806105.99648 -19315653.40246  21019510.4304                   21019508.1174
 -26639497.33647 -20742349.14545  23328241.6954                   23328240.1024
  -1108950.24247   -848924.69944  24165577.2274                   24165578.8244
 -15082190.53947 -11737063.60946  22081017.3364                   22081015.7234
 -27256155.14148 -21221959.61745  21859010.2894                   21859008.4264
  -9797025.79747  -7618476.61344  23869362.3284                   23869363.2894
 -28739871.91448 -22379074.99647  20726621.1564                   20726616.4104
 11  8 14  0 47 30.0000000  0  8G12G10G17G25G05G04G09G02
 -19759609.19947 -15382349.93446  21480533.7034                   21480530.8914
 -24831014.58647 -19335062.66846  21014770.4304                   21014768.1254
 -26611291.07447 -20720370.27045  23333609.2814                   23333607.5164
  -1233392.30547   -945892.44144  24141896.7584                   24141897.9734
 -15197298.69147 -11826758.18446  22059112.5784                   22059110.9384
 -27204758.34448 -21181910.16845  21868790.7274                   21868789.0984
  -9742915.52347  -7576312.84844  23879659.0314                   23879660.6914
 -28765124.61747 -22398752.41046  20721815.6564                   20721811.2934
 11  8 14  0 48  0.0000000  0  8G12G10G17G25G05G04G09G02
 -19842248.46547 -15446744.14846  21464808.2424                   21464805.4964
 -24855285.28547 -19353974.88346  21010152.1414                   21010149.1804
 -26582920.20347 -20698263.11344  23339007.8674                   23339006.2774
  -1357641.52747  -1042709.93044  24118252.7274                   24118253.7734
 -15312089.41047 -11916205.40646  22037268.5394                   22037267.0704
 -27153220.85248 -21141751.10245  21878597.8524                   21878595.9064
  -9688650.65247  -7534028.63344  23889985.2194                   23889987.3014
 -28790083.12147 -22418200.57447  20717066.1644                   20717061.5124
 11  8 14  0 48 30.0000000  0  8G12G10G17G25G05G04G09G02
 -19924435.58247 -15510786.04746  21449168.1484                   21449165.7814
 -24878916.42247 -19372388.73446  21005655.1174                   21005652.5904
 -26554382.79347 -20676026.18045  23344438.1334                   23344436.8364
  -1481693.73047  -1139373.88744  24094646.2194                   24094648.0744
 -15426558.14547 -12005401.74246  22015485.5704                   22015484.3204
 -27101543.13748 -21101482.74645  21888431.9144                   21888430.1844
  -9634233.04747  -7491625.41444  23900340.9454                   23900342.0664
 -28814746.93748 -22437419.10947  20712372.8594                   20712368.2934
 11  8 14  0 49  0.0000000  0  8G12G10G17G25G05G04G09G02
 -20006169.93047 -15574475.13746  21433614.6564                   21433612.2034
 -24901909.43047 -19390305.34446  21001279.6644                   21001277.3244
 -26525679.85547 -20653660.25844  23349900.1484                   23349898.5594
  -1605547.79747  -1235883.45344  24071077.0784                   24071078.7114
 -15540703.30947 -12094345.93746  21993764.5634                   21993762.8914
 -27049728.81248 -21061107.96145  21898291.6024                   21898290.1334
  -9579667.71147  -7449107.06244  23910724.4534                   23910725.9924
 -28839118.68747 -22456410.07447  20707735.0394                   20707730.6294
 11  8 14  0 49 30.0000000  0  8G12G10G17G25G05G04G09G02
 -20087448.99247 -15637809.45346  21418147.7894                   21418144.9734
 -24924264.48847 -19407724.84046  20997025.5314                   20997023.2584
 -26496810.23847 -20631164.46544  23355393.9844                   23355392.3014
  -1729201.02346  -1332236.49244  24047546.4454                   24047548.4844
 -15654522.42647 -12183036.07446  21972105.5084                   21972103.8164
 -26997779.58248 -21020628.04745  21908177.2584                   21908175.5164
  -9524957.91847  -7406476.13344  23921135.5394                   23921137.0984
 -28863199.34048 -22475174.19547  20703152.6954                   20703148.0514
 11  8 14  0 50  0.0000000  0  8G12G10G17G25G05G04G09G02
 -20168270.61348 -15700787.32446  21402767.9534                   21402765.3054
 -24945981.23847 -19424646.96546  20992892.4844                   20992890.5124
 -26467774.29347 -20608539.06244  23360920.1954                   23360917.6914
  -1852650.67247  -1428430.91844  24024055.0554                   24024056.4964
 -15768012.34447 -12271469.70346  21950508.9774                   21950507.1954
 -26945697.38348 -20980044.52345  21918088.0864                   21918086.5474
  -9470106.86347  -7363735.13744  23931573.2664                   23931575.0354
 -28886989.99247 -22493712.35247  20698624.9534                   20698620.8014
 11  8 14  0 50 30.0000000  0  8G12G10G17G25G05G04G09G02
 -20248630.28948 -15763405.23446  21387476.2114                   21387473.3164
 -24967057.95747 -19441070.35246  20988882.0554                   20988880.1454
 -26438569.16047 -20585781.82044  23366477.4844                   23366475.1254
  -1975892.36747  -1524463.30544  24000602.8674                   24000604.2894
 -15881168.31647 -12359643.10946  21928976.2194                   21928974.6024
 -26893482.36348 -20939357.51245  21928024.4694                   21928022.6334
  -9415116.17247  -7320885.33244  23942037.3054                   23942039.3204
 -28910490.27348 -22512024.24646  20694153.2424                   20694149.0004
 11  8 14  0 51  0.0000000  0  8G12G10G17G25G05G04G09G02
 -20328526.53548 -15825662.03946  21372272.3364                   21372269.6334
 -24987494.29748 -19456994.75446  20984993.6094                   20984990.5824
 -26409194.51247 -20562892.49244  23372066.9694                   23372064.8954
  -2098923.47347  -1620331.56244  23977191.0944                   23977192.6454
 -15993987.81247 -12447554.33246  21907507.1334                   21907505.6454
 -26841136.51648 -20898568.54745  21937985.4454                   21937983.8444
  -9359989.32447  -7277929.44944  23952527.6094                   23952529.7734
 -28933701.12148 -22530110.61347  20689736.4924                   20689731.8284
 11  8 14  0 51 30.0000000  0  8G12G10G17G25G05G04G09G02
 -20407956.64848 -15887555.61746  21357157.1724                   21357154.3484
 -25007289.99248 -19472419.93746  20981226.2034                   20981224.0944
 -26379649.53947 -20539870.43045  23377689.2194                   23377687.1174
  -2221740.94147  -1716033.37545  23953819.1724                   23953820.3484
 -16106467.51647 -12535200.77746  21886102.9694                   21886101.5824
 -26788661.26648 -20857678.74645  21947971.3524                   21947969.6724
  -9304729.33647  -7234869.82844  23963043.0314                   23963045.6294
 -28956623.35548 -22547972.08647  20685374.3674                   20685369.7704
 11  8 14  0 52  0.0000000  0  8G12G10G17G25G05G04G09G02
 -20486920.68048 -15949086.02746  21342130.8444                   21342128.0084
 -25026447.43048 -19487347.79746  20977580.8204                   20977578.5234
 -26349935.89147 -20516716.94144  23383343.7894                   23383341.2034
  -2344344.37147  -1811568.41044  23930489.2034                   23930489.6994
 -16218606.88747 -12622582.03546  21864763.5164                   21864762.1484
 -26736060.95748 -20816691.51245  21957980.6884                   21957979.4344
  -9249341.82847  -7191710.85544  23973583.3444                   23973585.5274
 -28979260.55148 -22565611.44547  20681066.6884                   20681062.1604
 11  8 14  0 52 30.0000000  0  8G12G10G17G25G05G04G09G02
 -20565416.44148 -16010251.54346  21327193.4534                   21327190.5354
 -25044966.82448 -19501778.46946  20974056.9844                   20974054.4024
 -26320053.15247 -20493431.69544  23389030.1564                   23389028.3754
  -2466731.24647  -1906934.69544  23907199.1724                   23907200.5434
 -16330403.39547 -12709696.12146  21843489.3134                   21843487.7424
 -26683337.30148 -20775608.16845  21968013.5554                   21968011.9494
  -9193830.20746  -7148455.17244  23984146.8284                   23984149.5904
 -29001613.50048 -22583029.31647  20676813.3204                   20676808.6764
 11  8 14  0 53  0.0000000  0  8G12G10G17G25G05G04G09G02
 -20643439.98848 -16071049.10546  21312346.1564                   21312343.1484
 -25062846.35548 -19515710.54346  20970654.5394                   20970651.7274
 -26289999.28947 -20470013.12144  23394748.7814                   23394747.5314
  -2588897.03947  -2002128.72744  23883951.3834                   23883952.4144
 -16441852.25847 -12796539.32046  21822281.1484                   21822279.8094
 -26630490.55148 -20734428.90645  21978069.8134                   21978068.5164
  -9138196.12946  -7105104.06644  23994734.2814                   23994736.0044
 -29023681.60248 -22600225.22747  20672614.1094                   20672609.2504
 11  8 14  0 53 30.0000000  0  8G12G10G17G25G05G04G09G02
 -20720991.09848 -16131478.52346  21297588.4614                   21297585.9224
 -25080088.29348 -19529145.79346  20967373.1334                   20967370.9344
 -26259775.44947 -20446462.09044  23400500.5864                   23400498.7544
  -2710841.20347  -2097150.07044  23860746.0004                   23860746.8754
 -16552952.69547 -12883111.01246  21801139.5554                   21801137.8914
 -26577524.58248 -20693156.74245  21988149.2584                   21988147.4104
  -9082444.77346  -7061661.56244  24005343.1094                   24005345.2234
 -29045468.21948 -22617201.79747  20668467.7734                   20668463.0234
 11  8 14  0 54  0.0000000  0  8G12G10G17G25G05G04G09G02
 -20798068.34848 -16191538.69946  21282921.3444                   21282918.6294
 -25096693.19948 -19542084.66046  20964213.3444                   20964210.8754
 -26229381.65647 -20422778.62945  23406283.8134                   23406282.3834
  -2832561.51247  -2191996.98844  23837584.2114                   23837584.7734
 -16663702.24647 -12969409.28546  21780064.3674                   21780062.8404
 -26524441.53148 -20651793.35245  21998250.6804                   21998249.0634
  -9026579.92646  -7018130.65644  24015973.2424                   24015976.1294
 -29066975.01248 -22633960.32047  20664375.0634                   20664370.5904
 11  8 14  0 54 30.0000000  0  8G12G10G17G25G05G04G09G02
 -20874671.64548 -16251229.57846  21268344.5864                   21268341.2624
 -25112663.25048 -19554528.83646  20961174.1094                   20961171.8364
 -26198819.57047 -20398964.05544  23412099.5864                   23412098.2194
  -2954057.42247  -2286669.05144  23814463.9224                   23814464.5514
 -16774100.52047 -13055433.85546  21759056.4064                   21759054.9414
 -26471245.55948 -20610341.96945  22008373.9844                   22008372.1724
  -8970607.29346  -6974515.75444  24026624.7584                   24026627.7624
 -29088205.18748 -22650503.30547  20660334.9454                   20660330.6994
 11  8 14  0 55  0.0000000  0  8G12G10G17G25G05G04G09G02
 -20950795.94548 -16310547.19146  21253858.3444                   21253855.1214
 -25127995.62547 -19566476.11746  20958256.8444                   20958254.1764
 -26168085.84047 -20375015.71545  23417948.1254                   23417946.9104
  -3075323.35247  -2381161.91444  23791387.5704                   23791388.1564
 -16884141.77347 -13141180.21546  21738116.1954                   21738114.4224
 -26417935.66848 -20568801.81645  22018518.2274                   22018516.6024
  -8914527.10946  -6930817.03944  24037297.4304                   24037299.0904
 -29109156.81248 -22666829.22747  20656348.4694                   20656343.6684
 11  8 14  0 55 30.0000000  0  8G12G10G17G25G05G04G09G02
 -21026440.09448 -16369490.68746  21239463.8594                   21239460.4224
 -25142691.95747 -19577927.78546  20955460.1334                   20955457.7544
 -26137181.41847 -20350934.37544  23423829.1884                   23423827.9964
  -3196357.58647  -2475474.24644  23768355.9224                   23768356.9264
 -16993824.18047 -13226646.95746  21717244.3054                   21717242.7774
 -26364514.55948 -20527174.99645  22028683.8444                   22028681.9264
  -8858343.67247  -6887037.84444  24047988.8594                   24047990.9534
 -29129832.32848 -22682940.00447  20652413.8984                   20652409.2424
 11  8 14  0 56  0.0000000  0  8G12G10G17G25G05G04G09G02
 -21101602.97748 -16428059.16046  21225160.5634                   21225157.5474
 -25156752.98048 -19588884.41046  20952784.3914                   20952781.8444
 -26106105.88347 -20326719.69545  23429742.5944                   23429741.4494
  -3317158.20747  -2569604.53944  23745368.1024                   23745369.2974
 -17103145.69147 -13311832.48846  21696440.9384                   21696439.2464
 -26310984.73847 -20485463.47745  22038870.2194                   22038868.6764
  -8802061.03547  -6843181.35944  24058699.2274                   24058701.2344
 -29150233.47348 -22698836.98047  20648531.7814                   20648527.1094
 11  8 14  0 56 30.0000000  0  8G12G10G17G25G05G04G09G02
 -21176281.63748 -16486250.30946  21210949.6414                   21210946.7384
 -25170178.19948 -19599345.59846  20950229.4694                   20950226.8914
 -26074858.09847 -20302370.78944  23435689.1024                   23435687.7504
  -3437721.70747  -2663550.08644  23722425.2424                   23722426.3444
 -17212102.70747 -13396733.98046  21675706.8524                   21675705.1604
 -26257347.23048 -20443668.02745  22049076.9304                   22049075.4064
  -8745681.81647  -6799249.59444  24069427.7344                   24069429.7624
 -29170360.44948 -22714520.32447  20644701.4454                   20644697.0084
 11  8 14  0 57  0.0000000  0  8G12G10G17G25G05G04G09G02
 -21250473.46147 -16544062.10546  21196831.5474                   21196828.8594
 -25182967.49247 -19609311.26246  20947796.1644                   20947793.3134
 -26043437.19147 -20277886.98044  23441668.8204                   23441666.9574
  -3558045.05947  -2757308.48444  23699528.6334                   23699529.7854
 -17320692.16047 -13481349.06646  21655043.2584                   21655041.2584
 -26203603.55148 -20401789.85945  22059304.5314                   22059302.1804
  -8689208.96547  -6755244.85544  24080174.5004                   24080175.8954
 -29190214.12948 -22729990.70747  20640923.8914                   20640918.9654
 11  8 14  0 57 30.0000000  0  8G12G10G17G25G05G04G09G02
 -21324175.46148 -16601492.23046  21182806.3914                   21182803.4924
 -25195120.50448 -19618781.12946  20945483.1484                   20945480.8284
 -26011841.93046 -20253267.31644  23447680.8054                   23447679.1054
  -3678124.44147  -2850876.78544  23676678.0004                   23676679.0314
 -17428910.19147 -13565674.73446  21634449.8524                   21634447.9844
 -26149754.14548 -20359829.29745  22069551.7894                   22069549.9534
  -8632644.43747  -6711168.67244  24090938.3834                   24090939.6724
 -29209794.84448 -22745248.38746  20637197.4384                   20637192.8204
 11  8 14  0 58  0.0000000  0  8G12G10G17G25G05G04G09G02
 -21397387.30148 -16658540.39846  21168875.0004                   21168871.7464
 -25206638.91448 -19627756.49246  20943291.2894                   20943288.7664
 -25980073.26646 -20228512.52044  23453725.8914                   23453724.3054
  -3797958.89547  -2944254.23444  23653874.7814                   23653875.5044
 -17536756.06647 -13649710.41046  21613927.3444                   21613925.5124
 -26095802.71548 -20317789.24245  22079818.1884                   22079816.2114
  -8575993.43047  -6667025.09844  24101718.3914                   24101720.9614
 -29229105.18448 -22760295.37546  20633522.9614                   20633518.0594
 11  8 14  0 58 30.0000000  0  8G12G10G17G25G05G04G09G02
 -21470104.87548 -16715203.42246  21155037.1254                   21155033.9384
 -25217520.81248 -19636235.87146  20941220.5234                   20941218.2664
 -25948128.61347 -20203620.59044  23459805.1644                   23459803.4844
  -3917543.39847  -3037436.90644  23631118.3054                   23631119.1724
 -17644224.79348 -13733452.20746  21593476.9694                   21593474.9884
 -26041748.72748 -20275669.26245  22090104.4224                   22090102.8014
  -8519256.99647  -6622814.93744  24112515.2734                   24112517.5394
 -29248144.15248 -22775130.91847  20629899.8594                   20629895.2234
 11  8 14  0 59  0.0000000  0  8G12G10G17G25G05G04G09G02
 -21542325.23448 -16771479.00046  21141294.3134                   21141291.0204
 -25227765.75048 -19644218.93046  20939270.7504                   20939268.5634
 -25916006.62947 -20178590.46544  23465917.8284                   23465916.0164
  -4036874.41847  -3130422.06245  23608410.4614                   23608411.4064
 -17751312.50047 -13816897.09446  21573098.5784                   21573096.9304
 -25987592.89148 -20233469.92245  22100409.9064                   22100408.0634
  -8462437.37547  -6578539.97743  24123327.7974                   24123329.2894
 -29266912.13348 -22789755.29747  20626328.1254                   20626323.3954
 11  8 14  0 59 30.0000000  0  8G12G10G17G25G05G04G09G02
 -21614049.67648 -16827368.14846  21127645.3364                   21127642.3524
 -25237378.01248 -19651708.98846  20937441.7894                   20937439.3594
 -25883710.37947 -20153424.53944  23472063.4224                   23472061.9804
  -4155952.70747  -3223210.29745  23585750.4064                   23585751.1724
 -17858020.13348 -13900045.84046  21552792.7584                   21552790.8594
 -25933340.49248 -20191195.34045  22110733.7424                   22110731.6764
  -8405541.36747  -6534205.50043  24134155.0314                   24134156.3874
 -29285413.52048 -22804171.94546  20622807.6804                   20622803.0204
 11  8 14  1  0  0.0000000  0  8G12G10G17G25G05G04G09G02
 -21685273.87548 -16882867.50046  21114091.8984                   21114088.6024
 -25246355.59448 -19658704.48846  20935733.4924                   20935730.9804
 -25851236.80147 -20128120.45744  23478242.8984                   23478241.2584
  -4274773.14847  -3315797.59044  23563139.4614                   23563140.2344
 -17964342.32447 -13982894.23446  21532560.2664                   21532558.5004
 -25878991.12547 -20148845.19545  22121076.0474                   22121074.2854
  -8348570.04347  -6489812.32844  24144996.1024                   24144998.3244
 -29303647.22348 -22818380.00847  20619337.6954                   20619332.9844
 11  8 14  1  0 30.0000000  0  8G12G10G17G25G05G04G09G02
 -21755996.85548 -16937976.27346  21100633.3204                   21100630.8914
 -25254700.03948 -19665206.63746  20934145.3674                   20934142.9844
 -25818586.51247 -20102678.66844  23484456.0474                   23484454.2424
  -4393333.91447  -3408182.53545  23540578.1484                   23540579.3524
 -18070277.52348 -14065441.08246  21512401.3444                   21512399.2034
 -25824547.17247 -20106421.34845  22131436.3364                   22131434.5984
  -8291527.28147  -6445363.52344  24155850.8834                   24155852.6054
 -29321614.98848 -22832380.84847  20615918.7894                   20615913.8524
 11  8 14  1  1  0.0000000  0  8G12G10G17G25G05G04G09G02
 -21826218.34848 -16992694.28546  21087270.5704                   21087267.9414
 -25262413.27748 -19671216.93746  20932677.8984                   20932675.0044
 -25785760.87947 -20077100.25044  23490702.5004                   23490700.7114
  -4511634.16847  -3500364.49245  23518066.4144                   23518066.9304
 -18175824.85247 -14147685.68746  21492316.2584                   21492314.3164
 -25770011.93447 -20063926.36745  22141814.2974                   22141812.2154
  -8234418.22347  -6400863.04344  24166718.6024                   24166720.6214
 -29339320.07048 -22846176.99647  20612549.4844                   20612544.9384
 11  8 14  1  1 30.0000000  0  8G12G10G17G25G05G04G09G02
 -21895933.38748 -17047017.64146  21074004.2344                   21074001.4184
 -25269493.03148 -19676733.61346  20931330.4454                   20931328.0474
 -25752756.31246 -20051382.40244  23496982.7504                   23496981.7234
  -4629668.03147  -3592338.86345  23495605.1024                   23495606.3404
 -18280978.51248 -14229623.53946  21472306.0784                   21472304.2034
 -25715384.27047 -20021359.37945  22152209.2504                   22152207.6724
  -8177242.89547  -6356310.94544  24177598.6334                   24177601.2584
 -29356760.41848 -22859766.85247  20609230.9534                   20609226.1054
 11  8 14  1  2  0.0000000  0  8G12G10G17G25G05G04G09G02
 -21965139.53548 -17100944.46946  21060834.9064                   21060831.8404
 -25275939.42248 -19681756.75846  20930103.5704                   20930101.3324
 -25719571.77747 -20025524.32444  23503297.4924                   23503295.8794
  -4747432.31247  -3684103.18045  23473195.3914                   23473196.2194
 -18385735.36748 -14311252.18746  21452371.6024                   21452369.6804
 -25660665.32447 -19978721.23845  22162622.2344                   22162620.1294
  -8120004.18746  -6311709.48043  24188490.9694                   24188493.1884
 -29373936.81648 -22873151.04347  20605962.1644                   20605957.3404
 11  8 14  1  2 30.0000000  0  8G12G10G17G25G05G04G09G02
 -22033836.36348 -17154474.42646  21047762.4224                   21047759.1134
 -25281754.14848 -19686287.69946  20928997.1254                   20928994.6644
 -25686208.30146 -19999526.80544  23509646.7424                   23509644.7114
  -4864925.77747  -3775656.46944  23450837.3594                   23450837.1374
 -18490094.14148 -14392570.66046  21432513.0234                   21432510.5944
 -25605858.19547 -19936014.39545  22173051.4614                   22173049.6564
  -8062706.67646  -6267062.23443  24199394.1484                   24199396.8404
 -29390851.79348 -22886331.53546  20602743.3754                   20602738.5234
 11  8 14  1  3  0.0000000  0  8G12G10G17G25G05G04G09G02
 -22102021.00448 -17207605.27746  21034787.0704                   21034784.3554
 -25286937.12548 -19690326.36746  20928010.8284                   20928008.2234
 -25652664.57447 -19973388.83244  23516029.7584                   23516028.0044
  -4982144.68447  -3866995.82044  23428530.9774                   23428531.5434
 -18594051.32048 -14473576.18446  21412730.0944                   21412728.3594
 -25550963.43747 -19893239.26245  22183498.1484                   22183496.0084
  -8005352.67646  -6222371.00443  24210308.4224                   24210311.0864
 -29407505.41848 -22899308.37546  20599574.4534                   20599569.4614
 11  8 14  1  3 30.0000000  0  8G12G10G17G25G05G04G09G02
 -22169694.85948 -17260338.10246  21021909.2734                   21021905.9064
 -25291492.04748 -19693875.64546  20927144.1174                   20927141.5664
 -25618943.05947 -19947112.34444  23522447.0784                   23522445.4734
  -5099089.38747  -3958121.49244  23406276.9924                   23406277.7384
 -18697607.25048 -14554269.05946  21393024.1024                   21393022.0744
 -25495985.73047 -19850399.49645  22193959.4454                   22193957.6764
  -7947948.68446  -6177640.77743  24221232.3524                   24221234.6644
 -29423901.89148 -22912084.83646  20596453.8204                   20596449.5944
 11  8 14  1  4  0.0000000  0  8G12G10G17G25G05G04G09G02
 -22236853.15248 -17312669.20746  21009129.2894                   21009126.2034
 -25295416.91448 -19696933.96946  20926397.4064                   20926394.9144
 -25585040.69946 -19920694.93044  23528898.3524                   23528896.8874
  -5215754.39147  -4049029.22344  23384076.3364                   23384076.7734
 -18800756.76648 -14634645.23046  21373395.2424                   21373393.5164
 -25440924.11347 -19807494.34445  22204437.5634                   22204435.4454
  -7890494.73046  -6132871.71943  24232165.3444                   24232168.5314
 -29440039.59848 -22924659.67246  20593383.5704                   20593378.5784
 11  8 14  1  4 30.0000000  0  8G12G10G17G25G05G04G09G02
 -22303495.80948 -17364598.51646  20996447.7814                   20996444.8094
 -25298714.54348 -19699503.53146  20925769.7034                   20925767.1564
 -25550958.89846 -19894137.70744  23535384.0704                   23535382.6604
  -5332139.01247  -4139718.48044  23361929.0394                   23361929.1764
 -18903498.95748 -14714704.02346  21353844.0784                   21353842.1914
 -25385782.04347 -19764526.50445  22214930.6334                   22214928.7664
  -7832996.19146  -6088067.93043  24243107.8984                   24243110.4694
 -29455921.68748 -22937035.31647  20590360.9844                   20590356.2464
 11  8 14  1  5  0.0000000  0  8G12G10G17G25G05G04G09G02
 -22369619.50048 -17416123.44546  20983864.6334                   20983861.6254
 -25301383.72748 -19701583.40646  20925261.7734                   20925259.5204
 -25516695.43446 -19867438.91444  23541903.9224                   23541902.3244
  -5448238.80547  -4230185.78944  23339835.7274                   23339835.8984
 -19005829.50848 -14794442.04746  21334371.2274                   21334369.1374
 -25330559.57447 -19721496.01645  22225438.9064                   22225437.5394
  -7775454.47746  -6043230.50843  24254057.7274                   24254060.1024
 -29471547.96948 -22949211.63346  20587387.3914                   20587382.6644
 11  8 14  1  5 30.0000000  0  8G12G10G17G25G05G04G09G02
 -22435222.64848 -17467242.75846  20971380.6644                   20971377.7034
 -25303425.50048 -19703174.38746  20924873.1024                   20924870.6454
 -25482250.76646 -19840598.92244  23548458.7504                   23548457.0474
  -5564051.30947  -4320429.23444  23317797.6024                   23317798.0664
 -19107746.29348 -14873857.66846  21314977.7114                   21314974.8404
 -25275258.64847 -19678404.39545  22235962.6484                   22235961.0124
  -7717873.14546  -5998362.21944  24265014.8914                   24265017.4304
 -29486919.26648 -22961189.25847  20584462.3284                   20584457.5354
 11  8 14  1  6  0.0000000  0  8G12G10G17G25G05G04G09G02
 -22500304.70748 -17517956.03146  20958995.9774                   20958992.9924
 -25304842.26248 -19704278.35246  20924603.5394                   20924601.2734
 -25447625.39146 -19813618.12944  23555047.1414                   23555045.8554
  -5679575.02047  -4410447.64845  23295813.9924                   23295813.9224
 -19209247.93748 -14952949.80546  21295662.4924                   21295659.8364
 -25219881.83247 -19635253.64145  22246500.4844                   22246498.8524
  -7660256.68046  -5953466.57844  24275979.4534                   24275982.6994
 -29502038.37148 -22972970.36747  20581585.4454                   20581580.7664
 11  8 14  1  6 30.0000000  0  8G12G10G17G25G05G04G09G02
 -22564864.02748 -17568261.98446  20946710.5704                   20946707.9414
 -25305634.42648 -19704895.60546  20924453.0394                   20924450.5234
 -25412818.58247 -19786495.95744  23561671.6564                   23561669.8284
  -5794807.16447  -4500238.87145  23273886.1174                   23273886.3054
 -19310331.71548 -15031716.32846  21276426.6024                   21276423.9614
 -25164430.73447 -19592045.00845  22257052.1804                   22257050.8954
  -7602608.16046  -5908545.95344  24286950.0234                   24286952.6254
 -29516906.21948 -22984555.69947  20578756.0004                   20578751.1644
 11  8 14  1  7  0.0000000  0  8G12G10G17G25G05G04G09G02
 -22628898.14848 -17618158.69146  20934525.3524                   20934522.5314
 -25305802.18748 -19705026.31646  20924420.6094                   20924418.3324
 -25377829.45746 -19759231.70744  23568329.4064                   23568327.7154
  -5909744.31247  -4589800.22745  23252014.0394                   23252014.7774
 -19410994.56248 -15110154.86346  21257271.1254                   21257268.5744
 -25108906.10947 -19548779.09445  22267618.6174                   22267616.9964
  -7544929.69146  -5863602.03544  24297925.8754                   24297928.6564
 -29531523.17648 -22995945.52347  20575974.5474                   20575969.3554
 11  8 14  1  7 30.0000000  0  8G12G10G17G25G05G04G09G02
 -22692405.48448 -17667644.93046  20922440.6644                   20922437.6484
 -25305347.26248 -19704671.82446  20924507.5004                   20924504.7344
 -25342657.91846 -19731825.33244  23575021.7194                   23575020.7704
  -6024384.34047  -4679130.04345  23230198.9844                   23230199.5634
 -19511234.39148 -15188263.76646  21238195.6954                   21238193.5634
 -25053310.31647 -19505457.71145  22278197.9384                   22278196.5704
  -7487225.13346  -5818637.78144  24308906.9924                   24308909.7154
 -29545891.14548 -23007141.33246  20573240.5944                   20573235.6254
 11  8 14  1  8  0.0000000  0  8G12G10G17G25G05G04G09G02
 -22755385.15248 -17716719.99246  20910456.0784                   20910452.8834
 -25304271.37548 -19703833.46146  20924712.5164                   20924709.4694
 -25307304.96546 -19704277.59044  23581750.0394                   23581748.1454
  -6138725.44147  -4768226.95745  23208440.3914                   23208440.8554
 -19611049.63748 -15266041.82046  21219201.3754                   21219199.5704
 -24997645.59847 -19462082.62545  22288790.5474                   22288789.3054
  -7429498.53946  -5773656.36344  24319891.8364                   24319895.3794
 -29560012.16848 -23018144.71147  20570553.2034                   20570548.2774
 11  8 14  1  8 30.0000000  0  8G12G10G17G25G05G04G09G02
 -22817834.82448 -17765382.07846  20898572.2504                   20898569.1214
 -25302574.09048 -19702510.89846  20925035.2114                   20925032.2344
 -25271768.81246 -19676587.09044  23588511.6804                   23588510.2234
  -6252763.67247  -4857087.84845  23186739.5314                   23186740.2934
 -19710436.45748 -15343486.05146  21200288.5234                   21200286.5634
 -24941912.41447 -19418654.19145  22299396.2194                   22299394.6954
  -7371751.82446  -5728659.22744  24330881.2814                   24330884.3444
 -29573886.10948 -23028955.56247  20567913.0234                   20567908.3284
 11  8 14  1  9  0.0000000  0  8G12G10G17G25G05G04G09G02
 -22879751.50048 -17813628.84446  20886789.5474                   20886786.6764
 -25300255.35248 -19700704.07846  20925476.5004                   20925473.8484
 -25236047.73047 -19648752.49644  23595309.7664                   23595308.0704
  -6366495.27747  -4945709.81245  23165097.4304                   23165097.8364
 -19809391.25048 -15420593.63346  21181458.1954                   21181456.1174
 -24886111.08647 -19375172.64545  22310014.8674                   22310013.6524
  -7313987.01646  -5683647.98443  24341873.3054                   24341876.7544
 -29587512.92648 -23039573.84446  20565320.0234                   20565315.4344
 11  8 14  1  9 30.0000000  0  8G12G10G17G25G05G04G09G02
 -22941136.71548 -17861461.48046  20875108.5554                   20875105.4964
 -25297319.27047 -19698416.21146  20926035.1484                   20926032.5634
 -25200144.86346 -19620776.23444  23602141.6564                   23602140.5864
  -6479920.64847  -5034093.15645  23143512.8524                   23143513.5004
 -19907914.82048 -15497365.19546  21162710.0554                   21162707.8754
 -24830246.52747 -19331641.82445  22320645.6724                   22320644.0594
  -7256210.49646  -5638627.60943  24352868.3594                   24352871.9384
 -29600897.11348 -23050003.06647  20562772.9384                   20562768.2344
 11  8 14  1 10  0.0000000  0  8G12G10G17G25G05G04G09G02
 -23001987.95748 -17908878.04346  20863529.0164                   20863525.9104
 -25293766.02347 -19695647.43446  20926711.5704                   20926708.7854
 -25164058.91046 -19592657.32844  23609008.5474                   23609006.7814
  -6593036.28147  -5122235.14545  23121987.6804                   23121988.0664
 -20006004.02348 -15573798.28946  21144043.8594                   21144041.3634
 -24774319.19947 -19288062.10245  22331288.1254                   22331286.7384
  -7198424.52046  -5593599.87944  24363864.2584                   24363868.0824
 -29614038.77748 -23060243.30547  20560272.2114                   20560267.4574
 11  8 14  1 10 30.0000000  0  8G12G10G17G25G05G04G09G02
 -23062302.45348 -17955876.35246  20852051.6174                   20852048.4614
 -25289595.95748 -19692398.01646  20927504.9924                   20927502.2544
 -25127788.39846 -19564394.59844  23615910.7974                   23615909.0084
  -6705838.40247  -5210132.85244  23100522.1414                   23100523.0234
 -20103655.22348 -15649890.08246  21125461.4064                   21125459.2344
 -24718329.50047 -19244433.77345  22341942.7734                   22341941.4184
  -7140631.20746  -5548566.36343  24374862.2734                   24374865.6844
 -29626938.13748 -23070294.73847  20557817.4924                   20557812.6414
 11  8 14  1 11  0.0000000  0  8G12G10G17G25G05G04G09G02
 -23122078.98448 -18002455.47346  20840676.3134                   20840673.3134
 -25284810.19948 -19688668.84446  20928415.5634                   20928412.7854
 -25091333.05146 -19535987.84044  23622847.8834                   23622846.5514
  -6818324.55147  -5297784.33645  23079116.5084                   23079117.2464
 -20200866.10548 -15725638.77746  21106963.1484                   21106960.7424
 -24662279.29347 -19200758.28545  22352609.0554                   22352607.3794
  -7082833.79746  -5503529.66043  24385862.0004                   24385865.1844
 -29639596.59848 -23080158.46546  20555408.6644                   20555403.5314
 11  8 14  1 11 30.0000000  0  8G12G10G17G25G05G04G09G02
 -23181316.73848 -18048614.74646  20829403.8444                   20829400.6414
 -25279410.84448 -19684461.52746  20929443.1804                   20929440.5904
 -25054693.81246 -19507437.80144  23629820.0704                   23629818.8364
  -6930493.05147  -5385188.30145  23057771.7664                   23057771.8364
 -20297635.15648 -15801043.18046  21088548.3834                   21088546.0204
 -24606170.96947 -19157037.51645  22363285.9534                   22363283.9534
  -7025036.33646  -5458492.88343  24396860.0474                   24396862.9534
 -29652016.40248 -23089836.21546  20553045.3674                   20553040.3954
 11  8 14  1 12  0.0000000  0  8G12G10G17G25G05G04G09G02
 -23240014.36748 -18094353.14546  20818233.9774                   20818230.8094
 -25273399.02347 -19679776.97346  20930587.1484                   20930584.5164
 -25017869.98846 -19478743.91844  23636827.2974                   23636826.0044
  -7042341.20347  -5472342.66045  23036487.7194                   23036488.2194
 -20393960.10548 -15876101.53546  21070218.2424                   21070215.9964
 -24550006.17647 -19113272.72745  22373973.4454                   22373971.6994
  -6967241.77746  -5413458.41843  24407857.6254                   24407861.8914
 -29664198.54748 -23099328.78546  20550726.9144                   20550722.2274
 11  8 14  1 12 30.0000000  0  8G12G10G17G25G05G04G09G02
 -23298172.30948 -18139671.01246  20807167.0004                   20807163.7344
 -25266778.15647 -19674617.83246  20931846.7734                   20931844.3364
 -24980863.99246 -19449908.09044  23643869.3284                   23643867.3674
  -7153868.41047  -5559246.92245  23015264.6804                   23015265.1334
 -20489840.44148 -15950813.43746  21051972.7194                   21051970.3914
 -24493788.07447 -19069466.39845  22384671.7194                   22384669.8714
  -6909455.43746  -5368430.31243  24418854.7584                   24418858.3484
 -29676146.41448 -23108638.80547  20548453.1484                   20548448.5704
 11  8 14  1 13  0.0000000  0  8G12G10G17G25G05G04G09G02
 -23355786.82448 -18184565.42246  20796203.1484                   20796200.3204
 -25259546.89548 -19668983.06646  20933222.8364                   20933220.6604
 -24943672.82846 -19420927.95744  23650946.6484                   23650944.8984
  -7265069.69947  -5645897.24245  22994103.5314                   22994103.9654
 -20585272.02748 -16025175.67246  21033812.8984                   21033810.3834
 -24437516.16847 -19025618.12945  22395379.9144                   22395377.8594
  -6851678.02046  -5323409.16843  24429849.1644                   24429853.0394
 -29687858.68048 -23117765.24247  20546224.5634                   20546219.9734
 11  8 14  1 13 30.0000000  0  8G12G10G17G25G05G04G09G02
 -23412854.08648 -18229033.39146  20785344.1024                   20785340.8754
 -25251704.14548 -19662871.80946  20934715.3204                   20934712.1804
 -24906293.73046 -19391801.42244  23658059.7504                   23658057.9304
  -7375940.04347  -5732289.67245  22973006.0864                   22973006.2854
 -20680249.93048 -16099184.37946  21015739.2034                   21015736.7814
 -24381189.52347 -18981727.21545  22406098.3364                   22406096.5354
  -6793910.27346  -5278395.52343  24440843.2664                   24440845.7624
 -29699334.27748 -23126707.26246  20544040.7194                   20544036.0704
 11  8 14  1 14  0.0000000  0  8G12G10G17G25G05G04G09G02
 -23469375.12948 -18273075.73447  20774588.1174                   20774585.0044
 -25243253.98847 -19656287.25046  20936323.4924                   20936320.6724
 -24868729.24246 -19362530.40243  23665207.7504                   23665206.5904
  -7486479.50847  -5818424.27045  22951970.9224                   22951971.4884
 -20774774.34048 -16172839.71546  20997751.8594                   20997749.5164
 -24324812.21547 -18937796.82845  22416826.4454                   22416824.6954
  -6736157.96146  -5233393.93443  24451832.4304                   24451835.5554
 -29710576.88348 -23135467.72746  20541901.3204                   20541896.8484
 11  8 14  1 14 30.0000000  0  8G12G10G17G25G05G04G09G02
 -23525348.83648 -18316691.58646  20763936.6954                   20763933.4574
 -25234197.52748 -19649230.24646  20938046.8134                   20938043.7734
 -24830979.23846 -19333114.82844  23672391.4304                   23672390.1054
  -7596685.57847  -5904299.09445  22930999.5784                   22931000.0784
 -20868843.22748 -16246140.09446  20979851.1334                   20979848.5704
 -24268385.82047 -18893828.18045  22427564.0704                   22427562.6254
  -6678424.28146  -5188406.83643  24462818.9144                   24462821.9064
 -29721588.23448 -23144048.00046  20539805.9924                   20539801.1914
 11  8 14  1 15  0.0000000  0  8G12G10G17G25G05G04G09G02
 -23580773.44948 -18359879.56646  20753389.6644                   20753386.7234
 -25224535.81248 -19641701.62146  20939885.3754                   20939882.5984
 -24793042.75046 -19303553.93444  23679610.3834                   23679609.2424
  -7706555.09447  -5989911.65245  22910091.8284                   22910092.3914
 -20962453.87148 -16319083.40646  20962037.3284                   20962035.1174
 -24211911.25047 -18849822.02745  22438311.0634                   22438309.5594
  -6620711.91046  -5143436.38743  24473801.6644                   24473805.2464
 -29732368.91848 -23152448.52747  20537754.5704                   20537749.9024
 11  8 14  1 15 30.0000000  0  8G12G10G17G25G05G04G09G02
 -22060225.15248 -17175036.71146  21042740.1094                   21042737.2894
 -23638849.87148 -18406102.16046  21241631.4614                   21241628.7304
 -23179500.42646 -18046248.20344  23986657.1334                   23986655.9344
  -6240661.12147  -4847656.56645  23189042.2584                   23189043.1914
 -19480179.92248 -15164064.70346  21244104.8524                   21244102.4534
 -22579971.35947 -17578180.52044  22748858.9384                   22748856.7734
  -4987605.39546  -3870886.07043  24784571.7584                   24784575.6024
 -28167498.75448 -21933069.17246  20835539.3834                   20835534.6954
 11  8 14  1 16  0.0000000  0  8G12G10G17G25G05G04G09G02
 -22114546.07048 -17217364.67246  21032403.5004                   21032400.1604
 -23627980.45348 -18397632.46546  21243699.6564                   21243696.7734
 -23141189.18046 -18016395.32044  23993947.8364                   23993946.7424
  -6349848.34047  -4932737.46945  23168264.2894                   23168264.9494
 -19572865.75048 -15236287.37546  21226466.7504                   21226464.8484
 -22523403.57847 -17534101.74245  22759623.3054                   22759621.4574
  -4929943.68446  -3825955.05943  24795544.4064                   24795548.4574
 -28177819.85948 -21941111.59047  20833575.3834                   20833570.9534
 11  8 14  1 16 30.0000000  0  8G12G10G17G25G05G04G09G02
 -22168313.51648 -17259261.35946  21022171.8204                   21022168.4454
 -23616509.98048 -18388694.41446  21245882.4064                   21245879.3204
 -23102690.59046 -17986396.41044  24001273.5784                   24001272.1644
  -6458691.22347  -5017550.07045  23147552.4614                   23147552.8594
 -19665086.49648 -15308147.64846  21208917.9534                   21208915.9534
 -22466792.07447 -17489988.86745  22770396.2504                   22770394.0904
  -4872312.55546  -3781047.90243  24806511.7274                   24806515.2384
 -28187913.77048 -21948976.96947  20831654.8524                   20831650.2114
 11  8 14  1 17  0.0000000  0  8G12G10G17G25G05G04G09G02
 -22221524.85948 -17300724.71946  21012045.7504                   21012042.8164
 -23604438.35548 -18379287.93446  21248179.4614                   21248176.2934
 -23064003.62146 -17956250.72744  24008635.7734                   24008634.0274
  -6567185.64547  -5102091.14145  23126906.4844                   23126906.9104
 -19756838.53948 -15379642.71146  21191458.0864                   21191455.9574
 -22410136.76247 -17445841.85545  22781177.1724                   22781175.3484
  -4814713.33646  -3736165.62543  24817472.5634                   24817476.0204
 -28197779.96948 -21956664.91447  20829777.1334                   20829772.5594
 11  8 14  1 17 30.0000000  0  8G12G10G17G25G05G04G09G02
 -22274179.14148 -17341754.00846  21002026.0704                   21002022.9344
 -23591767.11748 -18369414.22346  21250590.4224                   21250587.9184
 -23025127.71546 -17925957.80544  24016033.4304                   24016031.8364
  -6675329.06247  -5186358.71145  23106327.2974                   23106328.1214
 -19848119.89148 -15450770.98846  21174087.6804                   21174085.6454
 -22353439.03947 -17401661.82045  22791966.6334                   22791964.4844
  -4757149.18046  -3691310.67244  24828426.4774                   24828431.3754
 -28207419.73448 -21964176.42246  20827942.5704                   20827938.0664
 11  8 14  1 18  0.0000000  0  8G12G10G17G25G05G04G09G02
 -22326276.13348 -17382349.04746  20992112.3444                   20992109.3954
 -23578499.04748 -18359075.44946  21253115.6564                   21253113.0084
 -22986064.01246 -17895518.57044  24023467.5634                   24023465.9694
  -6783120.04347  -5270351.64545  23085815.1954                   23085816.3054
 -19938929.35248 -15521531.57046  21156807.2424                   21156805.1454
 -22296701.39547 -17357450.66844  22802762.5234                   22802761.3594
  -4699624.16447  -3646486.20344  24839373.9774                   24839377.4024
 -28216835.59848 -21971513.45746  20826150.9844                   20826146.2304
 11  8 14  1 18 30.0000000  0  8G12G10G17G25G05G04G09G02
 -22377814.01648 -17422508.42246  20982305.2114                   20982301.6604
 -23564635.21548 -18348272.44946  21255753.7274                   21255751.0004
 -22946811.60946 -17864932.28144  24030937.0784                   24030935.5314
  -6890555.62547  -5354067.66445  23065370.8754                   23065371.8984
 -20029264.59847 -15591922.62546  21139617.3364                   21139615.1054
 -22239924.93747 -17313209.28145  22813566.9224                   22813565.3244
  -4642141.35246  -3601694.61343  24850312.6484                   24850316.4144
 -28226028.59848 -21978676.82846  20824401.6724                   20824396.9304
 11  8 14  1 19  0.0000000  0  8G12G10G17G25G05G04G09G02
 -22428791.33248 -17462230.99246  20972604.4144                   20972601.2894
 -23550176.70348 -18337006.05146  21258505.1094                   21258502.2384
 -22907370.41046 -17834198.86344  24038442.5704                   24038440.6414
  -6997632.92247  -5437504.48445  23044994.7194                   23044995.8484
 -20119122.85548 -15661942.00846  21122517.5864                   21122515.1294
 -22183110.85547 -17268938.59044  22824378.5004                   22824377.1414
  -4584703.26646  -3556937.90244  24861243.0704                   24861247.3554
 -28234999.17248 -21985666.87546  20822694.6094                   20822689.8554
 11  8 14  1 19 30.0000000  0  8G12G10G17G25G05G04G09G02
 -22479205.86348 -17501515.02746  20963010.7344                   20963007.5514
 -23535124.25048 -18325276.84846  21261369.5554                   21261366.4614
 -22867738.87146 -17803317.16444  24045983.5784                   24045982.5164
  -7104348.25047  -5520659.25845  23024687.7664                   23024688.1214
 -20208500.93447 -15731587.21546  21105509.5474                   21105506.9774
 -22126259.05947 -17224638.50844  22835197.1954                   22835195.7274
  -4527311.94947  -3512217.59843  24872164.3754                   24872168.3404
 -28243747.55948 -21992483.79746  20821029.7424                   20821025.2344
 11  8 14  1 20  0.0000000  0  8G12G10G17G25G05G04G09G02
 -22529062.14848 -17540364.07046  20953523.6484                   20953520.5744
 -23519485.04348 -18313090.44146  21264345.3834                   21264342.5554
 -22827922.42246 -17772291.37144  24053560.6564                   24053559.0984
  -7210704.69947  -5603534.39845  23004448.7584                   23004449.0744
 -20297402.70748 -15800861.27746  21088592.2974                   21088589.7894
 -22069376.77747 -17180314.68444  22846021.5314                   22846020.0354
  -4469975.82846  -3467540.37143  24883074.8914                   24883079.2504
 -28252280.69148 -21999132.99246  20819406.0474                   20819401.4384
 11  8 14  1 20 30.0000000  0  8G12G10G17G25G05G04G09G02
 -22578355.75848 -17578774.67646  20944143.4534                   20944139.9694
 -23503257.05948 -18300445.23846  21267433.3364                   21267430.5984
 -22787917.78146 -17741118.93744  24061172.8284                   24061171.9614
  -7316696.46947  -5686125.37145  22984279.1564                   22984279.7384
 -20385822.53148 -15869759.80146  21071766.3134                   21071764.0904
 -22012462.14547 -17135965.62945  22856851.7504                   22856850.5744
  -4412694.84846  -3422906.08243  24893974.8674                   24893979.3204
 -28260596.30948 -22005612.67646  20817823.4774                   20817818.9144
 11  8 14  1 21  0.0000000  0  8G12G10G17G25G05G04G09G02
 -22627087.33648 -17616747.32446  20934869.8364                   20934866.7934
 -23486444.19148 -18287344.29746  21270632.8984                   21270630.0314
 -22747726.61746 -17709801.17244  24068821.5784                   24068820.1024
  -7422322.76247  -5768431.54745  22964178.7504                   22964179.3594
 -20473760.29747 -15938282.68746  21055032.3984                   21055029.7704
 -21955518.23047 -17091593.77744  22867688.2034                   22867686.4264
  -4355473.79346  -3378318.45743  24904864.4774                   24904868.1254
 -28268697.53148 -22011925.30546  20816282.1024                   20816277.2854
 11  8 14  1 21 30.0000000  0  8G12G10G17G25G05G04G09G02
 -22675252.62148 -17654278.71146  20925704.2974                   20925701.0164
 -23469044.71148 -18273786.24246  21273943.7504                   21273941.1524
 -22707345.40246 -17678335.31244  24076505.4304                   24076504.2544
  -7527577.81647  -5850448.46545  22944149.4144                   22944150.1454
 -20561210.60548 -16006425.74246  21038390.8834                   21038388.4614
 -21898543.15647 -17047197.65244  22878530.2894                   22878528.6334
  -4298312.33646  -3333777.29743  24915741.7344                   24915746.4414
 -28276582.43448 -22018069.36746  20814781.4924                   20814776.9694
 11  8 14  1 22  0.0000000  0  8G12G10G17G25G05G04G09G02
 -22722851.54348 -17691368.77746  20916646.7814                   20916643.3484
 -23451061.30548 -18259773.19146  21277366.3054                   21277363.3554
 -22666775.18746 -17646722.16444  24084225.4694                   24084224.6174
  -7632460.09847  -5932174.89545  22924191.6724                   22924191.6684
 -20648172.71547 -16074188.38746  21021842.7344                   21021840.1604
 -21841539.29347 -17002779.08644  22889377.8984                   22889375.9964
  -4241214.25846  -3289285.55943  24926607.0084                   24926612.0314
 -28284253.06648 -22024046.47347  20813321.7974                   20813316.8204
 11  8 14  1 22 30.0000000  0  8G12G10G17G25G05G04G09G02
 -22769880.89148 -17728015.02046  20907697.2734                   20907693.8444
 -23432493.76248 -18245304.96146  21280899.4384                   21280896.6024
 -22626013.44546 -17614959.78944  24091982.5634                   24091981.2854
  -7736964.86747  -6013607.15645  22904304.8984                   22904304.8284
 -20734642.24248 -16141567.19546  21005388.0704                   21005385.6604
 -21784505.67247 -16958337.32844  22900230.7344                   22900229.2114
  -4184180.63346  -3244843.98843  24937460.4694                   24937465.1954
 -28291708.21948 -22029855.66046  20811903.0704                   20811898.4804
 11  8 14  1 23  0.0000000  0  7G12G10G17G25G05G04G02
 -22816344.00048 -17764220.03947  20898855.5314                   20898852.3794
 -23413348.08248 -18230386.23846  21284542.6254                   21284539.7974
 -22585064.51646 -17583051.55944  24099775.0554                   24099773.7074
  -7841094.22747  -6094746.88745  22884489.5004                   22884489.7544
 -20820621.99248 -16208564.36347  20989026.4304                   20989024.3754
 -21727448.33247 -16913877.10544  22911088.7034                   22911086.8094
 -28298953.73048 -22035501.51246  20810524.4694                   20810519.4574
 11  8 14  1 23 30.0000000  0  7G12G10G17G25G05G04G02
 -22862236.31248 -17799980.28946  20890122.3284                   20890119.4734
 -23393622.18048 -18215015.39546  21288296.2974                   21288293.5394
 -22543925.01646 -17550994.82443  24107603.7734                   24107602.3244
  -7944841.87947  -6175589.16845  22864746.8674                   22864747.0704
 -20906106.02748 -16275175.26646  20972759.2194                   20972757.0164
 -21670364.73847 -16869396.41844  22921951.1884                   22921949.2274
 -28305987.28548 -22040982.19146  20809185.7894                   20809181.3594
 11  8 14  1 24  0.0000000  0  7G12G10G17G25G05G04G02
 -22907549.33648 -17835289.13746  20881499.5864                   20881496.6374
 -23373310.64148 -18199188.20746  21292161.6334                   21292158.6024
 -22502586.94546 -17518783.36743  24115469.4534                   24115468.6524
  -8048197.91848  -6256126.30145  22845078.8444                   22845078.8364
 -20991085.13348 -16341392.70746  20956588.4224                   20956586.0634
 -21613248.72747 -16824890.46944  22932820.5704                   22932818.5554
 -28312802.55148 -22046292.77346  20807888.9694                   20807884.1294
 11  8 14  1 24 30.0000000  0  7G12G10G17G25G05G04G02
 -22952276.72748 -17870141.64546  20872988.1884                   20872985.1684
 -23352409.75848 -18182901.79746  21296138.9454                   21296136.1414
 -22461045.14846 -17486413.13343  24123375.2344                   24123373.7664
  -8151154.42647  -6336352.08245  22825486.7734                   22825486.9964
 -21075551.52348 -16407210.64146  20940514.9224                   20940512.4694
 -21556096.13747 -16780355.99644  22943695.8444                   22943694.2854
 -28319395.29348 -22051429.95346  20806634.2664                   20806629.7894
 11  8 14  1 25  0.0000000  0  7G12G10G17G25G05G04G02
 -22996420.91048 -17904539.71147  20864588.0704                   20864584.7344
 -23330924.57448 -18166160.08646  21300227.2664                   21300224.6804
 -22419302.57046 -17453886.47343  24131318.3984                   24131316.6954
  -8253712.04747  -6416267.05145  22805971.0394                   22805970.7704
 -21159506.93448 -16472630.40246  20924538.7194                   20924536.1604
 -21498911.54347 -16735796.59444  22954578.1724                   22954576.3134
 -28325770.25848 -22056397.44146  20805421.3754                   20805416.6604
 11  8 14  1 25 30.0000000  0  7G12G10G17G25G05G04G02
 -23039987.03548 -17938487.33646  20856297.6644                   20856294.5204
 -23308862.95347 -18148969.19546  21304425.2424                   21304422.6954
 -22377365.14146 -17421207.97343  24139299.0234                   24139297.4414
  -8355874.42647  -6495874.03545  22786529.9534                   22786530.1214
 -21242955.64148 -16537655.33246  20908659.0864                   20908656.6604
 -21441702.19547 -16691217.91044  22965464.4144                   22965462.7664
 -28331933.85248 -22061200.22346  20804248.1954                   20804243.5434
 11  8 14  1 26  0.0000000  0  7G12G10G17G25G05G04G02
 -23082974.26248 -17971983.88346  20848117.6024                   20848114.5274
 -23286227.25847 -18131330.97746  21308732.4924                   21308729.7194
 -22335232.97346 -17388377.72343  24147316.2584                   24147314.4774
  -8457639.34447  -6575171.29745  22767164.7034                   22767165.1374
 -21325895.95748 -16602284.10546  20892875.8364                   20892873.4924
 -21384469.42247 -16646620.95744  22976355.2894                   22976353.7424
 -28337887.72348 -22065839.59046  20803115.2974                   20803110.6524
 11  8 14  1 26 30.0000000  0  7G12G10G17G25G05G04G02
 -23125383.08248 -18005029.71146  20840047.3914                   20840044.2384
 -23263020.47747 -18113247.76246  21313148.8134                   21313146.2704
 -22292907.18446 -17355396.57043  24155371.1884                   24155368.4344
  -8559005.60247  -6654157.91845  22747874.8444                   22747875.1414
 -21408326.93447 -16666516.00047  20877189.6954                   20877187.5274
 -21327216.03947 -16602007.94944  22987250.0704                   22987248.4494
 -28343634.64848 -22070317.69546  20802021.9144                   20802017.0554
 11  8 14  1 27  0.0000000  0  7G12G10G17G25G05G04G02
 -23167215.22748 -18037626.17246  20832087.0704                   20832083.6764
 -23239246.82447 -18094722.82046  21317672.5084                   21317670.0944
 -22250390.59447 -17322266.76643  24163461.3834                   24163459.7814
  -8659972.99647  -6732833.73045  22728661.6644                   22728662.2194
 -21490249.22748 -16730351.51246  20861600.5234                   20861598.3754
 -21269945.49247 -16557381.57444  22998149.3284                   22998146.7894
 -28349178.02048 -22074637.19546  20800966.7894                   20800962.1564
 11  8 14  1 27 30.0000000  0  7G12G10G17G25G05G04G02
 -23208469.25848 -18069772.17246  20824236.9534                   20824233.5634
 -23214907.94948 -18075757.44146  21322304.5004                   21322301.6174
 -22207682.31247 -17288987.57043  24171588.3834                   24171586.5744
  -8760538.82047  -6811196.62945  22709524.4384                   22709524.6884
 -21571660.66448 -16793788.95746  20846108.2424                   20846105.7894
 -21212658.52347 -16512742.39844  23009049.6254                   23009048.4024
 -28354518.30948 -22078798.44146  20799950.5084                   20799945.9104
 11  8 14  1 28  0.0000000  0  7G12G10G17G25G05G04G02
 -23249145.18448 -18101467.68446  20816496.1484                   20816493.0634
 -23190006.65248 -18056353.81246  21327043.3284                   21327040.1334
 -22164783.08647 -17255559.59844  24179752.5634                   24179750.2774
  -8860701.42647  -6889245.35545  22690464.1334                   22690464.4884
 -21652560.79348 -16856827.97746  20830713.6484                   20830710.9574
 -21155357.19547 -16468092.01244  23019954.3054                   23019952.2464
 -28359657.91048 -22082803.32046  20798972.5314                   20798967.8324
 11  8 14  1 28 30.0000000  0  7G12G10G17G25G05G04G02
 -23289241.70748 -18132711.72346  20808866.1024                   20808863.0784
 -23164544.23048 -18036512.94146  21331888.1174                   21331885.4614
 -22121692.50847 -17221982.49644  24187951.9694                   24187950.2934
  -8960457.87947  -6966977.57845  22671480.9614                   22671481.2624
 -21732946.94948 -16919466.49646  20815416.5004                   20815413.7664
 -21098042.37147 -16423431.12544  23030860.8204                   23030858.9414
 -28364597.44548 -22086652.30546  20798032.7274                   20798028.1294
 11  8 14  1 29  0.0000000  0  7G12G10G17G25G05G04G02
 -23328759.21948 -18163504.57846  20801346.2424                   20801343.0864
 -23138523.48047 -18016237.00846  21336839.7034                   21336837.2194
 -22078411.46147 -17188257.01244  24196188.1564                   24196186.4414
  -9059806.55947  -7044392.06645  22652575.6644                   22652575.9534
 -21812818.09848 -16981703.71547  20800217.6484                   20800215.0234
 -21040715.88747 -16378761.14844  23041769.4774                   23041767.5274
 -28369338.69548 -22090346.76646  20797130.5164                   20797125.9024
 11  8 14  1 29 30.0000000  0  7G12G10G17G25G05G04G02
 -23367696.74248 -18193845.49246  20793936.7114                   20793933.1414
 -23111946.40647 -17995527.57446  21341897.4694                   21341894.5824
 -22034939.84447 -17154383.02344  24204460.4694                   24204458.8634
  -9158744.88747  -7121486.80145  22633748.1954                   22633748.6914
 -21892172.34848 -17043538.15646  20785116.9694                   20785114.1994
 -20983378.77747 -16334082.89144  23052680.6414                   23052678.2584
 -28373882.59448 -22093887.44946  20796265.4694                   20796260.9264
 11  8 14  1 30  0.0000000  0  7G12G10G17G25G05G04G02
 -23406052.42248 -18223733.01646  20786637.6024                   20786634.7274
 -23084813.96547 -17974385.39546  21347060.3054                   21347057.6994
 -21991276.21547 -17120359.40644  24212769.3134                   24212768.0084
  -9257269.36747  -7198259.07045  22614999.4534                   22614999.6604
 -21971007.03548 -17104967.74646  20770114.9064                   20770112.6254
 -20926031.09047 -16289396.38744  23063593.4774                   23063591.7274
 -28378229.48047 -22097274.61746  20795438.6564                   20795433.6374
 11  8 14  1 30 30.0000000  0  7G12G10G17G25G05G04G02
 -23443828.00448 -18253168.51646  20779449.0784                   20779445.8204
 -23057130.54347 -17952813.87146  21352328.4384                   21352325.8014
 -21947422.99647 -17086188.07444  24221114.3674                   24221112.3054
  -9355379.81247  -7274708.71145  22596330.0704                   22596329.9384
 -22049322.74648 -17165992.93046  20755212.0474                   20755209.1954
 -20868676.34046 -16244704.37944  23074507.5864                   23074506.1454
 -28382382.43048 -22100510.67646  20794648.2504                   20794643.2114
 11  8 14  1 31  0.0000000  0  7G12G10G17G25G05G04G02
 -23481022.77748 -18282151.43446  20772371.2664                   20772368.1214
 -23028898.66448 -17930814.98845  21357700.6644                   21357697.9224
 -21903380.50046 -17051869.26644  24229495.3984                   24229493.4734
  -9453074.34847  -7350834.27345  22577738.6804                   22577739.0864
 -22127118.10947 -17226612.65647  20740407.9064                   20740405.3014
 -20811315.96146 -16200007.99644  23085422.7274                   23085421.2504
 -28386343.18048 -22103596.96146  20793894.7814                   20793889.7424
 11  8 14  1 31 30.0000000  0  7G12G10G17G25G05G04G02
 -23517637.25448 -18310682.17246  20765403.5084                   20765400.5704
 -23000120.85548 -17908390.71146  21363177.2974                   21363174.2584
 -21859149.48846 -17017403.55144  24237912.4304                   24237911.3674
  -9550350.99247  -7426634.20345  22559228.2424                   22559228.4104
 -22204391.81647 -17286825.89147  20725703.2584                   20725701.0274
 -20753951.71946 -16155308.61344  23096338.6724                   23096337.6884
 -28390113.21148 -22106534.63746  20793176.9224                   20793172.1684
 11  8 14  1 32  0.0000000  0  7G12G10G17G25G05G04G02
 -23553667.91448 -18338757.98047  20758547.4694                   20758544.1484
 -22970796.70347 -17885540.70745  21368757.1564                   21368754.1294
 -21814727.23046 -16982788.82844  24246366.2814                   24246363.7074
  -9647204.69147  -7502104.57045  22540796.9614                   22540797.8244
 -22281139.84448 -17346629.51246  20711098.5004                   20711095.7934
 -20696581.76246 -16110604.77044  23107256.0394                   23107254.6804
 -28393691.37148 -22109322.80546  20792496.0784                   20792491.7234
 11  8 14  1 32 30.0000000  0  7G12G10G17G25G05G04G02
 -23589112.92248 -18366377.44946  20751802.2274                   20751799.0784
 -22940926.52348 -17862265.23045  21374441.4224                   21374438.2344
 -21770112.00046 -16948023.72744  24254855.6254                   24254853.9924
  -9743631.81247  -7577242.54745  22522447.6564                   22522447.8444
 -22357359.19548 -17406021.17646  20696594.6094                   20696591.9534
 -20639206.02047 -16065896.43044  23118174.7194                   23118172.9804
 -28397076.86748 -22111960.84046  20791852.0784                   20791847.3674
 11  8 14  1 33  0.0000000  0  8G12G10G17G25G05G04G29G02
 -23623976.18447 -18393543.60546  20745168.0084                   20745165.0634
 -22910517.51648 -17838569.88346  21380227.8914                   21380225.0664
 -21725308.91446 -16913112.23844  24263380.9144                   24263380.1764
  -9839634.64847  -7652049.90645  22504179.0004                   22504179.0904
 -22433052.81248 -17465003.17646  20682190.1414                   20682187.9844
 -20581830.54746 -16021188.30944  23129092.4774                   23129091.2734
   4571943.13356   3574648.30153  24619497.5234                   24619498.3244
 -28400275.80147 -22114453.50846  20791243.3134                   20791238.3284
 11  8 14  1 33 30.0000000  0  8G12G10G17G25G05G04G29G02
 -23658264.60247 -18420261.83646  20738643.2274                   20738640.1374
 -22879578.82848 -17814461.80546  21386115.2734                   21386112.1724
 -21680324.86746 -16878059.72343  24271941.1334                   24271940.1374
  -9935218.01647  -7726530.40645  22485990.3444                   22485990.2384
 -22508226.51247 -17523580.05147  20667885.3204                   20667882.8554
 -20524463.29347 -15976486.56644  23140009.9774                   23140007.6724
   4467003.25846   3492877.09444  24599528.9304                   24599528.6604
 -28403296.33647 -22116807.14846  20790668.1094                   20790663.7974
 11  8 14  1 34  0.0000000  0  8G12G10G17G25G05G04G29G02
 -23691980.96548 -18446534.30947  20732226.9694                   20732223.9964
 -22848116.17248 -17789945.43746  21392102.3984                   21392099.4804
 -21635163.45346 -16842869.02343  24280535.3134                   24280533.6334
 -10030383.00447  -7800684.90245  22467880.7114                   22467880.7304
 -22582882.23048 -17581753.30147  20653678.7034                   20653676.1564
 -20467108.88346 -15931794.83644  23150923.5784                   23150921.6214
   4361980.96946   3411041.64544  24579543.7344                   24579543.2344
 -28406143.26648 -22119025.52346  20790127.0314                   20790121.9884
 11  8 14  1 34 30.0000000  0  8G12G10G17G25G05G04G29G02
 -23725120.04348 -18472356.94146  20725920.7974                   20725917.5664
 -22816127.19148 -17765018.94946  21398189.7344                   21398186.8484
 -21589820.41446 -16807536.79343  24289164.4694                   24289161.6764
 -10125122.78947  -7874508.05945  22449852.5704                   22449852.5434
 -22657013.77047 -17639518.10547  20639572.2584                   20639569.5274
 -20409763.75446 -15887110.34044  23161836.0084                   23161834.2854
   4256881.25446   3329145.86744  24559543.3834                   24559544.2344
 -28408812.93448 -22121105.77046  20789618.5314                   20789614.0984
 11  8 14  1 35  0.0000000  0  8G12G10G17G25G05G04G29G02
 -23757679.94148 -18497728.27046  20719724.9304                   20719722.0274
 -22783612.18047 -17739682.57446  21404377.3674                   21404374.3984
 -21544293.59446 -16772061.40243  24297826.6484                   24297825.1374
 -10219433.16447  -7947996.62945  22431905.4304                   22431905.6644
 -22730617.76248 -17696871.83247  20625565.6094                   20625562.9654
 -20352427.15646 -15842432.48844  23172747.0554                   23172745.2274
   4151706.43046   3247191.54344  24539529.9614                   24539529.5704
 -28411304.60548 -22123047.32046  20789144.5864                   20789139.5514
 11  8 14  1 35 30.0000000  0  8G12G10G17G25G05G04G29G02
 -23789656.97347 -18522645.43047  20713639.8754                   20713636.9104
 -22750570.02747 -17713935.43446  21410664.8914                   21410661.8444
 -21498579.99246 -16736440.39143  24306526.3754                   24306524.4924
 -10313308.40247  -8021146.11745  22414041.7344                   22414041.5704
 -22803689.27047 -17753810.63347  20611660.6254                   20611657.8324
 -20295096.86346 -15797759.56244  23183656.5944                   23183654.7624
   4046460.55146   3165181.87544  24519502.2344                   24519501.7114
 -28413616.00847 -22124848.41046  20788704.5864                   20788699.9454
 11  8 14  1 36  0.0000000  0  8G12G10G17G25G05G04G29G02
 -23821049.38748 -18547107.03546  20707665.8284                   20707663.0904
 -22717001.89847 -17687778.43745  21417052.8524                   21417049.8444
 -21452678.66846 -16700673.13343  24315261.0394                   24315259.4884
 -10406745.24647  -8093953.98845  22396261.4924                   22396261.1374
 -22876225.84048 -17810332.60547  20597857.5314                   20597854.6804
 -20237772.71147 -15753091.42644  23194565.0634                   23194563.4804
   3941145.04747   3083117.93044  24499461.4774                   24499460.9924
 -28415747.54348 -22126509.34046  20788298.9454                   20788294.2774
 11  8 14  1 36 30.0000000  0  8G12G10G17G25G05G04G29G02
 -23851856.92248 -18571112.89546  20701803.7194                   20701800.4964
 -22682910.18747 -17661213.45746  21423540.1094                   21423537.2664
 -21406589.59045 -16664759.57043  24324031.1644                   24324029.8794
 -10499741.48847  -8166418.53945  22378564.4774                   22378564.3054
 -22948226.14547 -17866436.69947  20584156.1644                   20584153.3984
 -20180455.81247 -15708428.93044  23205471.7424                   23205470.3444
   3835760.58646   3001000.23844  24479406.9224                   24479406.5474
 -28417699.88748 -22128030.64546  20787927.4844                   20787922.6214
 11  8 14  1 37  0.0000000  0  8G12G10G17G25G05G04G29G02
 -23882078.18447 -18594661.93046  20696052.6804                   20696049.8134
 -22648295.90648 -17634241.28545  21430127.0634                   21430123.8674
 -21360311.50846 -16628698.72343  24332838.0784                   24332836.3524
 -10592293.52747  -8238536.94945  22360952.5704                   22360952.4144
 -23019687.53548 -17922120.87547  20570557.4774                   20570554.6954
 -20123145.95347 -15663771.91844  23216377.2664                   23216375.9774
   3730308.84046   2918830.10243  24459340.3134                   24459340.0664
 -28419472.82447 -22129412.16446  20787589.9924                   20787585.3874
 11  8 14  1 37 30.0000000  0  8G12G10G17G25G05G04G29G02
 -23911712.77348 -18617753.81246  20690413.5634                   20690410.0274
 -22613161.62947 -17606863.92245  21436812.6724                   21436809.9024
 -21313844.60946 -16592490.76643  24341680.8834                   24341679.0124
 -10684399.21147  -8310307.55545  22343425.3364                   22343425.4844
 -23090608.61748 -17977384.02347  20557061.6174                   20557058.9264
 -20065844.06246 -15619121.14544  23227281.8834                   23227280.2854
   3624790.61346   2836608.18843  24439260.7114                   24439260.5664
 -28421067.64548 -22130654.87546  20787286.4844                   20787281.9924
 11  8 14  1 38  0.0000000  0  8G12G10G17G25G05G04G29G02
 -23940758.46148 -18640386.81646  20684886.2194                   20684883.2234
 -22577507.49647 -17579081.47345  21443597.3444                   21443594.7894
 -21267187.16046 -16556134.30543  24350558.8984                   24350556.9574
 -10776054.35547  -8381727.08245  22325984.0004                   22325983.6644
 -23160985.96548 -18032223.47747  20543668.8674                   20543666.4264
 -20008549.37546 -15574475.94944  23238184.6564                   23238182.6454
   3519208.23847   2754336.27744  24419169.3674                   24419168.4264
 -28422483.61748 -22131758.22746  20787017.3134                   20787012.3404
 11  8 14  1 38 30.0000000  0  8G12G10G17G25G05G04G29G02
 -23969215.07448 -18662560.80146  20679471.1334                   20679468.1414
 -22541336.03147 -17550895.91845  21450481.0234                   21450477.9344
 -21220339.43046 -16519629.57843  24359473.7814                   24359471.8554
 -10867256.92247  -8452793.95745  22308628.6954                   22308628.4144
 -23230818.47748 -18086638.39146  20530380.4614                   20530377.5904
 -19951263.04746 -15529837.29744  23249086.0004                   23249084.1174
   3413562.07846   2672014.65243  24399064.8754                   24399064.3834
 -28423721.78948 -22132723.03546  20786781.6094                   20786776.2854
 11  8 14  1 39  0.0000000  0  8G12G10G17G25G05G04G29G02
 -23997084.39148 -18684277.14146  20674168.0704                   20674164.5204
 -22504652.07448 -17522311.00845  21457461.2584                   21457458.6054
 -21173303.68047 -16482978.32443  24368424.6414                   24368422.0434
 -10958006.91848  -8523508.17645  22291359.3914                   22291359.2274
 -23300107.00448 -18140629.42647  20517195.2894                   20517192.9344
 -19893988.16447 -15485207.56644  23259984.8984                   23259983.1884
   3307850.38346   2589641.97743  24378948.3984                   24378947.8014
 -28424785.49648 -22133551.89846  20786579.3984                   20786574.3484
 11  8 14  1 39 30.0000000  0  8G12G10G17G25G05G04G29G02
 -24024366.68048 -18705536.07847  20668976.0164                   20668972.7114
 -22467457.83247 -17493328.47745  21464539.1334                   21464536.4144
 -21126079.95347 -16446180.60943  24377410.6484                   24377409.0084
 -11048301.98448  -8593867.90646  22274176.6414                   22274176.5164
 -23368850.63748 -18194195.85947  20504113.8834                   20504110.9844
 -19836725.58247 -15440587.40244  23270881.6334                   23270879.3674
   3202073.84046   2507218.80943  24358819.2734                   24358819.4494
 -28425675.80948 -22134245.65246  20786409.8754                   20786404.7194
 11  8 14  1 40  0.0000000  0  8G12G10G17G25G05G04G29G02
 -24051059.87948 -18726335.96546  20663896.6644                   20663893.5004
 -22429753.96148 -17463948.83245  21471713.9144                   21471711.3204
 -21078666.84446 -16409235.29343  24386432.4694                   24386431.3014
 -11138138.47347  -8663870.30946  22257081.1804                   22257081.4804
 -23437045.93748 -18247335.02347  20491136.5394                   20491133.7734
 -19779475.01647 -15395976.60544  23281776.0944                   23281774.3674
   3096234.64146   2424746.74243  24338679.3444                   24338678.4414
 -28426392.18448 -22134803.87546  20786273.3054                   20786268.6644
 11  8 14  1 40 30.0000000  0  8G12G10G17G25G05G04G29G02
 -24077163.37548 -18746676.36346  20658929.4614                   20658926.2734
 -22391542.37947 -17434173.55945  21478985.5554                   21478982.5434
 -21031064.07047 -16372142.22743  24395491.5084                   24395490.3984
 -11227513.64847  -8733513.25046  22240073.9064                   22240073.7274
 -23504691.42648 -18300045.76247  20478264.1334                   20478261.4614
 -19722236.55947 -15351375.23844  23292668.4144                   23292666.4924
   2990334.04346   2342226.91043  24318526.4454                   24318525.8554
 -28426934.94148 -22135226.80146  20786170.4384                   20786165.1644
 11  8 14  1 41  0.0000000  0  8G12G10G17G25G05G04G29G02
 -24102679.36748 -18766558.94947  20654073.6484                   20654070.7624
 -22352827.79747 -17404006.34845  21486352.4614                   21486350.0744
 -20983274.29746 -16334903.46143  24404585.6174                   24404584.3954
 -11316427.82047  -8802796.97745  22223154.3364                   22223153.9224
 -23571788.15247 -18352328.89147  20465495.7274                   20465493.1484
 -19665013.72347 -15306786.05144  23303557.4614                   23303555.5704
   2884370.07847   2259657.69143  24298362.4534                   24298361.8054
 -28427307.81648 -22135517.34446  20786099.1954                   20786094.2854
 11  8 14  1 41 30.0000000  0  7G12G10G25G05G04G29G02
 -24127606.42648 -18785982.63347  20649330.0394                   20649327.2034
 -22313611.08247 -17373447.86345  21493815.5234                   21493812.7234
 -11404877.18747  -8871718.52346  22206322.7344                   22206322.4884
 -23638333.36748 -18404182.27347  20452832.8054                   20452829.7384
 -19607805.71547 -15262208.42644  23314443.7344                   23314442.1914
   2778345.05547   2177040.87943  24278187.5164                   24278185.1454
 -28427510.12548 -22135674.97746  20786060.7424                   20786055.7194
 11  8 14  1 42  0.0000000  0  7G12G10G25G05G04G29G02
 -24151940.96148 -18804944.60546  20644699.6174                   20644696.4454
 -22273891.45748 -17342497.49645  21501373.6804                   21501370.8794
 -11492856.36348  -8940273.68746  22189580.6804                   22189580.9384
 -23704322.69148 -18455602.50047  20440275.3594                   20440272.4694
 -19550610.28147 -15217640.59844  23325327.6644                   23325325.8164
   2672262.81647   2094379.47344  24257999.9924                   24257999.8484
 -28427539.74248 -22135698.05546  20786054.7424                   20786050.0434
 11  8 14  1 42 30.0000000  0  7G12G10G25G05G04G29G02
 -24175679.64848 -18823442.28546  20640182.0314                   20640179.0594
 -22233668.21948 -17311154.69946  21509027.4774                   21509025.0044
 -11580359.75448  -9008458.11746  22172929.5554                   22172929.6214
 -23769751.05548 -18506585.60247  20427824.9064                   20427821.8794
 -19493424.65247 -15173080.38344  23336209.9694                   23336207.8794
   2566127.52747   2011676.78144  24237803.0634                   24237802.4884
 -28427394.16448 -22135584.59846  20786082.6484                   20786078.0394
 11  8 14  1 43  0.0000000  0  7G12G10G25G05G04G29G02
 -24198815.22748 -18841470.00847  20635779.5704                   20635776.6374
 -22192936.70347 -17279415.84845  21516778.7034                   21516776.0864
 -11667378.34847  -9076264.79746  22156369.9774                   22156370.1644
 -23834610.82448 -18557125.64847  20415482.5394                   20415479.2934
 -19436243.14847 -15128523.40244  23347091.4384                   23347089.1254
   2459946.67647   1928938.57844  24217597.6484                   24217596.8164
 -28427067.39848 -22135329.96146  20786144.7974                   20786139.9184
 11  8 14  1 43 30.0000000  0  7G12G10G25G05G04G29G02
 -24221354.64548 -18859033.19147  20631490.7114                   20631487.6374
 -22151705.67248 -17247287.76645  21524624.6724                   21524622.2274
 -11753916.68747  -9143697.26646  22139902.6024                   22139902.3794
 -23898907.79748 -18607227.15247  20403247.1334                   20403244.1524
 -19379073.04746 -15083975.29344  23357970.6484                   23357968.4694
   2353714.59047   1846160.42244  24197381.9304                   24197381.6724
 -28426567.50448 -22134940.41846  20786239.8134                   20786235.1644
 11  8 14  1 44  0.0000000  0  7G12G10G25G05G04G29G02
 -24243300.43448 -18876133.78946  20627314.2664                   20627311.2704
 -22109980.33647 -17214774.51245  21532564.7664                   21532561.8594
 -11839975.20347  -9210755.85946  22123526.3284                   22123526.1804
 -23962643.08648 -18656890.98047  20391118.5004                   20391115.9224
 -19321917.65646 -15039438.65244  23368846.9774                   23368844.6804
   2247429.10247   1763340.65644  24177156.4844                   24177156.2344
 -28425897.70748 -22134418.47746  20786367.3984                   20786362.8754
 11  8 14  1 44 30.0000000  0  7G12G10G25G05G04G29G02
 -24264653.33248 -18892772.41046  20623251.1254                   20623248.1294
 -22067764.29747 -17181878.88745  21540598.2504                   21540595.7424
 -11925552.74247  -9277439.66846  22107241.3054                   22107241.1724
 -24025816.43448 -18706116.93047  20379097.2344                   20379094.1294
 -19264778.98446 -14994915.04743  23379719.8364                   23379717.9884
   2141090.08647   1680479.17644  24156921.2664                   24156920.4454
 -28425059.80548 -22133765.54346  20786526.8204                   20786521.9344
 11  8 14  1 45  0.0000000  0  7G12G10G25G05G04G29G02
 -24285415.07448 -18908950.37546  20619300.0394                   20619296.9694
 -22025061.53547 -17148604.00445  21548724.2504                   21548721.5084
 -12010648.68448  -9343748.22746  22091048.0004                   22091047.9024
 -24088428.27748 -18754905.35947  20367182.5164                   20367179.6094
 -19207659.44546 -14950406.32444  23390589.4924                   23390587.5904
   2034696.80546   1597575.39544  24136674.8054                   24136674.5164
 -28424056.34048 -22132983.60246  20786717.4454                   20786712.8094
 11  8 14  1 45 30.0000000  0  7G12G10G25G05G04G29G02
 -24305584.41048 -18924666.73046  20615462.1884                   20615459.1644
 -21981873.50448 -17114950.97345  21556942.8364                   21556939.8204
 -12095260.08247  -9409679.20346  22074947.2424                   22074947.2854
 -24150476.94548 -18803254.93447  20355375.0164                   20355372.1334
 -19150558.66046 -14905912.22744  23401455.6564                   23401453.6884
   1928250.96146   1514630.66044  24116418.8524                   24116418.2854
 -28422887.66848 -22132072.92646  20786940.3674                   20786935.3134
 11  8 14  1 46  0.0000000  0  7G12G10G25G05G04G29G02
 -24325165.04748 -18939924.35946  20611735.8594                   20611732.8284
 -21938205.96948 -17080924.30545  21565252.2894                   21565249.7234
 -12179387.95747  -9475233.42646  22058938.0004                   22058938.2344
 -24211964.34048 -18851167.15647  20343674.2114                   20343671.3714
 -19093480.68746 -14861435.88744  23412317.0314                   23412315.1954
   1821749.96146   1431642.92644  24096151.6884                   24096151.2384
 -28421557.57448 -22131036.45346  20787193.1644                   20787187.9344
 11  8 14  1 46 30.0000000  0  7G12G10G25G05G04G29G02
 -24344155.68048 -18954722.25847  20608122.1954                   20608118.9534
 -21894060.18748 -17046525.00445  21573652.9304                   21573650.2384
 -12263029.09048  -9540408.35245  22043021.7974                   22043021.7584
 -24272888.00848 -18898640.10547  20332080.6024                   20332077.8914
 -19036425.09047 -14816976.98844  23423174.3054                   23423172.6914
   1715195.93846   1348613.91844  24075874.8054                   24075875.0704
 -28420065.78548 -22129873.99246  20787477.2194                   20787472.5634
 11  8 14  1 47  0.0000000  0  7G12G10G25G05G04G29G02
 -22787135.97348 -17741460.14547  20904413.2344                   20904410.3204
 -20274020.03948 -15784156.03945  21881936.5084                   21881933.6884
 -10770758.48448  -8377600.10946  22326991.3594                   22326991.5044
 -22757824.97348 -17718071.47347  20620387.6484                   20620384.5744
 -17403974.31247 -13544937.43044  23733818.9304                   23733817.4884
   3184013.17646   2493146.88744  24355381.7274                   24355381.7034
 -26842993.23048 -20900986.26646  21087583.9924                   21087579.2274
 11  8 14  1 47 30.0000000  0  7G12G10G25G05G04G29G02
 -22804947.48848 -17755339.23847  20901024.0164                   20901021.0314
 -20228925.66448 -15749017.55945  21890517.5234                   21890514.6134
 -10853420.07848  -8442011.75846  22311261.5394                   22311261.3984
 -22817618.55147 -17764663.84047  20609009.3134                   20609006.2584
 -17346965.83247 -13500515.25044  23744668.0554                   23744665.8134
   3077355.23446   2410036.87544  24335086.1414                   24335085.2664
 -26841181.18448 -20899574.25446  21087928.6644                   21087924.1024
 11  8 14  1 48  0.0000000  0  7G12G10G25G05G04G29G02
 -22822172.27748 -17768761.14846  20897746.0164                   20897742.9884
 -20183363.21948 -15713514.34845  21899187.9454                   21899185.1374
 -10935591.50048  -8506041.44146  22295624.5394                   22295624.9144
 -22876848.55547 -17810817.07047  20597737.9064                   20597735.3594
 -17289984.80547 -13456114.44944  23755510.9304                   23755509.1644
   2970644.04346   2326885.33643  24314779.4384                   24314778.5784
 -26839212.90647 -20898040.51246  21088303.3134                   21088298.4414
 11  8 14  1 48 30.0000000  0  7G12G10G25G05G04G29G02
 -22838807.24248 -17781723.44946  20894580.5634                   20894577.2934
 -20137332.21547 -15677646.03145  21907947.1254                   21907944.6684
 -11017267.58648  -8569685.13746  22280082.2894                   22280082.0354
 -22935510.64547 -17856527.75447  20586575.2584                   20586572.5314
 -17233028.59447 -13411732.99244  23766349.4144                   23766347.7424
   2863883.50446   2243695.35543  24294463.0784                   24294462.6994
 -26837086.21547 -20896383.32046  21088707.7274                   21088702.9414
 11  8 14  1 49  0.0000000  0  7G12G10G25G05G04G29G02
 -22854854.46548 -17794227.77746  20891527.1254                   20891524.1024
 -20090837.55948 -15641416.41845  21916795.0084                   21916792.0704
 -11098448.40648  -8632942.89546  22264634.1884                   22264634.0274
 -22993606.05148 -17901796.87547  20575520.0554                   20575517.2274
 -17176100.12147 -13367373.14144  23777182.4844                   23777180.6604
   2757072.37146   2160465.96543  24274137.8914                   24274137.1724
 -26834803.99648 -20894604.94146  21089142.3984                   21089137.4964
 11  8 14  1 49 30.0000000  0  7G12G10G25G05G04G29G02
 -22870313.11748 -17806273.46946  20888585.0554                   20888581.9614
 -20043880.29348 -15604826.33645  21925730.9844                   21925727.6174
 -11179130.69548  -8695812.17246  22249280.7194                   22249280.6724
 -23051132.33648 -17946622.52047  20564573.0944                   20564569.9694
 -17119198.52047 -13323034.23444  23788010.5554                   23788009.1994
   2650212.74246   2077198.73444  24253803.5004                   24253802.5554
 -26832366.12948 -20892705.27746  21089606.2344                   21089601.1644
 11  8 14  1 50  0.0000000  0  7G12G10G25G05G04G29G02
 -22885183.54348 -17817860.80946  20885755.5314                   20885752.4734
 -19996462.50048 -15567877.41445  21934753.8444                   21934751.1564
 -11259312.25048  -8758291.25446  22234022.8204                   22234022.6454
 -23108088.56647 -17991003.96547  20553734.6094                   20553731.8444
 -17062324.41447 -13278716.73844  23798833.3444                   23798831.8134
   2543305.87947   1993894.72744  24233459.4924                   24233458.8484
 -26829772.96547 -20890684.60546  21090099.4384                   21090094.5554
 11  8 14  1 50 30.0000000  0  7G12G10G25G05G04G29G02
 -22899467.21548 -17828990.93446  20883037.2814                   20883034.2384
 -19948588.46147 -15530572.94945  21943864.3364                   21943861.2624
 -11338992.53548  -8820379.73446  22218859.9064                   22218860.0044
 -23164475.39148 -18034941.71947  20543004.4064                   20543001.7734
 -17005480.06247 -13234422.43744  23809650.3914                   23809648.6844
   2436351.05947   1910553.32844  24213106.6484                   24213105.7544
 -26827026.89148 -20888544.78146  21090622.2344                   21090617.1804
 11  8 14  1 51  0.0000000  0  7G12G10G25G05G04G29G02
 -22913163.10948 -17839663.05147  20880431.2734                   20880427.7774
 -19900259.07447 -15492913.69945  21953061.1884                   21953057.9414
 -11418168.29348  -8882075.06246  22203793.3364                   22203792.8674
 -23220290.69947 -18078434.13347  20532383.0944                   20532380.3364
 -16948664.62147 -13190150.67244  23820461.7034                   23820460.5864
   2329350.69947   1827176.44544  24192745.4064                   24192743.8594
 -26824127.46947 -20886285.45746  21091173.9304                   21091168.7894
 11  8 14  1 51 30.0000000  0  7G12G10G25G05G04G29G02
 -22926272.19148 -17849877.92646  20877936.7974                   20877933.2704
 -19851477.80547 -15454902.30945  21962343.5164                   21962340.6374
 -11496838.32448  -8943376.31646  22188822.8524                   22188822.6174
 -23275534.25048 -18121481.02347  20521870.5864                   20521867.6094
 -16891879.51647 -13145902.53944  23831267.5634                   23831266.5744
   2222304.75047   1743764.04344  24172374.8834                   24172373.3324
 -26821076.34447 -20883907.94546  21091754.3524                   21091749.7624
 11  8 14  1 52  0.0000000  0  7G12G10G25G05G04G29G02
 -22938795.45348 -17859636.31246  20875553.3594                   20875550.2424
 -19802247.98447 -15416541.42645  21971711.5554                   21971708.7504
 -11575001.05948  -9004282.28946  22173948.8134                   22173948.8484
 -23330205.62548 -18164082.07047  20511467.0784                   20511464.4144
 -16835125.78547 -13101678.84844  23842067.7974                   23842066.2624
   2115213.82446   1660316.60544  24151995.5004                   24151994.9384
 -26817874.48848 -20881412.96546  21092363.7734                   21092358.8834
 11  8 14  1 52 30.0000000  0  7G12G10G25G05G04G29G02
 -22950734.59048 -17868939.54346  20873281.4924                   20873278.3984
 -19752573.57847 -15377834.10245  21981164.3754                   21981161.5784
 -11652656.16048  -9064792.68746  22159171.4774                   22159171.3054
 -23384305.48848 -18206237.77347  20501172.1094                   20501169.5164
 -16778405.23847 -13057481.01244  23852861.2194                   23852859.6134
   2008077.55547   1576833.83244  24131608.6414                   24131607.9454
 -26814524.42648 -20878802.51246  21093000.9844                   21092996.6054
 11  8 14  1 53  0.0000000  0  7G12G10G25G05G04G29G02
 -22962086.86748 -17877785.46946  20871121.2664                   20871117.8554
 -19702454.16847 -15338780.02745  21990701.7814                   21990698.8714
 -11729798.38748  -9124903.45746  22144492.1804                   22144491.8164
 -23437829.82848 -18247945.02047  20490986.8284                   20490983.7424
 -16721715.68747 -13013307.34443  23863648.8984                   23863647.6174
   1900899.91447   1493318.82444  24111213.2974                   24111212.4384
 -26811023.57048 -20876074.54746  21093667.3914                   21093662.3834
 11  8 14  1 53 30.0000000  0  7G12G10G25G05G04G29G02
 -22972854.00448 -17886175.43747  20869072.3134                   20869069.1374
 -19651893.77047 -15299382.31645  22000323.2584                   22000320.4534
 -11806427.71148  -9184614.55546  22129909.5474                   22129909.5394
 -23490779.94548 -18289204.82047  20480911.0394                   20480907.9144
 -16665059.27747 -12969159.48443  23874430.3524                   23874428.8594
   1793680.25846   1409771.09044  24090810.5164                   24090809.7894
 -26807374.34848 -20873230.98446  21094362.1024                   21094356.8204
 11  8 14  1 54  0.0000000  0  7G12G10G25G05G04G29G02
 -22983036.17648 -17894109.58246  20867134.5394                   20867131.5984
 -19600894.49647 -15259642.63745  22010027.8284                   22010025.3794
 -11882541.69148  -9243924.09446  22115425.8834                   22115425.3164
 -23543154.41048 -18330016.05147  20470944.1174                   20470941.2854
 -16608436.01647 -12925037.47344  23885205.1024                   23885203.3244
   1686420.10546   1326191.81344  24070399.4534                   24070398.8134
 -26803577.19948 -20870272.15646  21095084.4384                   21095079.5704
 11  8 14  1 54 30.0000000  0  7G12G10G25G05G04G29G02
 -22992636.01648 -17901589.96946  20865307.8984                   20865304.8524
 -19549460.88747 -15219564.50845  22019815.2504                   22019812.9534
 -11958140.40248  -9302832.12946  22101039.5164                   22101039.5434
 -23594954.41848 -18370379.66447  20461086.9144                   20461084.0474
 -16551848.32847 -12880943.14543  23895973.2664                   23895972.1764
   1579118.52046   1242580.25444  24049980.4924                   24049979.4884
 -26799634.89148 -20867200.21146  21095834.3914                   21095829.7894
 11  8 14  1 55  0.0000000  0  7G12G10G25G05G04G29G02
 -23001651.45348 -17908614.98046  20863592.4064                   20863589.0314
 -19497592.77747 -15179147.80945  22029685.4924                   22029683.1684
 -12033219.23448  -9361335.06646  22086752.5634                   22086752.4964
 -23646176.46948 -18410292.91447  20451339.7344                   20451336.6954
 -16495294.11347 -12836874.90643  23906735.2194                   23906734.2154
   1471779.12146   1158939.25044  24029553.8054                   24029553.8554
 -26795545.46148 -20864013.64146  21096612.7664                   21096607.9924
 11  8 14  1 55 30.0000000  0  7G12G10G25G05G04G29G02
 -23010087.40248 -17915188.44146  20861987.0164                   20861984.2624
 -19445297.48447 -15138398.25445  22039637.3524                   22039634.6294
 -12107781.25848  -9419435.30146  22072563.8444                   22072563.6524
 -23696825.06648 -18449759.32047  20441701.6254                   20441698.8054
 -16438778.61347 -12792836.84443  23917490.2114                   23917488.0314
   1364398.19146   1075265.83844  24009119.8984                   24009119.7074
 -26791314.40248 -20860716.69946  21097418.0234                   21097413.0234
 11  8 14  1 56  0.0000000  0  7G12G10G25G05G04G29G02
 -23017937.04348 -17921305.03546  20860493.3834                   20860490.2774
 -19392570.25047 -15097312.10545  22049670.8674                   22049668.5554
 -12181817.18448  -9477125.58246  22058475.2424                   22058474.9414
 -23746891.85248 -18488772.36347  20432174.2974                   20432170.9024
 -16382295.02747 -12748823.63744  23928237.7584                   23928236.4454
   1256984.54346    991567.03944  23988679.7344                   23988679.5904
 -26786935.09448 -20857304.24246  21098251.2424                   21098246.4774
 11  8 14  1 56 30.0000000  0  7G12G10G25G05G04G29G02
 -23025204.73048 -17926968.15647  20859110.0394                   20859107.2504
 -19339417.84047 -15055894.66045  22059785.3134                   22059782.9344
 -12255329.39548  -9534407.78546  22044486.4064                   22044486.1844
 -23796380.32848 -18527334.78547  20422756.9144                   20422753.9734
 -16325847.98047 -12704838.92243  23938979.9064                   23938978.7774
   1149534.80946    907840.05144  23968233.1724                   23968232.0824
 -26782412.32448 -20853779.99646  21099111.8284                   21099107.3134
 11  8 14  1 57  0.0000000  0  7G12G10G25G05G04G29G02
 -23031891.82448 -17932178.87146  20857837.5084                   20857834.3754
 -19285844.28147 -15014149.04745  22069980.1484                   22069977.3674
 -12328316.89148  -9591281.10946  22030597.3834                   22030597.0204
 -23845290.84448 -18565446.83647  20413449.3364                   20413446.1254
 -16269438.88747 -12660883.76643  23949714.5864                   23949713.0744
   1042049.11746    824085.09044  23947778.7424                   23947778.3364
 -26777747.78548 -20850145.28546  21099999.6954                   21099994.6994
 11  8 14  1 57 30.0000000  0  7G12G10G25G05G04G29G02
 -23038000.19548 -17936938.62946  20856675.3134                   20856672.2194
 -19231852.77747 -14972077.75845  22080254.9844                   22080251.4224
 -12400778.69548  -9647744.80946  22016808.3594                   22016808.5434
 -23893623.57848 -18603108.67247  20404252.0234                   20404249.3054
 -16213068.79747 -12616959.00443  23960441.3284                   23960440.0274
    934527.92647    740302.44944  23927318.3524                   23927317.6374
 -26772942.96548 -20846401.26246  21100913.9384                   21100909.1214
 11  8 14  1 58  0.0000000  0  7G12G10G25G05G04G29G02
 -23043527.28148 -17941245.43747  20855623.7424                   20855620.5354
 -19177442.65647 -14929680.26645  22090608.2584                   22090605.3794
 -12472709.97348  -9703795.11746  22003120.2974                   22003120.0904
 -23941374.88348 -18640317.45347  20395165.1414                   20395162.1174
 -16156735.16446 -12573062.64544  23971160.5634                   23971159.7304
    826975.76646    656495.68044  23906852.2194                   23906851.0274
 -26767995.42248 -20842546.03146  21101855.5084                   21101850.6024
 11  8 14  1 58 30.0000000  0  7G12G10G25G05G04G29G02
 -23048476.30548 -17945101.80946  20854681.8364                   20854678.3984
 -19122619.08647 -14886960.59845  22101040.9224                   22101038.0234
 -12544111.39848  -9759432.55546  21989532.8054                   21989532.7584
 -23988546.68048 -18677074.67247  20386188.3364                   20386185.2894
 -16100440.98846 -12529197.07043  23981873.0864                   23981872.4964
    719390.75847    572663.32844  23886379.4614                   23886377.9614
 -26762908.16448 -20838581.92646  21102823.6724                   21102818.7504
 11  8 14  1 59  0.0000000  0  7G12G10G25G05G04G29G02
 -23052848.19148 -17948508.46946  20853849.9924                   20853846.7664
 -19067385.71147 -14843921.61345  22111551.5474                   22111548.4844
 -12614982.12548  -9814656.46146  21976046.5234                   21976046.5824
 -24035139.34448 -18713380.61747  20377322.3594                   20377318.9144
 -16044187.37146 -12485363.10943  23992578.5474                   23992576.5864
    611773.16846    488805.58244  23865899.9534                   23865899.3244
 -26757682.83648 -20834510.22746  21103817.6884                   21103813.0784
 11  8 14  1 59 30.0000000  0  7G12G10G25G05G04G29G02
 -23056641.75448 -17951464.48846  20853127.9774                   20853125.0434
 -19011742.12547 -14800562.97745  22122140.1954                   22122137.2424
 -12685317.97348  -9869463.58246  21962662.1254                   21962661.9144
 -24081150.03548 -18749233.08247  20368566.9454                   20368563.5744
 -15987972.25046 -12441559.13743  24003275.8134                   24003274.4924
    504126.81647    404925.42244  23845415.2424                   23845414.1644
 -26752317.76248 -20830329.65246  21104838.8914                   21104833.7854
 11  8 14  2  0  0.0000000  0  7G12G10G25G05G04G29G02
 -23059860.32048 -17953972.44946  20852515.6174                   20852512.1094
 -18955694.27047 -14756889.32845  22132805.9064                   22132802.6454
 -12755120.09448  -9923854.81646  21949379.2424                   21949378.8054
 -24126580.76648 -18784633.62547  20359921.5704                   20359918.3484
 -15931799.00446 -12397787.79743  24013964.5234                   24013963.4144
    396449.94147    321021.48044  23824925.3984                   23824923.7304
 -26746816.10548 -20826042.62946  21105885.8054                   21105880.5784
 11  8 14  2  0 30.0000000  0  7G12G10G25G05G04G29G02
 -23062502.58648 -17956031.35247  20852012.5314                   20852009.4344
 -18899242.96947 -14712901.29745  22143547.9384                   22143544.7034
 -12824384.98448  -9977827.42646  21936198.2424                   21936198.0904
 -24171429.57048 -18819580.72347  20351387.0164                   20351383.5744
 -15875666.22346 -12354047.97343  24024646.9774                   24024644.8954
    288745.67247    237096.18044  23804429.8984                   23804428.0634
 -26741176.82048 -20821648.37146  21106958.8594                   21106953.8874
 11  8 14  2  1  0.0000000  0  7G12G10G25G05G04G29G02
 -23064570.26648 -17957642.52746  20851619.1884                   20851615.8284
 -18842391.53947 -14668601.48045  22154366.2664                   22154363.5594
 -12893111.84448 -10031380.79746  21923119.8444                   21923120.0434
 -24215696.68748 -18854074.55547  20342963.5474                   20342960.1644
 -15819575.10246 -12310340.61344  24035320.1884                   24035319.3714
    181014.28947    153149.76644  23783929.1484                   23783927.7704
 -26735401.65248 -20817148.23846  21108057.8834                   21108052.5864
 11  8 14  2  1 30.0000000  0  7G12G10G25G05G04G29G02
 -23066065.41048 -17958807.57446  20851334.5864                   20851331.3674
 -18785144.07047 -14623993.05545  22165260.0394                   22165257.3554
 -12961300.32848 -10084514.65246  21910144.3674                   21910143.8914
 -24259383.08248 -18888115.87547  20334649.9694                   20334646.9064
 -15763527.18447 -12266666.91043  24045986.2894                   24045984.8164
     73255.14147     69181.69544  23763422.8674                   23763421.4534
 -26729492.14548 -20812543.40646  21109182.2274                   21109177.6294
 11  8 14  2  2  0.0000000  0  7G12G10G25G05G04G29G02
 -23066985.33648 -17959524.39546  20851159.7424                   20851156.4104
 -18727500.25447 -14579075.78545  22176229.6564                   22176226.4454
 -13028945.56648 -10137225.20746  21897271.9384                   21897271.6994
 -24302485.11348 -18921701.85247  20326447.9454                   20326444.7034
 -15707519.79347 -12223024.76643  24056644.3594                   24056642.4064
    -34526.50047    -14803.89544  23742912.8204                   23742911.1954
 -26723446.15248 -20807832.24646  21110332.7344                   21110327.5824
 11  8 14  2  2 30.0000000  0  7G12G10G25G05G04G29G02
 -23067333.16448 -17959795.42646  20851093.2894                   20851090.2344
 -18669464.21947 -14533852.89845  22187273.0944                   22187270.3634
 -13096047.88748 -10189512.70746  21884502.7034                   21884502.2664
 -24345004.46148 -18954833.78147  20318356.8444                   20318353.4774
 -15651554.96546 -12179415.79343  24067293.4614                   24067291.9494
   -142331.46147    -98807.66044  23722397.7814                   23722396.4804
 -26717265.92648 -20803016.46946  21111508.9144                   21111503.6454
 11  8 14  2  3  0.0000000  0  7G12G10G25G05G04G29G02
 -23067111.82048 -17959622.94546  20851135.5784                   20851132.3914
 -18611040.98047 -14488328.29745  22198390.4614                   22198387.9454
 -13162607.90648 -10241377.63346  21871836.7114                   21871836.3754
 -24386942.95348 -18987513.09847  20310376.1484                   20310372.9384
 -15595635.50046 -12135842.13343  24077934.4614                   24077932.5204
   -250160.87147   -182830.48044  23701878.6724                   23701877.5634
 -26710954.47348 -20798098.43746  21112709.5634                   21112704.4264
 11  8 14  2  3 30.0000000  0  7G12G10G25G05G04G29G02
 -23066321.52048 -17959007.12546  20851285.8444                   20851282.8594
 -18552232.84847 -14442503.78145  22209581.6174                   22209578.7074
 -13228623.54748 -10292818.37546  21859274.2664                   21859274.0984
 -24428299.76248 -19019739.15647  20302506.3914                   20302503.1374
 -15539760.95346 -12092303.50043  24088567.4844                   24088565.2344
   -358013.00047   -266871.01644  23681355.2194                   23681353.7624
 -26704511.37547 -20793077.83246  21113935.7734                   21113931.3794
 11  8 14  2  4  0.0000000  0  7G12G10G25G05G04G29G02
 -23064962.15248 -17957947.87946  20851544.6564                   20851541.4614
 -18493041.26247 -14396380.46145  22220845.7894                   22220842.5004
 -13294091.98848 -10343832.72346  21846815.9534                   21846815.8284
 -24469073.30148 -19051510.71547  20294747.2034                   20294744.1564
 -15483930.43046 -12048799.14843  24099191.4064                   24099189.7034
   -465885.40647   -350927.35944  23660827.4064                   23660826.5434
 -26697936.16448 -20787954.27346  21115186.8984                   21115181.7584
 11  8 14  2  4 30.0000000  0  7G12G10G25G05G04G29G02
 -23063034.05548 -17956445.46146  20851911.5864                   20851908.4964
 -18433468.77747 -14349960.34045  22232181.5004                   22232179.1334
 -13359011.56248 -10394419.37946  21834462.2424                   21834461.8794
 -24509263.24248 -19082827.53547  20287099.5314                   20287096.4774
 -15428144.25446 -12005329.35543  24109806.8204                   24109805.5634
   -573776.76647   -434998.47344  23640296.4924                   23640295.3404
 -26691229.56248 -20782728.32846  21116463.2274                   21116458.1294
 11  8 14  2  5  0.0000000  0  7G12G10G25G05G04G29G02
 -23060539.10948 -17954501.33646  20852386.5164                   20852383.4614
 -18373518.53947 -14303245.87145  22243589.9534                   22243586.9414
 -13423381.47348 -10444577.73046  21822213.2034                   21822212.5704
 -24548869.99648 -19113689.90647  20279562.3594                   20279559.0864
 -15372403.52746 -11961895.01643  24120413.9064                   24120412.8834
   -681685.94147   -519083.47744  23619761.7344                   23619761.0164
 -26684392.52748 -20777400.75846  21117764.6724                   21117759.3874
 11  8 14  2  5 30.0000000  0  7G12G10G25G05G04G29G02
 -23057479.12148 -17952116.93046  20852968.5234                   20852965.2274
 -18313193.95347 -14256239.69545  22255069.2584                   22255066.4104
 -13487201.02748 -10494307.23846  21810068.8054                   21810068.2154
 -24587894.26648 -19144098.40247  20272136.5004                   20272132.8404
 -15316709.15246 -11918496.78143  24131012.0704                   24131010.3404
   -789612.92647   -603182.37944  23599224.0944                   23599223.1094
 -26677426.60248 -20771972.73846  21119089.7504                   21119084.6414
 11  8 14  2  6  0.0000000  0  7G12G10G25G05G04G29G02
 -23053855.50848 -17949293.33246  20853658.3834                   20853655.0664
 -18252498.32447 -14208944.39845  22266619.0864                   22266616.7854
 -13550469.31248 -10543607.18046  21798029.1804                   21798028.5824
 -24626336.17648 -19174053.09847  20264820.8834                   20264817.7854
 -15261061.78546 -11875135.18443  24141601.5314                   24141599.8244
   -897556.86747   -687294.47744  23578682.7274                   23578681.8554
 -26670332.82848 -20766445.10546  21120439.7194                   21120435.0204
 11  8 14  2  6 30.0000000  0  7G12G10G25G05G04G29G02
 -23049668.28548 -17946030.55146  20854455.0784                   20854451.9264
 -18191433.52347 -14161361.42645  22278239.8524                   22278237.0084
 -13613183.85548 -10592475.63746  21786094.8134                   21786094.2504
 -24664194.57447 -19203553.11347  20257616.7274                   20257613.6334
 -15205460.84046 -11831809.73843  24152182.5234                   24152180.2304
  -1005515.24247   -771417.83245  23558139.1644                   23558138.2424
 -26663110.75048 -20760817.49246  21121814.0554                   21121808.7154
 11  8 14  2  7  0.0000000  0  7G12G10G25G05G04G29G02
 -23044918.60248 -17942329.50046  20855358.7274                   20855355.9224
 -18130002.41047 -14113493.03945  22289929.0944                   22289926.5004
 -13675343.36348 -10640911.59446  21774266.2894                   21774265.7974
 -24701469.87148 -19232598.76247  20250523.5474                   20250520.2664
 -15149906.76246 -11788520.84843  24162753.6724                   24162752.0784
  -1113486.96947   -855551.60545  23537593.3834                   23537592.0824
 -26655761.04348 -20755090.43046  21123212.6414                   21123207.6914
 11  8 14  2  7 30.0000000  0  7G12G10G25G05G04G29G02
 -23039606.47748 -17938190.17246  20856369.7344                   20856366.6254
 -18068206.99647 -14065340.78545  22301688.7814                   22301686.2934
 -13736945.81648 -10688913.48446  21762543.4144                   21762543.3954
 -24738160.85248 -19261189.10547  20243541.3984                   20243538.3054
 -15094399.12146 -11745268.14143  24173316.7194                   24173314.7464
  -1221470.13347   -939694.28145  23517044.0554                   23517043.1174
 -26648283.31248 -20749263.60546  21124635.6884                   21124630.4494
 11  8 14  2  8  0.0000000  0  7G12G10G25G05G04G29G02
 -23033735.32047 -17933615.24246  20857486.7114                   20857483.6334
 -18006051.69147 -14016908.09045  22313516.7274                   22313513.8674
 -13797991.58648 -10736481.59446  21750927.1564                   21750926.5904
 -24774269.29748 -19289325.52347  20236670.1724                   20236667.3554
 -15038939.94146 -11702053.15244  24183870.0634                   24183868.9734
  -1329465.02047  -1023846.08644  23496493.6484                   23496492.6914
 -26640680.16047 -20743339.04346  21126082.3444                   21126077.0394
 11  8 14  2  8 30.0000000  0  7G12G10G25G05G04G29G02
 -23027304.84848 -17928604.48046  20858710.2344                   20858707.2154
 -17943537.93447 -13968196.08645  22325412.5554                   22325409.9694
 -13858478.20748 -10783614.00846  21739416.5634                   21739416.0514
 -24809794.09448 -19317007.14847  20229909.8674                   20229906.7734
 -14983528.26246 -11658875.22743  24194415.2274                   24194412.8444
  -1437469.25447  -1108005.18444  23475940.7734                   23475939.6054
 -26632951.02748 -20737316.32446  21127552.8674                   21127547.8364
 11  8 14  2  9  0.0000000  0  7G12G10G25G05G04G29G02
 -23020318.65248 -17923160.68446  20860040.0084                   20860036.9614
 -17880671.47747 -13919209.26245  22337375.4384                   22337373.5514
 -13918407.16048 -10830311.86746  21728012.5634                   21728012.4344
 -24844737.97347 -19344236.11347  20223260.7034                   20223257.2734
 -14928167.22746 -11615736.75443  24204949.8364                   24204948.4184
  -1545484.24647  -1192172.65644  23455386.3834                   23455384.4924
 -26625099.23048 -20731198.02346  21129047.3284                   21129042.2664
 11  8 14  2  9 30.0000000  0  7G12G10G25G05G04G29G02
 -23012776.92648 -17917284.01246  20861474.8674                   20861471.8554
 -17817453.62947 -13869948.62945  22349405.6884                   22349403.3714
 -13977775.77748 -10876573.09846  21716715.3444                   21716715.1054
 -24879099.47748 -19371011.28147  20216721.5554                   20216718.4844
 -14872855.48446 -11572636.69943  24215475.5394                   24215473.5314
  -1653507.30147  -1276346.41044  23434829.8444                   23434828.9184
 -26617123.62948 -20724983.24646  21130565.1884                   21130559.6764
 11  8 14  2 10  0.0000000  0  7G12G10G25G05G04G29G02
 -23004679.83648 -17910974.59446  20863015.9304                   20863012.6564
 -17753886.04347 -13820415.44945  22361501.7114                   22361500.0164
 -14036581.78148 -10922395.93046  21705524.7114                   21705524.4344
 -24912877.59447 -19397331.85547  20210293.6724                   20210290.5634
 -14817592.53546 -11529574.62143  24225990.9064                   24225990.0124
  -1761535.94147  -1360524.52344  23414272.9614                   23414271.8484
 -26609023.94148 -20718671.77746  21132106.5004                   21132101.3794
 11  8 14  2 10 30.0000000  0  8G12G10G26G25G05G04G29G02
 -22996030.09048 -17904234.53146  20864661.9614                   20864658.7034
 -17689972.84447 -13770612.99245  22373664.4304                   22373661.7544
   6127685.80556   4788520.34453  24737680.5784                   24737678.9654
 -14094825.37948 -10967780.52746  21694441.3594                   21694440.8554
 -24946074.25447 -19423199.35247  20203976.5314                   20203973.7664
 -14762379.91046 -11486551.79743  24236498.2894                   24236496.0864
  -1869570.24647  -1444707.02344  23393714.4924                   23393713.2934
 -26600802.18048 -20712265.18446  21133670.8984                   21133665.9414
 11  8 14  2 11  0.0000000  0  8G12G10G26G25G05G04G29G02
 -22986835.10248 -17897069.60546  20866411.5554                   20866408.5434
 -17625722.99647 -13720548.19545  22385891.0164                   22385888.1174
   6009744.98846   4696618.50043  24715237.1024                   24715235.6214
 -14152511.62548 -11012730.82446  21683464.3054                   21683463.3754
 -24978695.46548 -19448618.44547  20197768.9224                   20197765.8164
 -14707224.13746 -11443573.27043  24246993.9064                   24246991.5634
  -1977615.11347  -1528897.77744  23373154.3914                   23373153.0784
 -26592464.99648 -20705768.65246  21135257.4774                   21135252.0164
 11  8 14  2 11 30.0000000  0  8G12G10G26G25G05G04G29G02
 -22977101.39148 -17889484.89546  20868263.6954                   20868260.7424
 -17561144.74247 -13670227.49245  22398179.7114                   22398176.7234
   5891670.04746   4604612.15643  24692768.0864                   24692766.9654
 -14209644.53148 -11057249.94546  21672592.0704                   21672591.7194
 -25010746.45747 -19473593.21547  20191669.9224                   20191666.7464
 -14652130.55146 -11400643.17643  24257477.7194                   24257475.2894
  -2085674.41047  -1613099.73844  23352591.3834                   23352589.7194
 -26584018.18448 -20699186.69546  21136864.8594                   21136859.4884
 11  8 14  2 12  0.0000000  0  8G12G10G26G25G05G04G29G02
 -22966826.79348 -17881478.70746  20870218.9694                   20870215.7034
 -17496237.66447 -13619650.56245  22410531.4844                   22410528.1094
   5773467.14846   4512506.06343  24670274.6334                   24670273.6524
 -14266219.64148 -11101334.41446  21661826.1414                   21661825.8094
 -25042224.40648 -19498121.46147  20185679.7424                   20185676.6334
 -14597096.13746 -11357759.23843  24267950.4064                   24267947.9614
  -2193743.39547  -1697309.26644  23332025.9304                   23332024.7934
 -26575458.94148 -20692517.13346  21138493.3594                   21138487.9694
 11  8 14  2 12 30.0000000  0  8G12G10G26G25G05G04G29G02
 -22956012.46548 -17873051.96146  20872276.9224                   20872273.6604
 -17431004.03547 -13568819.17245  22422945.1094                   22422942.0634
   5655139.37146   4420302.68043  24647758.1804                   24647756.9494
 -14322235.70748 -11144983.27046  21651166.6804                   21651166.0084
 -25073129.24247 -19522203.12147  20179798.7424                   20179795.8404
 -14542120.85246 -11314921.34043  24278412.2114                   24278408.8324
  -2301820.67247  -1781525.24644  23311459.7664                   23311458.1454
 -26566787.48448 -20685760.12546  21140143.6804                   21140138.1954
 11  8 14  2 13  0.0000000  0  8G12G10G26G25G05G04G29G02
 -22944656.31248 -17864203.00446  20874438.1254                   20874434.6764
 -17365443.39146 -13517732.98844  22435420.5634                   22435418.0984
   5536693.04345   4328006.94543  24625218.1804                   24625216.6054
 -14377688.21148 -11188192.98846  21640614.2974                   21640614.3094
 -25103457.62548 -19545835.60547  20174027.3754                   20174024.0904
 -14487201.68746 -11272127.17243  24288862.7274                   24288860.2624
  -2409901.29747  -1865743.82844  23290892.6174                   23290891.3554
 -26558001.40248 -20678913.81246  21141815.4224                   21141810.4344
 11  8 14  2 13 30.0000000  0  8G12G10G26G25G05G04G29G02
 -22932755.05148 -17854929.29346  20876702.7504                   20876699.6914
 -17299554.05147 -13466390.67245  22447959.0864                   22447956.3364
   5418135.73045   4235624.73043  24602657.4614                   24602655.6054
 -14432571.50048 -11230959.16046  21630170.6254                   21630169.9454
 -25133205.32048 -19569015.59847  20168366.8754                   20168363.4964
 -14432334.06246 -11229373.14543  24299303.6254                   24299301.5634
  -2517979.19547  -1949960.28545  23270326.5554                   23270324.8444
 -26549096.16848 -20671974.65246  21143510.3754                   21143505.1764
 11  8 14  2 14  0.0000000  0  8G12G10G26G25G05G04G29G02
 -22920314.77048 -17845235.56646  20879069.9614                   20879067.0474
 -17233342.53547 -13414797.30144  22460558.6954                   22460555.6254
   5299466.66845   4143155.42243  24580075.6414                   24580073.4024
 -14486888.64848 -11273284.17646  21619834.0554                   21619833.6844
 -25162376.47748 -19591746.34047  20162815.6484                   20162812.4344
 -14377522.37947 -11186662.72343  24309733.6024                   24309731.5514
  -2626057.18747  -2034176.82444  23249759.6644                   23249757.8094
 -26540076.11748 -20664946.02346  21145226.6804                   21145221.5864
 11  8 14  2 14 30.0000000  0  8G12G10G26G25G05G04G29G02
 -22907333.50048 -17835120.28946  20881540.1414                   20881537.2814
 -17166809.21547 -13362953.17645  22473218.9844                   22473216.8594
   5180691.79346   4050603.67243  24557472.5314                   24557471.6334
 -14540635.70748 -11315164.97346  21609606.3204                   21609606.0474
 -25190968.74248 -19614026.00047  20157374.5944                   20157371.4574
 -14322763.96546 -11143993.84043  24320153.8914                   24320151.4884
  -2734130.89547  -2118390.02045  23229194.2274                   23229192.0274
 -26530939.31248 -20657826.41846  21146965.3834                   21146960.4964
 11  8 14  2 15  0.0000000  0  8G12G10G26G25G05G04G29G02
 -22893813.59448 -17824585.29346  20884113.3134                   20884110.1524
 -17099957.42647 -13310860.90645  22485940.7114                   22485938.3914
   5061813.09846   3957971.05143  24534850.6024                   24534849.6214
 -14593812.51248 -11356601.41846  21599487.2584                   21599486.5944
 -25218983.30948 -19635855.50447  20152043.1954                   20152040.1724
 -14268059.73047 -11101367.14843  24330563.4614                   24330562.2894
  -2842199.54347  -2202599.27345  23208628.8914                   23208627.3984
 -26521686.87948 -20650616.71146  21148725.8754                   21148720.6644
 11  8 14  2 15 30.0000000  0  8G12G10G26G25G05G04G29G02
 -22879756.43448 -17813631.66046  20886788.1254                   20886785.1054
 -17032789.84847 -13258522.55544  22498721.8984                   22498719.2734
   4942833.76646   3865259.96943  24512209.7584                   24512208.3834
 -14646418.00848 -11397592.69146  21589476.6024                   21589476.1024
 -25246420.29347 -19657234.94947  20146822.4224                   20146819.2814
 -14213409.88347 -11058782.84043  24340963.7034                   24340961.6174
  -2950261.82447  -2286803.55945  23188065.4384                   23188063.5084
 -26512319.35948 -20643317.32446  21150508.5474                   21150503.4694
 11  8 14  2 16  0.0000000  0  8G12G10G26G25G05G04G29G02
 -22865162.68448 -17802259.90246  20889565.2034                   20889561.9694
 -16965308.29747 -13205939.54344  22511563.9614                   22511560.8714
   4823757.62846   3772473.51243  24489550.1024                   24489548.8754
 -14698450.39848 -11438137.37946  21579575.1724                   21579574.9574
 -25273279.06648 -19678163.83247  20141711.4924                   20141708.2384
 -14158813.60547 -11016240.28543  24351352.5784                   24351351.1214
  -3058315.37947  -2371001.03545  23167503.3364                   23167501.7424
 -26502836.13347 -20635927.78146  21152312.9534                   21152307.7154
 11  8 14  2 16 30.0000000  0  8G12G10G26G25G05G04G29G02
 -22850034.43448 -17790471.64846  20892443.8284                   20892440.8404
 -16897516.57846 -13153114.85244  22524464.0394                   22524461.2464
   4704587.47346   3679613.67243  24466872.9774                   24466871.5204
 -14749909.39548 -11478235.27046  21569782.9774                   21569782.4654
 -25299560.94148 -19698643.19147  20136710.2424                   20136706.8914
 -14104271.75847 -10973740.11343  24361731.4064                   24361730.3324
  -3166359.29747  -2455191.00045  23146943.0084                   23146941.6174
 -26493238.45347 -20628449.04346  21154139.4144                   21154133.9184
 11  8 14  2 17  0.0000000  0  8G12G10G26G25G05G04G29G02
 -22834373.32848 -17778268.18046  20895424.2344                   20895421.1134
 -16829417.30146 -13100050.50044  22537422.7504                   22537419.9774
   4585325.94946   3586682.69943  24444178.3364                   24444177.1374
 -14800794.10248 -11517885.65646  21560099.7894                   21560099.1094
 -25325266.29748 -19718673.31247  20131818.4454                   20131815.4304
 -14049784.35547 -10931282.36343  24372100.5314                   24372098.5784
  -3274392.28147  -2539372.43445  23126385.3444                   23126383.2114
 -26483526.68748 -20620881.41846  21155987.6644                   21155982.3794
 11  8 14  2 17 30.0000000  0  8G12G10G26G25G05G04G29G02
 -22818181.11348 -17765650.87146  20898505.3984                   20898502.0164
 -16761013.34046 -13046748.73444  22550439.6254                   22550436.9224
   4465976.09047   3493682.88343  24421466.7504                   24421465.2504
 -14851103.78548 -11557087.98846  21550526.2194                   21550525.3244
 -25350395.64848 -19738254.59847  20127036.4384                   20127033.3794
 -13995352.00846 -10888867.51643  24382457.6564                   24382456.6764
  -3382412.84447  -2623544.16845  23105829.6414                   23105827.7934
 -26473701.35948 -20613225.29746  21157857.1094                   21157851.9804
 11  8 14  2 18  0.0000000  0  8G12G10G26G25G05G04G29G02
 -22801457.45748 -17752619.44946  20901687.8204                   20901684.6844
 -16692305.76646 -12993210.39544  22563514.2664                   22563511.2424
   4346542.80547   3400618.03543  24398739.3364                   24398737.8554
 -14900836.02748 -11595840.34846  21541062.3364                   21541061.9964
 -25374947.73448 -19757386.06647  20122364.4304                   20122361.2934
 -13940972.94146 -10846494.21943  24392806.3204                   24392804.8094
  -3490417.81646  -2707703.74245  23085276.8674                   23085275.0704
 -26463761.25848 -20605479.74646  21159748.9064                   21159743.5704
 11  8 14  2 18 30.0000000  0  8G12G10G26G25G05G04G29G02
 -21208786.45748 -16511577.10546  21204763.1954                   21204760.2194
 -15047881.34846 -11711840.74244  22876437.7814                   22876435.0314
   5802451.47347   4535092.37543  24675789.2974                   24675787.4344
 -13374569.83248 -10406541.98446  21831501.0004                   21831500.4734
 -23823503.89848 -18548468.75847  20417594.4534                   20417591.0514
 -12311230.73446  -9576565.20343  24702935.1564                   24702933.9964
  -2022983.63347  -1564248.39545  23364519.7814                   23364518.1604
 -24878288.81647 -19370046.65246  21461454.2114                   21461448.8594
 11  8 14  2 19  0.0000000  0  8G12G10G26G25G05G04G29G02
 -21191008.27348 -16497723.97746  21208146.2344                   21208143.1914
 -14978577.84047 -11657838.03544  22889625.9844                   22889622.7584
   5682857.56646   4441902.39843  24653031.3524                   24653029.5274
 -13423147.46548 -10444394.66446  21822257.1724                   21822256.7074
 -23846906.09848 -18566704.21147  20413141.1334                   20413138.0594
 -12256961.71546  -9534277.65243  24713262.4774                   24713261.1804
  -2130955.64147  -1648382.28945  23343973.3594                   23343972.0354
 -24868123.68747 -19362125.75446  21463388.5554                   21463383.5394
 11  8 14  2 19 30.0000000  0  8G12G10G26G25G05G04G29G02
 -21172702.80148 -16483459.96946  21211629.6724                   21211626.5314
 -14908978.64147 -11603604.89845  22902870.7344                   22902867.3324
   5563190.07847   4348655.05943  24630259.9454                   24630257.4024
 -13471144.72748 -10481795.10246  21813123.4694                   21813122.9344
 -23869732.05948 -18584490.64847  20408797.4534                   20408794.3134
 -12202745.86346  -9492031.52743  24723580.0944                   24723578.3204
  -2238907.15247  -1732500.19945  23323430.5634                   23323428.6764
 -24857844.71547 -19354116.14146  21465344.4924                   21465339.4924
 11  8 14  2 20  0.0000000  0  8G12G10G26G25G05G04G29G02
 -21153875.05548 -16468788.99246  21215212.6094                   21215209.2704
 -14839089.56247 -11549145.89544  22916169.9144                   22916167.0354
   5443449.32446   4255350.66443  24607473.8204                   24607471.4184
 -13518563.71148 -10518744.93046  21804099.9224                   21804099.4024
 -23891985.27348 -18601830.78947  20404562.7584                   20404559.9534
 -12148586.10246  -9449829.09843  24733886.6174                   24733883.9344
  -2346839.46147  -1816603.16845  23302891.8674                   23302890.2504
 -24847455.15247 -19346020.35946  21467321.3754                   21467316.4064
 11  8 14  2 20 30.0000000  0  8G12G10G26G25G05G04G29G02
 -21134525.82448 -16453711.67246  21218894.6094                   21218891.2934
 -14768911.97747 -11494462.07844  22929524.3054                   22929521.5084
   5323639.27746   4161992.23843  24584674.4774                   24584672.1724
 -13565402.65648 -10555242.78946  21795186.7194                   21795186.5634
 -23913665.42648 -18618724.38747  20400437.2194                   20400433.8714
 -12094481.65246  -9407669.74643  24744181.9384                   24744179.9104
  -2454750.03546  -1900689.20745  23282357.1564                   23282355.2934
 -24836954.20347 -19337837.78946  21469319.6954                   21469314.6454
 11  8 14  2 21  0.0000000  0  8G12G10G26G25G05G04G29G02
 -21114656.46148 -16438229.04746  21222675.3284                   21222672.3364
 -14698448.94147 -11439555.82444  22942932.6644                   22942930.0744
   5203763.21946   4068582.41043  24561863.2504                   24561860.3674
 -13611660.93448 -10591288.17246  21786384.1024                   21786383.8594
 -23934773.07048 -18635171.87147  20396420.1644                   20396417.3874
 -12040432.72346  -9365553.70743  24754466.8444                   24754464.8834
  -2562637.10246  -1984756.92245  23261826.9224                   23261825.1994
 -24826342.32847 -19329568.77746  21471339.0164                   21471333.7344
 11  8 14  2 21 30.0000000  0  8G12G10G26G25G05G04G29G02
 -21094268.80148 -16422342.55546  21226555.0394                   21226552.1134
 -14627703.16046 -11384429.25844  22956395.4694                   22956392.4574
   5083824.60246   3975123.81643  24539039.2894                   24539036.4064
 -13657337.71548 -10626880.44146  21777691.8674                   21777691.3874
 -23955308.70748 -18651173.64147  20392512.7274                   20392509.3284
 -11986438.99646  -9323480.67643  24764741.6564                   24764739.2194
  -2670499.11746  -2068805.14145  23241301.0314                   23241299.1054
 -24815619.95747 -19321213.66846  21473379.2814                   21473374.1094
 11  8 14  2 22  0.0000000  0  8G12G10G26G25G05G04G29G02
 -21073366.87548 -16406055.33646  21230532.3284                   21230529.1884
 -14556679.95346 -11329086.51644  22969911.0164                   22969907.8914
   4963824.02346   3881616.96543  24516202.9534                   24516201.5274
 -13702434.72748 -10662020.94146  21769110.3204                   21769109.8954
 -23975275.28548 -18666731.98047  20388713.0944                   20388709.6484
 -11932503.19146  -9281452.79343  24775005.8984                   24775002.4494
  -2778337.07047  -2152834.63345  23220780.2114                   23220778.3324
 -24804789.81647 -19312774.58246  21475440.3054                   21475435.4774
 11  8 14  2 22 30.0000000  0  8G12G10G26G25G05G04G29G02
 -21051952.75448 -16389369.00046  21234607.6414                   21234604.3834
 -14485382.46946 -11273530.04344  22983477.9694                   22983475.2894
   4843764.23046   3788064.00043  24493356.3364                   24493355.0234
 -13746951.89848 -10696709.62146  21760639.1174                   21760638.8714
 -23994673.91847 -18681847.77047  20385021.5864                   20385018.3754
 -11878625.77746  -9239470.32443  24785257.7034                   24785255.3834
  -2886149.56246  -2236844.28545  23200263.9924                   23200262.2154
 -24793852.57847 -19304252.03946  21477521.5944                   21477515.9344
 11  8 14  2 23  0.0000000  0  7G12G10G26G25G05G29G02
 -21030027.44948 -16372284.34446  21238779.7114                   21238776.4884
 -14413812.21546 -11217761.03544  22997097.6644                   22997094.3674
   4723649.45746   3694468.20343  24470499.5784                   24470497.7114
 -13790887.57048 -10730945.19546  21752278.3984                   21752277.5204
 -24013504.44548 -18696520.88347  20381438.3834                   20381435.1914
  -2993934.06247  -2320832.14845  23179753.3594                   23179751.4344
 -24782807.87948 -19295645.77046  21479623.2814                   21479618.1914
 11  8 14  2 23 30.0000000  0  7G12G10G26G25G05G29G02
 -21007592.94548 -16354802.91046  21243048.7814                   21243045.8444
 -14341972.18046 -11161781.81244  23010768.1954                   23010765.6094
   4603482.94946   3600832.03943  24447632.0784                   24447631.3244
 -13834241.15648 -10764727.18046  21744028.3914                   21744027.9924
 -24031767.62148 -18710751.90247  20377962.6174                   20377959.6214
  -3101689.12947  -2404797.07445  23159247.8834                   23159246.2074
 -24771656.00447 -19286955.97346  21481745.1094                   21481739.8404
 11  8 14  2 24  0.0000000  0  7G12G10G26G25G05G29G02
 -20984641.77048 -16336918.87546  21247416.0474                   21247413.4144
 -14269856.06646 -11105587.46144  23024491.4534                   23024488.6294
   4483277.16846   3507165.35243  24424757.9534                   24424756.9494
 -13877002.97748 -10798048.05946  21735890.9534                   21735890.4964
 -24049454.98048 -18724534.23847  20374596.9384                   20374594.0234
  -3209403.85947  -2488730.59045  23138750.8914                   23138748.9024
 -24760387.95747 -19278175.65646  21483889.4224                   21483884.4264
 11  8 14  2 24 30.0000000  0  7G12G10G26G25G05G29G02
 -20961172.44548 -16318631.09046  21251882.5164                   21251879.3324
 -14197463.43046 -11049177.63744  23038267.1414                   23038264.4774
   4363038.25446   3413472.80943  24401877.0084                   24401876.4654
 -13919169.40648 -10830904.99246  21727867.0234                   21727866.3754
 -24066564.38748 -18737866.21147  20371341.0704                   20371338.1524
  -3317073.44947  -2572628.94145  23118262.0234                   23118259.9264
 -24749000.94947 -19269302.65646  21486056.4064                   21486051.3984
 11  8 14  2 25  0.0000000  0  7G12G10G26G25G05G29G02
 -20937190.69148 -16299944.00046  21256446.1414                   21256442.9024
 -14124800.87146 -10992557.49244  23052094.6414                   23052092.1804
   4242765.98047   3319754.26243  24378989.8984                   24378988.7194
 -13960743.53148 -10863300.38346  21719955.8444                   21719955.0004
 -24083099.90247 -18750751.00447  20368194.6644                   20368191.3284
  -3424699.77347  -2656493.59845  23097781.4614                   23097779.1884
 -24737498.93448 -19260340.02746  21488245.2274                   21488239.9614
 11  8 14  2 25 30.0000000  0  7G12G10G26G25G05G29G02
 -20912701.21148 -16280861.28546  21261106.1414                   21261103.0004
 -14051873.69146 -10935731.13744  23065972.3594                   23065969.9844
   4122461.00447   3226010.23844  24356096.9064                   24356095.5594
 -14001727.71548 -10895236.08646  21712156.5944                   21712156.1174
 -24099065.19148 -18763191.46147  20365156.4774                   20365153.4384
  -3532284.07847  -2740325.49645  23077308.7974                   23077306.8874
 -24725885.27048 -19251290.39546  21490455.3134                   21490450.0084
 11  8 14  2 26  0.0000000  0  7G12G10G26G25G05G29G02
 -20887709.31248 -16261387.08246  21265861.8594                   21265858.6604
 -13978688.25446 -10878703.54344  23079898.9224                   23079896.8054
   4002122.61347   3132240.14844  24333197.6174                   24333195.6804
 -14042125.16848 -10926714.60246  21704468.9774                   21704468.8874
 -24114465.09848 -18775191.36747  20362225.9064                   20362222.7624
  -3639828.42247  -2824126.26645  23056843.6484                   23056841.6564
 -24714163.84848 -19242156.79746  21492685.6954                   21492680.2504
 11  8 14  2 26 30.0000000  0  7G12G10G26G25G05G29G02
 -20862215.53548 -16241521.78946  21270713.0864                   21270710.0274
 -13905245.62147 -10821475.53544  23093874.5004                   23093872.2774
   3881755.85547   3038447.98044  24310291.8284                   24310290.5594
 -14081933.80548 -10957734.29746  21696893.9384                   21696893.4104
 -24129298.58248 -18786749.90647  20359403.0784                   20359399.8404
  -3747329.51647  -2907893.32045  23036387.0004                   23036385.1884
 -24702333.30148 -19232938.16446  21494936.7974                   21494931.4694
 11  8 14  2 27  0.0000000  0  7G12G10G26G25G05G29G02
 -20836223.19548 -16221268.01246  21275659.3914                   21275656.4844
 -13831550.21546 -10764050.55944  23107898.6174                   23107896.2544
   3761362.62147   2944635.15244  24287382.4224                   24287379.8984
 -14121154.77348 -10988296.07046  21689430.7034                   21689429.7154
 -24143567.62548 -18797868.62147  20356687.6094                   20356684.7734
  -3854787.03147  -2991626.41445  23015937.9454                   23015936.6414
 -24690395.43748 -19223635.90646  21497208.7664                   21497203.0704
 11  8 14  2 27 30.0000000  0  7G12G10G26G25G05G29G02
 -20809736.16448 -16200628.76246  21280699.8834                   21280696.5784
 -13757606.75446 -10706432.31244  23121968.6174                   23121967.0664
   3640944.28147   2850802.76643  24264467.4844                   24264464.8554
 -14159789.55948 -11018401.07846  21682078.5554                   21682077.6954
 -24157275.50448 -18808550.07047  20354079.3054                   20354076.1214
  -3962201.27047  -3075325.76645  22995497.2814                   22995496.1414
 -24678352.12948 -19214251.48046  21499500.5084                   21499494.7934
 11  8 14  2 28  0.0000000  0  7G12G10G26G25G05G29G02
 -20782755.46948 -16179604.83646  21285833.8834                   21285830.9144
 -13683417.04346 -10648622.16444  23136087.2974                   23136084.8014
   3520505.03147   2756954.07043  24241548.1804                   24241545.6214
 -14197837.08648 -11048048.48846  21674838.0314                   21674837.5084
 -24170422.44948 -18818794.42647  20351577.5004                   20351574.2544
  -4069569.51647  -3158989.27045  22975066.2584                   22975064.7664
 -24666203.36748 -19204784.89146  21501812.3674                   21501806.9494
 11  8 14  2 28 30.0000000  0  7G12G10G26G25G05G29G02
 -20755285.92648 -16158199.98846  21291061.3204                   21291058.1254
 -13608986.43047 -10590624.28144  23150250.9844                   23150248.3014
   3400045.47746   2663089.56643  24218625.7504                   24218623.3204
 -14235299.56648 -11077240.02346  21667709.2424                   21667708.7274
 -24183011.75848 -18828604.25447  20349181.7894                   20349178.4454
  -4176892.89547  -3242617.78945  22954643.6094                   22954641.6214
 -24653951.79748 -19195238.18046  21504143.6414                   21504138.0784
 11  8 14  2 29  0.0000000  0  7G12G10G26G25G05G29G02
 -20727329.18048 -16136415.50846  21296381.2274                   21296377.9344
 -13534317.46947 -10532440.69144  23164459.9924                   23164457.3674
   3279569.34846   2569212.14543  24195699.2734                   24195697.0474
 -14272176.32448 -11105975.15246  21660691.8054                   21660691.4534
 -24195044.01648 -18837980.01647  20346892.3674                   20346888.8444
  -4284169.10547  -3326209.55545  22934229.3914                   22934227.4384
 -24641597.23448 -19185611.23446  21506494.7344                   21506489.4304
 11  8 14  2 29 30.0000000  0  7G12G10G26G25G05G29G02
 -20698887.00848 -16114252.77746  21301793.3834                   21301790.3134
 -13459412.59847 -10474073.26244  23178714.0784                   23178711.2974
   3159080.16446   2475324.56343  24172770.8204                   24172769.1764
 -14308467.02748 -11134253.61346  21653785.6954                   21653785.2854
 -24206520.09048 -18846922.39147  20344708.3984                   20344705.1604
  -4391396.59047  -3409763.35945  22913824.6174                   22913822.5084
 -24629139.94948 -19175904.23046  21508865.0004                   21508859.4024
 11  8 14  2 30  0.0000000  0  7G12G10G26G25G05G29G02
 -20669960.98448 -16091713.00046  21307297.8754                   21307294.7504
 -13384274.07047 -10415523.75844  23193012.5394                   23193009.4454
   3038581.90246   2381429.91043  24149840.1884                   24149838.8714
 -14344170.80948 -11162074.74246  21646992.0164                   21646991.1914
 -24217440.53548 -18855431.80947  20342630.0944                   20342626.6914
  -4498572.65247  -3493277.07445  22893430.0554                   22893427.5984
 -24616579.48848 -19166116.82446  21511255.4844                   21511250.1764
 11  8 14  2 30 30.0000000  0  7G12G10G26G25G05G29G02
 -20640555.20348 -16068799.39846  21312893.7114                   21312890.7154
 -13308906.57847 -10356795.85244  23207354.0234                   23207351.6484
   2918075.90646   2287529.19543  24126909.4774                   24126907.0704
 -14379289.45348 -11189439.90646  21640309.1804                   21640308.5824
 -24227808.26648 -18863510.53547  20340657.3204                   20340653.8754
  -4605697.60247  -3576750.95745  22873044.3754                   22873042.3674
 -24603917.96948 -19156250.68046  21513664.6954                   21513659.2464
 11  8 14  2 31  0.0000000  0  7G12G10G26G25G05G29G02
 -20610670.51248 -16045512.62946  21318580.6724                   21318577.0594
 -13233311.70347 -10297890.76244  23221739.5474                   23221736.5944
   2797566.50446   2193625.88343  24103977.2114                   24103974.6134
 -14413821.87148 -11216348.28546  21633737.6334                   21633737.3594
 -24237623.38748 -18871158.66047  20338789.6254                   20338786.1094
  -4712769.20347  -3660183.26645  22852669.0944                   22852667.1484
 -24591155.09448 -19146305.56246  21516093.6724                   21516087.9384
 11  8 14  2 31 30.0000000  0  7G12G10G26G25G05G29G02
 -20580309.98048 -16021855.06246  21324358.1644                   21324354.9264
 -13157493.45347 -10238811.60544  23236167.3134                   23236164.7544
   2677056.27046   2099721.89843  24081044.2734                   24081042.4614
 -14447768.64148 -11242800.31646  21627277.6174                   21627276.9804
 -24246887.84448 -18878377.69947  20337026.6954                   20337023.4734
  -4819786.01247  -3743572.87945  22832304.9384                   22832302.8244
 -24578291.72348 -19136282.12946  21518541.1484                   21518535.7034
 11  8 14  2 32  0.0000000  0  7G12G10G26G25G05G29G02
 -20549475.83248 -15997828.44546  21330225.5784                   21330222.3524
 -13081454.22347 -10179560.27044  23250636.5554                   23250634.4844
   2556548.84446   2005820.10543  24058112.4924                   24058110.1374
 -14481129.57848 -11268795.84846  21620929.2504                   21620928.8134
 -24255602.64548 -18885168.42247  20335368.0784                   20335365.0044
  -4926746.25447  -3826918.40645  22811950.4534                   22811948.5514
 -24565327.82848 -19126180.37146  21521008.3204                   21521002.8984
 11  8 14  2 32 30.0000000  0  7G12G10G26G25G05G29G02
 -20518168.61748 -15973433.21146  21336183.0634                   21336179.7304
 -13005195.19147 -10120137.65644  23265148.5474                   23265145.8014
   2436049.04346   1911924.22343  24035182.1414                   24035179.9184
 -14513903.03148 -11294333.60246  21614692.7974                   21614692.3014
 -24263767.34848 -18891530.50847  20333814.7274                   20333811.1684
  -5033646.50847  -3910217.19545  22791608.2584                   22791606.0664
 -24552262.20348 -19115999.34846  21523494.3834                   21523489.1024
 11  8 14  2 33  0.0000000  0  7G12G10G26G25G05G29G02
 -20486393.00848 -15948673.00046  21342230.1094                   21342226.6954
 -12928721.78147 -10060548.00444  23279701.0084                   23279698.4144
   2315557.64146   1818034.93443  24012253.4774                   24012251.6764
 -14546091.63748 -11319415.62146  21608567.5164                   21608566.8984
 -24271385.60248 -18897466.78147  20332364.8594                   20332361.5204
  -5140487.82847  -3993470.05145  22771276.9774                   22771274.9574
 -24539097.99248 -19105741.50846  21525999.3364                   21525994.2034
 11  8 14  2 33 30.0000000  0  7G12G10G26G25G05G29G02
 -20454150.11348 -15923548.65646  21348365.0864                   21348362.2034
 -12852035.30947 -10000792.30544  23294293.8594                   23294291.3594
   2195079.07846   1724155.61743  23989327.0004                   23989324.8244
 -14577694.26648 -11344041.03546  21602553.7114                   21602553.2384
 -24278457.70748 -18902977.48847  20331019.4144                   20331015.7384
  -5247267.26647  -4076674.70745  22750957.3204                   22750954.9384
 -24525833.84048 -19095405.78546  21528523.7504                   21528518.5824
 11  8 14  2 34  0.0000000  0  7G12G10G26G25G05G29G02
 -20421443.43448 -15898062.92246  21354589.2114                   21354586.3244
 -12775139.84047  -9940873.77044  23308926.8914                   23308924.2424
   2074615.61746   1630288.08244  23966403.9694                   23966401.3524
 -14608712.02748 -11368210.69946  21596651.2894                   21596650.7274
 -24284986.07448 -18908064.50447  20329776.8204                   20329773.4064
  -5353984.31647  -4159830.74245  22730649.3444                   22730647.4264
 -24512471.32448 -19084993.42646  21531066.4384                   21531060.8754
 11  8 14  2 34 30.0000000  0  7G12G10G26G25G05G29G02
 -20388271.40648 -15872214.59046  21360901.6254                   21360898.3364
 -12698034.62147  -9880791.78944  23323599.3594                   23323596.8404
   1954174.22347   1536437.73444  23943484.6884                   23943482.6214
 -14639141.32848 -11391921.82046  21590860.5314                   21590860.2974
 -24290968.21548 -18912725.89147  20328638.3834                   20328635.0554
  -5460633.32447  -4242933.76245  22710355.0944                   22710352.5864
 -24499007.01648 -19074501.75046  21533628.4384                   21533623.1054
 11  8 14  2 35  0.0000000  0  7G12G10G26G25G05G29G02
 -20354638.30548 -15846006.98446  21367301.9844                   21367298.6764
 -12620724.02747  -9820549.76644  23338310.9694                   23338308.5394
   1833756.55946   1442605.86744  23920569.5554                   23920567.7664
 -14668984.05148 -11415175.86746  21585181.8834                   21585181.2074
 -24296407.05948 -18916963.92247  20327603.3054                   20327599.6134
  -5567214.23047  -4325983.71545  22690072.7664                   22690071.2074
 -24485442.85948 -19063932.27046  21536209.6954                   21536204.0664
 11  8 14  2 35 30.0000000  0  7G12G10G26G25G05G29G02
 -20320546.68448 -15819442.07446  21373789.2664                   21373785.9924
 -12543211.47747  -9760150.36344  23353061.5004                   23353058.6374
   1713365.64846   1348794.84844  23897659.6024                   23897658.4534
 -14698240.91048 -11437973.38746  21579614.1094                   21579613.7734
 -24301304.70748 -18920780.25847  20326671.5004                   20326667.7774
  -5673726.20347  -4408979.96145  22669803.9774                   22669802.1484
 -24471780.01648 -19053285.89546  21538809.4144                   21538804.0474
 11  8 14  2 36  0.0000000  0  7G12G10G26G25G05G29G02
 -20285997.32848 -15792520.49646  21380363.9694                   21380360.5664
 -12465497.64547  -9699594.13344  23367849.8674                   23367847.2504
   1593006.49246   1255008.57444  23874756.3524                   23874754.2194
 -14726910.27348 -11460313.12546  21574158.8134                   21574158.1134
 -24305660.55948 -18924174.40247  20325842.5704                   20325839.0824
  -5780165.33247  -4491919.45745  22649549.6644                   22649547.5984
 -24458016.69548 -19042561.22346  21541428.8914                   21541423.3444
 11  8 14  2 36 30.0000000  0  7G12G10G26G25G05G29G02
 -20250996.07048 -15765246.78546  21387024.3364                   21387021.3094
 -12387588.83647  -9638885.98044  23382675.2814                   23382672.7464
   1472679.05546   1161247.02744  23851858.8204                   23851857.3244
 -14754995.53548 -11482197.70746  21568814.3444                   21568813.4804
 -24309479.31648 -18927150.03547  20325115.8444                   20325112.2034
  -5886533.26647  -4574803.48845  22629308.5474                   22629306.1724
 -24444156.36348 -19031760.94946  21544066.0704                   21544060.9774
 11  8 14  2 37  0.0000000  0  7G12G10G26G25G05G29G02
 -20215544.81648 -15737622.43046  21393770.5314                   21393767.5704
 -12309487.64147  -9578027.92644  23397537.1414                   23397534.6804
   1352387.21146   1067513.20344  23828967.8594                   23828966.1764
 -14782496.95348 -11503627.34446  21563581.2344                   21563580.2854
 -24312762.30548 -18929708.18447  20324490.8364                   20324487.5704
  -5992828.13747  -4657630.59445  22609081.0634                   22609078.9884
 -24430199.48448 -19020885.45746  21546722.2894                   21546716.9104
 11  8 14  2 37 30.0000000  0  7G12G10G26G25G05G29G02
 -20179643.28148 -15709647.21146  21400602.3204                   21400599.0124
 -12231194.11347  -9517020.01644  23412436.5234                   23412433.7154
   1232136.99646    973811.83244  23806084.6484                   23806082.6954
 -14809411.87547 -11524599.97746  21558459.2034                   21558458.6254
 -24315508.01248 -18931847.67647  20323968.2194                   20323964.6094
  -6099045.24647  -4740397.10545  22588868.5234                   22588866.5084
 -24416142.94548 -19009932.30946  21549397.1024                   21549391.5204
 11  8 14  2 38  0.0000000  0  7G12G10G26G25G05G29G02
 -20143297.70348 -15681325.97346  21407518.6884                   21407515.4964
 -12152714.89547  -9455867.39144  23427370.5864                   23427368.0474
   1111927.93046    880142.50844  23783210.3134                   23783207.8164
 -14835744.46948 -11545118.85246  21553448.2274                   21553447.5084
 -24317721.94548 -18933572.80547  20323547.0234                   20323543.6134
  -6205186.83647  -4823104.78545  22568670.4144                   22568668.3484
 -24401991.28548 -18998905.03146  21552089.8674                   21552084.3054
 11  8 14  2 38 30.0000000  0  7G12G10G26G25G05G29G02
 -20106507.43748 -15652658.23046  21414519.3984                   21414515.9924
 -12074049.30947  -9394569.55144  23442339.7734                   23442337.3204
    991766.69946    786510.48043  23760343.6254                   23760341.8364
 -14861491.85548 -11565181.71546  21548548.5474                   21548548.1094
 -24319402.03948 -18934881.94547  20323227.2814                   20323224.0314
  -6311247.58247  -4905749.47745  22548487.7974                   22548485.6134
 -24387741.40648 -18987801.22746  21554801.7424                   21554796.3204
 11  8 14  2 39  0.0000000  0  7G12G10G26G25G05G29G02
 -20069276.93748 -15623647.44946  21421604.1644                   21421600.8794
 -11995202.05947  -9333130.14844  23457343.9454                   23457341.1914
    871654.60546    692916.73044  23737487.2194                   23737484.6414
 -14886656.48848 -11584790.48846  21543759.8984                   21543759.1054
 -24320551.79348 -18935777.83647  20323008.5004                   20323005.1684
  -6417227.89547  -4988331.50445  22528319.9844                   22528317.8204
 -24373395.69948 -18976622.75046  21557531.3134                   21557526.3324
 11  8 14  2 39 30.0000000  0  7G12G10G26G25G05G29G02
 -20031607.20348 -15594294.40246  21428772.5314                   21428769.3164
 -11916175.19947  -9271550.78144  23472382.5394                   23472379.4694
    751596.26246    599364.84844  23714640.8204                   23714637.9184
 -14911237.40248 -11603944.41446  21539082.2734                   21539081.3634
 -24321171.62548 -18936260.80547  20322890.6884                   20322887.1454
  -6523124.66847  -5070848.43445  22508168.9384                   22508166.6294
 -24358952.80948 -18965368.54346  21560279.6884                   21560274.3914
 11  8 14  2 40  0.0000000  0  7G12G10G26G25G05G29G02
 -19993501.53948 -15564601.66846  21436023.9694                   21436020.5084
 -11836971.96547  -9209833.98043  23487454.2274                   23487451.2734
    631594.41046    505856.99243  23691805.0004                   23691802.5164
 -14935235.84048 -11622644.46946  21534515.4144                   21534514.8324
 -24321264.04348 -18936332.79747  20322873.0554                   20322869.3634
  -6628936.95747  -5153299.52045  22488033.4844                   22488031.4224
 -24344413.97348 -18954039.57046  21563046.2584                   21563041.3404
 11  8 14  2 40 30.0000000  0  7G12G10G26G25G05G29G02
 -19954962.59847 -15534571.32046  21443357.6174                   21443354.2814
 -11757594.77347  -9147981.63743  23502558.5164                   23502555.4574
    511653.05946    412396.28144  23668981.1644                   23668978.1054
 -14958651.75848 -11640890.61346  21530059.5554                   21530058.9884
 -24320830.36348 -18935994.84847  20322955.5474                   20322952.1884
  -6734662.41847  -5235682.94545  22467914.9774                   22467912.0904
 -24329778.74248 -18942635.48046  21565831.3594                   21565826.2274
 11  8 14  2 41  0.0000000  0  7G12G10G26G25G05G29G02
 -19915991.54747 -15504204.26646  21450773.9064                   21450770.2854
 -11678045.57047  -9085995.23443  23517696.8834                   23517693.6914
    391776.11746    318985.75044  23646169.4144                   23646166.3524
 -14981484.82848 -11658682.58646  21525714.5784                   21525713.7814
 -24319870.50848 -18935246.88747  20323137.8984                   20323134.3954
  -6840298.35547  -5317996.60945  22447812.5944                   22447810.4414
 -24315046.79748 -18931156.03546  21568634.7894                   21568629.1724
 11  8 14  2 41 30.0000000  0  8G12G10G26G25G05G15G29G02
 -19876592.41447 -15473503.64146  21458270.9384                   21458267.7974
 -11598328.23847  -9023877.84043  23532866.5474                   23532863.1914
    271966.04747    225627.32844  23623369.9614                   23623366.7194
 -15003736.94548 -11676021.87546  21521480.3444                   21521479.5514
 -24318387.94948 -18934091.62147  20323420.2034                   20323416.9304
   7703374.66256   6016398.50454  24549340.0084                   24549338.9414
  -6945844.36747  -5400240.19945  22427727.8754                   22427725.0004
 -24300219.55548 -18919602.32846  21571456.0554                   21571450.9064
 11  8 14  2 42  0.0000000  0  8G12G10G26G25G05G15G29G02
 -19836775.87147 -15442477.76646  21465847.9454                   21465844.5824
 -11518453.87547  -8961638.08644  23548066.4304                   23548063.2384
    152217.66847    132316.99644  23600582.0864                   23600579.5594
 -15025416.89848 -11692915.33246  21517354.7194                   21517353.6884
 -24316392.65248 -18932536.83247  20323799.9534                   20323796.6844
   7585053.23846   5924200.23844  24526823.1804                   24526822.8404
  -7051306.90247  -5482418.74245  22407658.7894                   22407656.4264
 -24285305.64148 -18907981.08646  21574294.2194                   21574288.6454
 11  8 14  2 42 30.0000000  0  8G12G10G26G25G05G15G29G02
 -19796545.08647 -15411129.10246  21473503.7584                   21473500.4024
 -11438425.59047  -8899278.37544  23563295.2344                   23563292.2974
     32533.93847     39057.03144  23577807.6884                   23577805.0044
 -15046525.74247 -11709363.77346  21513337.8914                   21513337.0474
 -24313886.70348 -18930584.12547  20324276.8984                   20324273.1334
   7466601.66046   5831900.47344  24504282.3914                   24504281.7704
  -7156684.68747  -5564531.22345  22387605.9454                   22387603.5124
 -24270305.53148 -18896292.68046  21577148.9844                   21577143.6684
 11  8 14  2 43  0.0000000  0  8G12G10G26G25G05G15G29G02
 -19755902.51247 -15379459.55146  21481237.8444                   21481234.2194
 -11358245.57047  -8836800.43044  23578552.8594                   23578549.5164
    -87080.92247    -54149.26244  23555045.7734                   23555043.2854
 -15067063.52348 -11725367.22346  21509429.6414                   21509428.8524
 -24310871.03148 -18928234.22747  20324850.5554                   20324846.8134
   7348022.79746   5739501.52344  24481718.3674                   24481717.2114
  -7261975.13347  -5646575.64545  22367570.2194                   22367567.5274
 -24255219.13748 -18884537.02746  21580019.5474                   21580014.0904
 11  8 14  2 43 30.0000000  0  8G12G10G26G25G05G15G29G02
 -19714849.41047 -15347470.12546  21489049.8134                   21489046.1024
 -11277915.54747  -8774205.60544  23593839.2814                   23593836.3164
   -206622.28147   -147298.32044  23532297.2274                   23532294.6174
 -15087029.64548 -11740925.22346  21505630.1804                   21505629.2544
 -24307346.41048 -18925487.75447  20325521.4304                   20325518.0004
   7229320.39846   5647006.32444  24459129.4924                   24459128.8244
  -7367175.42647  -5728549.81645  22347551.0004                   22347548.2424
 -24240045.41448 -18872713.33646  21582907.1644                   21582901.7464
 11  8 14  2 44  0.0000000  0  8G12G10G26G25G05G15G29G02
 -19673382.35547 -15315158.12546  21496940.4304                   21496937.3714
 -11197432.89547  -8711491.84844  23609154.9774                   23609151.8054
   -326081.56247   -240383.36344  23509564.3984                   23509562.3244
 -15106419.38748 -11756034.10946  21501940.3284                   21501939.2464
 -24303308.97748 -18922341.68047  20326289.6094                   20326286.0124
   7110502.37146   5554421.00043  24436519.1094                   24436517.5474
  -7472278.14147  -5810447.95745  22327550.9304                   22327548.1174
 -24224779.05148 -18860817.45346  21585811.8754                   21585806.8244
 11  8 14  2 44 30.0000000  0  8G12G10G26G25G05G15G29G02
 -19631505.39848 -15282526.74246  21504909.4384                   21504905.7774
 -11116800.98447  -8648661.77744  23624498.3914                   23624495.2704
   -445455.85547   -333402.21144  23486848.8284                   23486846.6174
 -15125234.24248 -11770695.03146  21498360.2584                   21498359.2384
 -24298761.07048 -18918797.84047  20327155.0554                   20327151.6484
   6991570.46946   5461746.93843  24413886.8054                   24413884.9574
  -7577282.18747  -5892269.21545  22307569.0634                   22307566.4144
 -24209421.14848 -18848850.25046  21588734.7664                   21588729.6724
 11  8 14  2 45  0.0000000  0  8G12G10G26G25G05G15G29G02
 -19589220.69547 -15249577.61346  21512956.0394                   21512952.7304
 -11036021.86747  -8585717.00843  23639870.1724                   23639867.4224
   -564741.30547   -426351.81244  23464148.9614                   23464147.4144
 -15143474.46548 -11784908.18746  21494888.8984                   21494888.0354
 -24293704.26648 -18914857.45747  20328117.1024                   20328113.6054
   6872527.47746   5368986.30543  24391233.8674                   24391231.5784
  -7682185.22347  -5974011.76245  22287606.3524                   22287603.8554
 -24193971.39848 -18836811.47346  21591674.6564                   21591669.4414
 11  8 14  2 45 30.0000000  0  8G12G10G26G25G05G15G29G02
 -19546528.33648 -15216310.84046  21521080.0704                   21521076.4804
 -10955095.98847  -8522657.88343  23655269.3914                   23655266.7114
   -683931.87547   -519227.49244  23441468.2034                   23441466.0984
 -15161138.18448 -11798672.11746  21491527.8054                   21491526.7814
 -24288137.79348 -18910519.92247  20329176.4844                   20329173.1524
   6753378.60946   5276143.21542  24368559.8754                   24368558.1334
  -7786983.00847  -6055672.29345  22267663.9534                   22267661.3054
 -24178427.42648 -18824699.27346  21594632.6024                   21594627.1884
 11  8 14  2 46  0.0000000  0  8G12G10G26G25G05G15G29G02
 -19503433.34048 -15182730.31246  21529280.7664                   21529277.8984
 -10874028.85547  -8459488.67243  23670695.7584                   23670693.3594
   -803026.66047   -612028.53944  23418804.6484                   23418802.6454
 -15178228.66848 -11811989.36746  21488275.3674                   21488274.1414
 -24282065.65648 -18905788.37547  20330332.4454                   20330328.6094
   6634123.95746   5183217.67243  24345866.4064                   24345864.2504
  -7891676.10547  -6137251.25445  22247741.8444                   22247738.8164
 -24162791.87948 -18812515.71946  21597607.9384                   21597602.3874
 11  8 14  2 46 30.0000000  0  8G12G10G26G25G05G15G29G02
 -19459937.79747 -15148837.68046  21537557.6954                   21537554.2504
 -10792821.95746  -8396210.57043  23686149.0634                   23686146.7544
   -922021.16447   -704751.44544  23396161.3284                   23396159.0274
 -15194745.77748 -11824859.84046  21485132.2664                   21485131.4924
 -24275489.12948 -18900663.79347  20331583.5314                   20331579.9654
   6514766.67646   5090212.13343  24323153.4614                   24323151.3244
  -7996261.75847  -6218746.50445  22227839.3834                   22227836.9144
 -24147064.00448 -18800260.21546  21600600.9064                   21600595.2704
 11  8 14  2 47  0.0000000  0  8G12G10G26G25G05G15G29G02
 -19416043.54347 -15114634.36346  21545910.4454                   21545907.3164
 -10711477.14547  -8332825.00844  23701628.6954                   23701626.4144
  -1040911.10247   -797392.88744  23373536.9924                   23373534.7814
 -15210689.70748 -11837283.68446  21482098.3594                   21482097.6054
 -24268408.94148 -18895146.74247  20332930.6804                   20332926.8554
   6395310.09446   4997129.24243  24300421.4614                   24300419.7854
  -8100737.20347  -6300155.87545  22207958.3674                   22207955.6174
 -24131243.32447 -18787932.40246  21603611.6484                   21603606.0004
 11  8 14  2 47 30.0000000  0  8G12G10G26G25G05G15G29G02
 -19371751.32047 -15080120.94546  21554339.2034                   21554336.0354
 -10629995.33246  -8269332.69543  23717134.2114                   23717131.4304
  -1159691.46947   -889948.94544  23350933.7344                   23350931.3874
 -15226059.48047 -11849260.12946  21479173.4224                   21479172.7304
 -24260825.29348 -18889237.39547  20334373.6334                   20334370.1134
   6275758.46946   4903972.30543  24277671.7894                   24277669.9224
  -8205098.82447  -6381476.55146  22188098.6564                   22188096.5434
 -24115328.23447 -18775531.02346  21606640.0164                   21606634.5314
 11  8 14  2 48  0.0000000  0  8G12G10G26G25G05G15G29G02
 -19327065.53547 -15045300.85246  21562842.4534                   21562839.0004
 -10548380.74646  -8205736.92243  23732663.9694                   23732662.6684
  -1278360.11747   -982417.96544  23328351.9694                   23328349.1844
 -15240857.36348 -11860790.94146  21476357.4384                   21476356.9384
 -24252741.42248 -18882938.26647  20335912.1954                   20335908.4454
   6156113.06346   4810742.26243  24254903.6884                   24254902.0434
  -8309346.04747  -6462708.09445  22168261.4304                   22168258.6764
 -24099320.25447 -18763057.26246  21609686.1954                   21609680.7624
 11  8 14  2 48 30.0000000  0  8G12G10G26G25G05G15G29G02
 -19281987.82447 -15010175.35546  21571420.5164                   21571417.1214
 -10466635.00047  -8142038.96143  23748220.5704                   23748218.2504
  -1396912.48847  -1074796.36744  23305792.3834                   23305789.5704
 -15255083.24648 -11871876.04346  21473650.3834                   21473649.5084
 -24244158.18048 -18876250.00447  20337545.9694                   20337541.6954
   6036377.51247   4717441.96944  24232119.1414                   24232117.7664
  -8413476.12147  -6543848.34845  22148445.8914                   22148443.5274
 -24083218.58647 -18750510.49646  21612750.3524                   21612745.1414
 11  8 14  2 49  0.0000000  0  8G12G10G26G25G05G15G29G02
 -19236521.35247 -14974746.93446  21580072.5084                   21580069.2934
 -10384761.23446  -8078241.24644  23763800.9454                   23763798.0514
  -1515345.25447  -1167081.56644  23283255.2114                   23283252.2734
 -15268738.31248 -11882516.34446  21471052.2894                   21471051.0824
 -24235077.93448 -18869174.46547  20339273.3834                   20339269.8794
   5916554.09447   4624073.24244  24209317.0864                   24209316.0514
  -8517487.26247  -6624895.92245  22128653.5004                   22128650.6914
 -24067023.73048 -18737891.12946  21615831.9064                   21615826.6294
 11  8 14  2 49 30.0000000  0  8G12G10G26G25G05G15G29G02
 -19190669.16447 -14939017.95346  21588797.8524                   21588794.4494
 -10302761.92247  -8014345.69943  23779404.4224                   23779402.5354
  -1633655.00847  -1259270.92644  23260741.2814                   23260739.0514
 -15281823.69947 -11892712.74246  21468562.0634                   21468561.2034
 -24225502.13748 -18861712.78947  20341095.3284                   20341091.8204
   5796645.04347   4530637.75844  24186498.7974                   24186497.5394
  -8621377.41047  -6705849.23045  22108883.8674                   22108881.0784
 -24050735.72347 -18725199.17246  21618931.6174                   21618925.9454
 11  8 14  2 50  0.0000000  0  8G12G10G26G25G05G15G29G02
 -19144434.37147 -14902990.83246  21597596.1564                   21597592.5784
 -10220640.64846  -7950355.12143  23795031.7584                   23795029.6764
  -1751839.13347  -1351362.37544  23238251.3834                   23238249.2544
 -15294341.05547 -11902466.51646  21466180.1564                   21466179.0594
 -24215434.00848 -18853867.47747  20343011.4614                   20343007.8164
   5676652.24646   4437137.01644  24163665.5394                   24163663.4304
  -8725145.53547  -6786707.44545  22089137.2974                   22089134.6254
 -24034355.49247 -18712435.34446  21622048.8054                   21622043.0204
 11  8 14  2 50 30.0000000  0  8G12G10G26G25G05G15G29G02
 -17522401.96547 -13639069.47746  21906258.9384                   21906255.3554
  -8562983.29346  -6658674.06644  24110473.1804                   24110471.1414
   -294470.48847   -215750.38744  23515579.8134                   23515577.0274
 -13730871.37947 -10684178.45746  21763698.4304                   21763697.4144
 -22629456.12548 -17618040.54347  20644813.0084                   20644809.3094
   7132002.12547   5571176.00444  24440609.1094                   24440607.4654
  -7253366.96547  -5639866.93745  22369207.3054                   22369204.5864
 -22442464.05147 -17472000.44146  21924975.5394                   21924970.4414
 11  8 14  2 51  0.0000000  0  8G12G10G26G25G05G15G29G02
 -17475409.60547 -13602452.04746  21915201.3134                   21915197.3164
  -8480624.73046  -6594498.57443  24126145.6644                   24126142.6564
   -412391.23847   -307636.60544  23493140.2424                   23493136.9024
 -13742254.42248 -10693048.35246  21761532.2814                   21761531.1334
 -22618407.46548 -17609431.18047  20646915.6094                   20646911.8324
   7011851.34447   5477552.17644  24417744.9304                   24417743.4184
  -7356884.28547  -5720529.73045  22349508.7974                   22349506.0664
 -22425898.11347 -17459091.91446  21928127.5164                   21928121.9494
 11  8 14  2 51 30.0000000  0  8G12G10G26G25G05G15G29G02
 -17428043.03147 -13565543.02746  21924214.4064                   21924211.1844
  -8398151.75846  -6530233.93443  24141839.8524                   24141837.3324
   -530175.48847   -399416.48844  23470726.2274                   23470723.3554
 -13753072.29748 -10701477.84046  21759473.7274                   21759472.7114
 -22606871.69548 -17600442.25447  20649110.5864                   20649106.7974
   6891624.77346   5383869.26644  24394866.0864                   24394864.9024
  -7460273.35547  -5801092.57845  22329834.1954                   22329831.2074
 -22409240.21947 -17446111.73446  21931297.7894                   21931292.1484
 11  8 14  2 52  0.0000000  0  8G12G10G26G25G05G15G29G02
 -17380305.60547 -13528345.02746  21933298.7034                   21933295.0354
  -8315567.87546  -6465882.83643  24157554.9774                   24157552.4184
   -647820.17647   -491087.60944  23448339.3754                   23448336.1294
 -13763326.74248 -10709468.30546  21757522.3754                   21757521.5204
 -22594851.86748 -17591076.14547  20651398.2584                   20651394.3714
   6771324.26246   5290128.72743  24371973.4844                   24371972.3484
  -7563533.08647  -5881554.64846  22310184.3134                   22310181.9304
 -22392491.07447 -17433060.44946  21934485.5314                   21934479.2114
 11  8 14  2 52 30.0000000  0  8G12G10G26G25G05G15G29G02
 -17332197.41447 -13490858.12146  21942453.3364                   21942449.5664
  -8232872.55946  -6401444.93043  24173291.4694                   24173288.4734
   -765319.02047   -582645.09044  23425979.5234                   23425977.0044
 -13773015.82848 -10717018.23046  21755678.7344                   21755677.8674
 -22582346.45348 -17581331.64847  20653777.7734                   20653774.2814
   6650955.88346   5196335.34843  24349067.6414                   24349066.0944
  -7666658.34447  -5961911.93045  22290560.4454                   22290557.7504
 -22375647.64147 -17419935.68746  21937690.5944                   21937684.6374
 11  8 14  2 53  0.0000000  0  8G12G10G26G25G05G15G29G02
 -17283723.16447 -13453085.97746  21951677.5234                   21951674.2704
  -8150070.02046  -6336923.43743  24189048.6024                   24189045.4024
   -882670.24647   -674087.52744  23403648.7814                   23403645.9804
 -13782142.66848 -10724130.04346  21753941.9774                   21753940.7974
 -22569359.75048 -17571212.12547  20656248.9694                   20656245.2774
   6530520.31346   5102489.55143  24326149.4384                   24326147.8674
  -7769649.16047  -6042164.45346  22270961.9844                   22270959.1994
 -22358712.21948 -17406739.24646  21940912.6484                   21940906.9804
 11  8 14  2 53 30.0000000  0  8G12G10G26G25G05G15G29G02
 -17234886.50047 -13415031.43046  21960970.9534                   21960967.6564
  -8067164.25046  -6272321.54343  24204824.7034                   24204821.9454
   -999871.14147   -765412.83244  23381346.3134                   23381343.1484
 -13790709.32048 -10730805.34046  21752311.3674                   21752310.4844
 -22555894.59048 -17560719.78547  20658811.3754                   20658807.9964
   6410018.85246   5008592.42243  24303219.5864                   24303217.7544
  -7872504.29747  -6122311.24646  22251388.8364                   22251386.3984
 -22341685.57047 -17393471.71546  21944153.1564                   21944147.4454
 11  8 14  2 54  0.0000000  0  8G12G10G26G25G05G15G29G02
 -17185689.22347 -13376695.88746  21970333.0864                   21970329.5594
  -7984156.57446  -6207640.22343  24220620.7194                   24220617.5394
  -1116917.38747   -856617.62944  23359072.9224                   23359070.2074
 -13798716.05548 -10737044.34046  21750787.9534                   21750787.1564
 -22541952.02048 -17549855.43047  20661464.5704                   20661460.7234
   6289455.27747   4914646.89543  24280277.0634                   24280274.9694
  -7975221.25047  -6202350.36346  22231842.6564                   22231839.9494
 -22324566.78147 -17380132.39846  21947410.3524                   21947404.7814
 11  8 14  2 54 30.0000000  0  8G12G10G26G25G05G15G29G02
 -17136132.01248 -13338079.87946  21979763.2344                   21979759.9694
  -7901047.55946  -6142879.94543  24236435.6254                   24236432.9414
  -1233803.07847   -947697.30944  23336830.3754                   23336827.2894
 -13806161.72748 -10742846.14546  21749371.0234                   21749370.3484
 -22527531.90648 -17538618.96947  20664208.6174                   20664204.7234
   6168834.59447   4820656.85243  24257323.6254                   24257320.8244
  -8077795.19547  -6282278.05946  22212323.5004                   22212320.6414
 -22307353.60247 -17366719.52745  21950685.9454                   21950680.2194
 11  8 14  2 55  0.0000000  0  8G12G10G26G25G05G15G29G02
 -17086221.41047 -13299188.49246  21989260.8054                   21989257.5744
  -7817843.00046  -6078045.20743  24252269.1644                   24252266.0744
  -1350527.94547  -1038651.69144  23314618.2814                   23314615.6094
 -13813050.98048 -10748214.38346  21748059.8364                   21748059.1994
 -22512639.59048 -17527014.56247  20667042.5004                   20667038.6884
   6048156.16047   4726621.80944  24234359.1884                   24234356.6884
  -8180227.82447  -6362095.63346  22192831.2274                   22192828.1484
 -22290049.55947 -17353235.85946  21953978.9064                   21953973.7074
 11  8 14  2 55 30.0000000  0  8G12G10G26G25G05G15G29G02
 -17035959.68048 -13260023.50446  21998825.2894                   21998822.2974
  -7734544.77746  -6013137.47343  24268119.7344                   24268117.1724
  -1467087.73847  -1129477.43444  23292437.6174                   23292434.5784
 -13819384.28148 -10753149.40246  21746854.8284                   21746853.6294
 -22497276.24648 -17515043.11747  20669965.8364                   20669962.3554
   5927423.41047   4632544.48044  24211384.3364                   24211381.8524
  -8282516.25447  -6441800.84846  22173366.2664                   22173363.4024
 -22272653.89148 -17339680.78545  21957289.1724                   21957283.6254
 11  8 14  2 56  0.0000000  0  8G12G10G26G25G05G15G29G02
 -16985346.28548 -13220584.50046  22008456.9694                   22008453.8674
  -7651152.16046  -5948156.28543  24283989.2114                   24283986.8444
  -1583475.60947  -1220169.21144  23270289.6484                   23270286.6644
 -13825159.70348 -10757649.71546  21745755.7424                   21745754.8984
 -22481441.02347 -17502703.97347  20672979.2344                   20672975.7894
   5806642.09847   4538429.30144  24188400.2034                   24188398.2664
  -8384655.21147  -6521389.58646  22153929.7584                   22153926.9104
 -22255163.70347 -17326052.06245  21960617.0634                   21960611.8204
 11  8 14  2 56 30.0000000  0  8G12G10G26G25G05G15G29G02
 -16934385.45748 -13180874.76246  22018154.2424                   22018151.1454
  -7567669.19546  -5883104.66043  24299875.6954                   24299872.4534
  -1699689.34447  -1310725.31644  23248175.0314                   23248172.0394
 -13830380.01248 -10761717.47346  21744762.2194                   21744761.2584
 -22465137.44148 -17489999.86747  20676081.6954                   20676078.2774
   5685813.50447   4444277.27744  24165407.2584                   24165405.3204
  -8486644.09447  -6600861.39546  22134521.7274                   22134518.9534
 -22237580.22347 -17312350.65246  21963963.3674                   21963957.8984
 11  8 14  2 57  0.0000000  0  8G12G10G26G25G05G15G29G02
 -16883079.68448 -13140896.23046  22027917.6024                   22027914.3444
  -7484097.89546  -5817984.15243  24315778.5474                   24315776.4064
  -1815725.05947  -1401142.69144  23226093.4924                   23226091.1524
 -13835045.99648 -10765353.28546  21743874.5234                   21743873.6454
 -22448366.84048 -17476931.85947  20679273.1954                   20679269.3874
   5564940.97346   4350091.02344  24142405.2034                   24142403.8324
  -8588480.31647  -6680214.24646  22115143.0634                   22115140.1884
 -22219902.98848 -17298576.19146  21967327.3914                   21967321.6884
 11  8 14  2 57 30.0000000  0  8G12G10G26G25G05G15G29G02
 -16831434.33248 -13100653.09046  22037745.1484                   22037742.1884
  -7400443.71546  -5752799.12143  24331697.8674                   24331695.0474
  -1931581.85547  -1491420.66844  23204046.9064                   23204044.0594
 -13839161.84848 -10768560.43046  21743091.4774                   21743090.3914
 -22431134.18448 -17463503.81247  20682552.3914                   20682548.7194
   5444024.16447   4255870.28144  24119395.6804                   24119394.2544
  -8690164.88347  -6759448.93046  22095793.1334                   22095790.1804
 -22202134.77047 -17284730.81645  21970708.5944                   21970703.1254
 11  8 14  2 58  0.0000000  0  8G12G10G26G25G05G15G29G02
 -16779452.56248 -13060147.80546  22047637.1804                   22047633.5744
  -7316708.77046  -5687551.10543  24347632.0084                   24347628.8674
  -2047255.72747  -1581556.09844  23182035.0864                   23182031.9774
 -13842728.69148 -10771339.77346  21742412.4534                   21742411.6134
 -22413441.53148 -17449717.32047  20685918.9924                   20685915.2154
   5323066.12946   4161617.40244  24096377.7734                   24096376.3054
  -8791695.25847  -6838563.46546  22076472.3674                   22076469.3484
 -22184275.47347 -17270814.47746  21974107.2504                   21974101.4614
 11  8 14  2 58 30.0000000  0  8G12G10G26G25G05G15G29G02
 -16727135.97748 -13019381.62546  22057592.6024                   22057589.3954
  -7232893.93046  -5622240.86743  24363580.8754                   24363578.2934
  -2162741.68047  -1671545.09444  23160058.2894                   23160055.5474
 -13845746.34848 -10773691.18046  21741838.2974                   21741837.3404
 -22395289.03548 -17435572.50447  20689373.2894                   20689369.5784
   5202070.70746   4067335.41044  24073353.7114                   24073351.5984
  -8893067.64148  -6917554.89546  22057182.2424                   22057179.0354
 -22166323.64548 -17256826.04745  21977523.5164                   21977517.5354
 11  8 14  2 59  0.0000000  0  8G12G10G26G25G05G15G29G02
 -16674487.18047 -12978356.57846  22067611.1724                   22067608.2034
  -7149001.91446  -5556870.54743  24379545.6334                   24379542.6954
  -2278036.31647  -1761385.00444  23138118.5784                   23138115.8014
 -13848216.26648 -10775615.78146  21741368.3054                   21741367.5084
 -22376679.40648 -17421071.49247  20692914.5474                   20692911.6914
   5081041.46546   3973027.03944  24050322.1174                   24050320.6254
  -8994280.19547  -6996421.78946  22037922.1174                   22037918.6024
 -22148279.18447 -17242765.43045  21980956.9064                   21980951.5084
 11  8 14  2 59 30.0000000  0  8G12G10G26G25G05G15G29G02
 -16621509.73847 -12937075.44146  22077692.5784                   22077688.9964
  -7065035.57046  -5491442.23043  24395523.6484                   24395520.5944
  -2393136.41847  -1851073.34444  23116215.9064                   23116212.6524
 -13850140.59048 -10777115.24646  21741001.9064                   21741000.6914
 -22357615.75048 -17406216.68047  20696542.2734                   20696538.8404
   4959979.94946   3878693.51644  24027284.6954                   24027282.9264
  -9095331.35247  -7075162.91046  22018692.4694                   22018689.3164
 -22130142.90647 -17228633.27045  21984408.0474                   21984402.5744
 11  8 14  3  0  0.0000000  0  8G12G10G26G25G05G15G29G02
 -16568207.73047 -12895541.40246  22087835.5234                   22087832.2854
  -6980998.53946  -5425958.80943  24411515.4774                   24411512.8674
  -2508039.55947  -1940608.20744  23094350.6484                   23094347.3524
 -13851521.67248 -10778191.39846  21740739.2584                   21740738.7274
 -22338100.55147 -17391010.02346  20700256.0784                   20700252.3094
   4838888.14546   3784336.39844  24004242.1724                   24004239.3594
  -9196220.16047  -7153777.53146  21999493.7584                   21999491.1134
 -22111915.51247 -17214430.10545  21987876.8594                   21987871.4414
 11  8 14  3  0 30.0000000  0  8G12G10G26G25G05G15G29G02
 -16514581.26247 -12853754.52746  22098040.4924                   22098037.2154
  -6896890.80546  -5360420.35543  24427520.1334                   24427518.0124
  -2622739.09847  -2029984.42244  23072523.6334                   23072520.8714
 -13852358.30548 -10778843.30946  21740580.1414                   21740579.0004
 -22318133.16048 -17375451.00847  20704055.5474                   20704052.0744
   4717771.48046   3689959.89144  23981194.2424                   23981191.5634
  -9296941.73047  -7232261.84846  21980327.0864                   21980324.3594
 -22093594.51647 -17200154.02045  21991363.0234                   21991357.7664
 11  8 14  3  1  0.0000000  0  8G12G10G26G25G05G15G29G02
 -16460635.75047 -12811719.04746  22108306.0704                   22108302.3754
  -6812716.91046  -5294830.30943  24443538.6724                   24443535.8444
  -2737234.09447  -2119201.27044  23050736.1884                   23050733.3754
 -13852654.44948 -10779074.05546  21740523.4924                   21740522.6524
 -22297718.68048 -17359543.60247  20707940.4144                   20707936.8914
   4596630.11746   3595564.10944  23958141.5784                   23958138.4304
  -9397496.43047  -7310616.12946  21961192.2504                   21961189.4064
 -22075182.30947 -17185806.85246  21994866.5004                   21994861.4344
 11  8 14  3  1 30.0000000  0  8G12G10G26G25G05G15G29G02
 -16406373.25847 -12769436.57046  22118631.7664                   22118628.3754
  -6728478.57546  -5229190.07843  24459568.1954                   24459565.7154
  -2851519.75447  -2208254.98044  23028988.1484                   23028985.7274
 -13852410.50848 -10778883.95746  21740569.9534                   21740569.1484
 -22276857.62148 -17343288.22347  20711910.2274                   20711906.3834
   4475468.37547   3501152.45344  23935085.0704                   23935082.2934
  -9497880.71547  -7388837.60946  21942089.6724                   21942086.7464
 -22056677.64847 -17171387.64146  21998387.8594                   21998382.4384
 11  8 14  3  2  0.0000000  0  9G12G10G26G25G05G15G29G21G02
 -16351796.87547 -12726909.50446  22129016.8134                   22129013.6454
  -6644178.44546  -5163501.67643  24475610.3284                   24475607.5904
  -2965592.68747  -2297142.91844  23007280.6724                   23007277.7624
 -13851628.39848 -10778274.51246  21740718.8674                   21740718.1724
 -22255552.98848 -17326687.19946  20715964.3364                   20715960.6214
   4354288.25047   3406726.48444  23912025.5084                   23912022.8204
  -9598093.08247  -7466925.12946  21923020.2274                   21923016.7344
   9332044.76256   7281353.64853  25203671.7584                   25203669.4264
 -22038080.98447 -17156896.74645  22001927.0234                   22001921.2464
 11  8 14  3  2 30.0000000  0  9G12G10G26G25G05G15G29G21G02
 -16296915.45747 -12684144.76246  22139460.7274                   22139457.3484
  -6559824.39846  -5097771.27343  24491661.8834                   24491659.4574
  -3079455.18747  -2385866.90244  22985613.2734                   22985610.4734
 -13850315.44948 -10777251.42646  21740968.3674                   21740967.8364
 -22233812.83648 -17309746.80547  20720101.1174                   20720097.5554
   4233086.97747   3312284.01244  23888961.4924                   23888959.3404
  -9698137.20347  -7544881.56246  21903982.1024                   21903979.2774
   9250400.30946   7217734.69943  25188134.6564                   25188133.2544
 -22019397.91447 -17142338.51245  22005482.0314                   22005476.5904
 11  8 14  3  3  0.0000000  0  9G12G10G26G25G05G15G29G21G02
 -16241736.15647 -12641147.89546  22149961.4844                   22149957.6134
  -6475422.98846  -5032003.96542  24507723.3054                   24507719.4574
  -3193107.32047  -2474426.95344  22963986.3134                   22963983.2344
 -13848477.17248 -10775818.99646  21741318.3984                   21741317.4574
 -22211643.18448 -17292471.74247  20724319.9384                   20724316.3404
   4111863.34046   3217824.14544  23865893.3834                   23865891.0904
  -9798014.57447  -7622708.05146  21884976.0864                   21884973.3094
   9168760.73446   7154119.57043  25172599.6644                   25172597.2154
 -22000632.34047 -17127715.98845  22009053.1174                   22009047.5434
 11  8 14  3  3 30.0000000  0  9G12G10G26G25G05G15G29G21G02
 -16186259.85547 -12597919.59845  22160517.7274                   22160514.3484
  -6390974.78945  -4966200.16442  24523792.8754                   24523789.4304
  -3306543.75847  -2562818.93044  22942399.5864                   22942397.0354
 -13846113.31248 -10773977.02046  21741768.1884                   21741767.1804
 -22189044.31648 -17274862.23046  20728620.5554                   20728616.8984
   3990621.82446   3123350.34044  23842821.2734                   23842819.4024
  -9897721.44947  -7700401.69946  21866002.5164                   21865999.1844
   9087127.35946   7090509.29343  25157064.5704                   25157063.0434
 -21981781.99647 -17113027.40245  22012640.2274                   22012634.7154
 11  8 14  3  4  0.0000000  0  9G12G10G26G25G05G15G29G21G02
 -16130486.93447 -12554460.17646  22171131.0314                   22171127.6254
  -6306479.45746  -4900359.62943  24539872.4454                   24539868.7774
  -3419758.23047  -2651037.94944  22920855.7194                   22920852.5904
 -13843222.91048 -10771724.74246  21742318.2194                   21742317.1684
 -22166015.92248 -17256918.01647  20733002.8594                   20732999.3714
   3869368.09046   3028867.01644  23819747.9774                   23819746.0354
  -9997253.19148  -7777958.87146  21847062.1564                   21847059.2624
   9005502.23046   7026905.44143  25141531.6644                   25141530.0434
 -21962844.62547 -17098271.02045  22016244.0004                   22016238.1844
 11  8 14  3  4 30.0000000  0  9G12G10G26G25G05G15G29G21G02
 -16074417.96147 -12510770.05946  22181800.5864                   22181797.1484
  -6221936.87946  -4834482.30142  24555959.5944                   24555957.2154
  -3532744.76647  -2739079.35944  22899354.8444                   22899352.1844
 -13839805.37148 -10769061.72346  21742968.8204                   21742967.4224
 -22142558.17648 -17238639.23847  20737466.5944                   20737462.9614
   3748107.34446   2934378.24644  23796671.9304                   23796670.2814
 -10096605.12947  -7855375.94546  21828156.1024                   21828153.3594
   8923886.84846   6963309.17643  25126001.2504                   25125998.8094
 -21943817.75447 -17083444.89845  22019864.4844                   22019859.2114
 11  8 14  3  5  0.0000000  0  9G12G10G26G25G05G15G29G21G02
 -16018056.68047 -12466852.16845  22192525.5944                   22192522.2384
  -6137350.03546  -4768570.46943  24572056.1724                   24572053.3054
  -3645500.09047  -2826940.60544  22877898.6174                   22877895.4024
 -13835862.66048 -10765989.47346  21743718.7894                   21743717.8834
 -22118673.31648 -17220027.64546  20742011.4384                   20742007.9844
   3626842.12146   2839885.97744  23773596.5864                   23773594.2774
 -10195775.22348  -7932651.31246  21809284.8754                   21809281.8244
   8842280.38346   6899719.83643  25110471.5944                   25110469.4264
 -21924701.76247 -17068549.32846  22023502.1254                   22023497.0274
 11  8 14  3  5 30.0000000  0  9G12G10G26G25G05G15G29G21G02
 -15961406.60547 -12422709.25046  22203305.7344                   22203302.5664
  -6052721.77746  -4702626.37943  24588160.8284                   24588158.3134
  -3758021.10947  -2914619.28144  22856486.8284                   22856483.4844
 -13831397.11348 -10762509.81646  21744568.6414                   21744567.6254
 -22094364.49248 -17201085.69546  20746637.3284                   20746633.7664
   3505574.38346   2745391.74244  23750519.7584                   23750517.1684
 -10294762.21548  -8009784.00446  21790447.8754                   21790444.7154
   8760681.75446   6836136.60543  25094944.6564                   25094941.9774
 -21905497.18047 -17053584.72345  22027157.1174                   22027151.6764
 11  8 14  3  6  0.0000000  0  8G12G26G25G05G15G29G21G02
 -15904467.35947 -12378340.99645  22214140.7344                   22214137.6604
  -3870300.85247  -3002109.94944  22835120.2114                   22835117.0084
 -13826407.12148 -10758621.50446  21745518.0704                   21745517.7974
 -22069630.23048 -17181812.23846  20751344.1564                   20751340.4144
   3384310.74246   2650900.69544  23727443.9774                   23727441.4454
 -10393560.41448  -8086769.58246  21771647.3754                   21771644.2814
   8679093.29746   6772561.32843  25079418.0164                   25079415.8444
 -21886200.35947 -17038548.25845  22030828.9384                   22030823.6914
 11  8 14  3  6 30.0000000  0  8G12G26G25G05G15G29G21G02
 -15847241.16447 -12333749.15645  22225030.7344                   22225027.6994
  -3982334.97347  -3089409.22344  22813801.0554                   22813797.8714
 -13820893.87148 -10754325.45746  21746567.4614                   21746566.4264
 -22044472.53148 -17162208.82447  20756131.4144                   20756127.7774
   3263054.26646   2556415.21944  23704369.8054                   23704367.2274
 -10492166.91048  -8163605.77046  21752883.1414                   21752880.1954
   8597515.27346   6708994.14844  25063894.5004                   25063892.1094
 -21866810.82847 -17023439.53545  22034518.7814                   22034513.4454
 11  8 14  3  7  0.0000000  0  8G12G26G25G05G15G29G21G02
 -15789722.58247 -12288929.47346  22235976.3054                   22235973.1994
  -4094111.38747  -3176507.69544  22792530.5084                   22792527.5434
 -13814850.39848 -10749616.24646  21747717.3204                   21747716.6334
 -22018885.16448 -17142270.59446  20761000.5394                   20760997.1604
   3141816.24246   2461944.13744  23681298.4614                   23681296.3444
 -10590570.93448  -8240284.19146  21734157.6414                   21734154.7154
   8515955.96946   6645441.55543  25048373.8594                   25048372.0084
 -21847319.72748 -17008251.66845  22038227.4304                   22038222.3054
 11  8 14  3  7 30.0000000  0  8G12G26G25G05G15G29G21G02
 -15731914.06647 -12243883.87146  22246976.7974                   22246973.5704
  -4205625.74247  -3263401.94945  22771309.8914                   22771307.1524
 -13808278.11748 -10744494.98046  21748968.1174                   21748967.2974
 -21992869.84048 -17121998.90246  20765951.1174                   20765947.4844
   3020600.48847   2367490.40644  23658232.1644                   23658229.4774
 -10688770.05548  -8316802.94546  21715471.0004                   21715467.9414
   8434415.03546   6581903.27043  25032857.4534                   25032854.9104
 -21827726.42247 -16992984.16845  22041956.2664                   22041950.7894
 11  8 14  3  8  0.0000000  0  8G12G26G25G05G15G29G21G02
 -15673818.84847 -12198614.85946  22258032.2504                   22258028.8204
  -4316874.35547  -3350089.15245  22750140.2504                   22750137.3954
 -13801178.54747 -10738962.84046  21750319.1954                   21750318.3244
 -21966428.52048 -17101395.26246  20770982.7344                   20770979.0904
   2899410.13747   2273056.46144  23635170.2424                   23635167.8134
 -10786761.65248  -8393159.98446  21696823.3674                   21696820.4964
   8352891.93446   6518378.86343  25017343.3134                   25017341.0664
 -21808030.39548 -16977636.62145  22045704.1724                   22045698.6524
 11  8 14  3  8 30.0000000  0  8G12G26G25G05G15G29G21G02
 -15615441.92247 -12153126.33646  22269141.0164                   22269137.8404
  -4427855.78547  -3436568.14145  22729020.7814                   22729017.7034
 -13793555.97348 -10733023.17646  21751769.5394                   21751768.6884
 -21939566.09848 -17080463.48446  20776094.4534                   20776090.7344
   2778245.45347   2178642.50844  23612113.3204                   23612110.5204
 -10884546.10548  -8469355.61746  21678215.9614                   21678212.3634
   8271383.96146   6454866.26243  25001833.0784                   25001830.0434
 -21788234.32848 -16962211.12945  22049471.2734                   22049465.7934
 11  8 14  3  9  0.0000000  0  8G12G26G25G05G15G29G21G02
 -15556788.61747 -12107422.46546  22280301.8444                   22280298.8444
  -4538568.74647  -3522837.94545  22707953.3914                   22707950.3594
 -13785414.34848 -10726679.04746  21753318.7974                   21753317.9574
 -21912286.81648 -17059206.89546  20781285.5554                   20781281.8444
   2657107.35546   2084249.28544  23589062.0004                   23589058.9774
 -10982122.94548  -8545389.47346  21659647.5864                   21659644.6454
   8189888.30546   6391363.26243  24986324.8134                   24986322.4224
 -21768340.00847 -16946709.07845  22053256.6024                   22053251.8914
 11  8 14  3  9 30.0000000  0  8G12G26G25G05G15G29G21G02
 -15497864.55547 -12061507.62146  22291515.2734                   22291511.9804
  -4649011.78947  -3608897.41445  22686936.4924                   22686933.2624
 -13776757.94548 -10719933.78546  21754966.2814                   21754965.2934
 -21884595.49248 -17037629.22746  20786555.2664                   20786551.3244
   2535996.28946   1989877.12144  23566014.6564                   23566012.3984
 -11079492.52748  -8621261.82046  21641118.6564                   21641115.5164
   8108402.02045   6327867.54343  24970818.6254                   24970815.8714
 -21748349.73848 -16931132.27045  22057061.2814                   22057055.4264
 11  8 14  3 10  0.0000000  0  8G12G26G25G05G15G29G21G02
 -15438672.37147 -12015383.84045  22302778.8754                   22302775.4614
  -4759180.89847  -3694743.43445  22665971.7974                   22665968.9494
 -13767588.39848 -10712788.68046  21756710.8674                   21756710.1214
 -21856494.24248 -17015732.12946  20791902.5004                   20791898.7814
   2414915.32846   1895528.41444  23542973.9614                   23542971.1604
 -11176652.35948  -8696970.73446  21622629.5234                   21622626.6724
   8026924.66045   6264378.77742  24955313.4694                   24955310.3834
 -21728263.14548 -16915480.39545  22060883.4064                   22060878.1684
 11  8 14  3 10 30.0000000  0  8G12G26G25G05G15G29G21G02
 -15379214.67647 -11969053.16845  22314093.2894                   22314089.9224
  -4869072.29347  -3780373.04345  22645060.6804                   22645057.6914
 -13757907.18048 -10705244.85946  21758553.1564                   21758552.1644
 -21827984.89148 -16993517.03546  20797327.5704                   20797323.7854
   2293868.04746   1801205.96144  23519939.5864                   23519936.7504
 -11273599.96548  -8772514.28146  21604181.2584                   21604177.8054
   7945456.23445   6200897.00442  24939809.9534                   24939807.4884
 -21708079.73848 -16899753.07845  22064724.1484                   22064718.3714
 11  8 14  3 11  0.0000000  0  8G12G26G25G05G15G29G21G02
 -15319495.82847 -11922519.00845  22325457.4064                   22325453.9304
  -4978683.45347  -3865784.30545  22624202.5314                   22624199.4804
 -13747717.52748 -10697304.85946  21760492.0164                   21760491.3634
 -21799071.29748 -16970986.94546  20802829.6644                   20802825.9224
   2172855.34846   1706910.46944  23496911.1174                   23496908.4964
 -11370334.12948  -8847891.50446  21585773.0784                   21585770.0084
   7863994.99646   6137420.90642  24924309.2734                   24924306.2814
 -21687800.52748 -16883951.10245  22068583.3914                   22068577.5984
 11  8 14  3 11 30.0000000  0  8G12G26G25G05G15G29G21G02
 -15259520.43747 -11875784.94145  22336870.3984                   22336866.7704
  -5088012.27747  -3950975.55545  22603397.0314                   22603394.3874
 -13737022.91448 -10688971.39546  21762527.4534                   21762526.8834
 -21769757.23448 -16948144.80946  20808408.0314                   20808404.3364
   2051879.23446   1612643.46544  23473890.1024                   23473887.4064
 -11466853.93748  -8923101.70346  21567405.9924                   21567402.9494
   7782538.71546   6073948.54742  24908809.2504                   24908805.1564
 -21667427.04348 -16868075.66845  22072460.3674                   22072454.5904
 11  8 14  3 12  0.0000000  0  8G12G26G25G05G15G29G21G02
 -15199289.71147 -11828851.89545  22348332.2424                   22348328.1024
  -5197053.28547  -4035942.52745  22582646.9534                   22582644.5944
 -13725823.53948 -10680244.59046  21764658.8754                   21764657.8674
 -21740043.33248 -16924991.10546  20814062.5784                   20814058.8014
   1930944.57047   1518408.74644  23450877.2194                   23450874.1604
 -11563155.74648  -8998142.03146  21549080.1884                   21549077.0084
   7701088.48846   6010480.88342  24893308.9224                   24893304.4734
 -21646957.09048 -16852125.06245  22076355.5474                   22076349.8754
 11  8 14  3 12 30.0000000  0  8G12G26G25G05G15G29G21G02
 -15138808.50447 -11781723.68445  22359841.1414                   22359837.8364
  -5305804.68447  -4120683.83645  22561952.5784                   22561949.8324
 -13714123.20748 -10671127.45346  21766885.1334                   21766884.1054
 -21709933.63748 -16901528.98846  20819791.8984                   20819787.9804
   1810052.25446   1424207.04344  23427871.8284                   23427869.1524
 -11659239.25448  -9073012.26246  21530796.1884                   21530792.9964
   7619642.15246   5947016.26242  24877810.7974                   24877806.4064
 -21626392.37548 -16836100.62545  22080268.5944                   22080263.1564
 11  8 14  3 13  0.0000000  0  8G12G26G25G05G15G29G21G02
 -15078079.87147 -11734402.66445  22371397.5704                   22371393.9774
  -5414262.56647  -4205196.43745  22541313.4384                   22541311.0594
 -13701923.80948 -10661621.41446  21769206.5234                   21769205.7344
 -21679430.34848 -16877760.18746  20825596.5394                   20825592.7274
   1689205.39147   1330040.76244  23404875.1334                   23404872.5744
 -11755101.69948  -9147710.23446  21512554.1024                   21512550.9144
   7538199.06646   5883554.21942  24862311.4224                   24862308.0004
 -21605732.71548 -16820002.19545  22084200.3594                   22084194.8204
 11  8 14  3 13 30.0000000  0  8G12G26G25G05G15G29G21G02
 -15017106.91047 -11686891.27045  22383000.5084                   22382996.7384
  -5522423.33647  -4289477.52745  22520731.9144                   22520728.3404
 -13689227.44548 -10651728.13346  21771622.5314                   21771621.6374
 -21648536.12948 -16853686.75446  20831475.5004                   20831471.5744
   1568406.92247   1235912.19144  23381887.7114                   23381885.1214
 -11850741.03548  -9222234.36346  21494354.8204                   21494351.6294
   7456758.57046   5820094.19943  24846814.1954                   24846811.3094
 -21584977.85248 -16803829.59045  22088149.3914                   22088144.2624
 11  8 14  3 14  0.0000000  0  8G12G26G25G05G15G29G21G02
 -14955892.77047 -11639191.94145  22394649.1174                   22394645.6844
  -5630283.73047  -4373524.55945  22500206.3754                   22500202.5084
 -13676036.29348 -10641449.31246  21774132.8134                   21774132.2074
 -21617253.34848 -16829310.55546  20837428.6024                   20837424.6644
   1447659.64547   1141823.50444  23358910.2894                   23358907.4304
 -11946155.11348  -9296582.96146  21476197.8594                   21476194.7424
   7375320.00846   5756635.66843  24831316.3054                   24831314.5084
 -21564127.75848 -16787582.77045  22092117.4384                   22092111.2814
 11  8 14  3 14 30.0000000  0  8G12G26G25G05G15G29G21G02
 -14894438.72347 -11591305.66445  22406343.2424                   22406339.5314
  -5737838.02047  -4457333.07045  22479739.7814                   22479736.3874
 -13662350.52048 -10630785.06246  21776736.8594                   21776736.1334
 -21585582.52348 -16804631.98046  20843455.3134                   20843451.2424
   1326968.32847   1047778.40644  23335943.9224                   23335941.0044
 -12041339.61748  -9370752.67246  21458084.6484                   21458081.5234
   7293884.98846   5693179.90643  24815819.9304                   24815817.8244
 -21543180.55548 -16771260.27745  22096103.8054                   22096098.0984
 11  8 14  3 15  0.0000000  0  8G12G26G25G05G15G29G21G02
 -14832748.66847 -11543235.49245  22418082.3524                   22418078.7704
  -5845083.48847  -4540900.94545  22459331.0164                   22459327.9534
 -13648173.11748 -10619737.73046  21779435.0784                   21779434.1564
 -21553526.99248 -16779653.62946  20849555.1884                   20849551.4264
   1206335.20347    953778.65244  23312987.3834                   23312984.4734
 -12136293.10948  -9444742.37546  21440015.9144                   21440012.6174
   7212451.78946   5629725.59443  24800324.4304                   24800321.6804
 -21522136.75048 -16754862.51645  22100108.0634                   22100102.3324
 11  8 14  3 15 30.0000000  0  8G12G26G25G05G15G29G21G02
 -14770824.87947 -11494983.19145  22429866.4694                   22429862.9384
  -5952015.76247  -4624224.77345  22438982.8364                   22438979.4144
 -13633505.27748 -10608308.23846  21782226.3524                   21782224.9734
 -21521088.34048 -16754376.75046  20855727.8754                   20855724.4384
   1085764.00847    859827.15244  23290044.1094                   23290040.6724
 -12231012.77748  -9518549.88346  21421991.1484                   21421987.9734
   7131020.82446   5566272.97343  24784828.6094                   24784825.4964
 -21500995.09848 -16738388.50845  22104130.8984                   22104125.6214
 11  8 14  3 16  0.0000000  0  8G12G26G25G05G15G29G21G02
 -14708671.82847 -11446552.24645  22441693.4304                   22441690.0394
  -6058632.46947  -4707302.70345  22418694.6644                   22418690.9184
 -13618350.92248 -10596499.64146  21785109.9774                   21785109.0434
 -21488270.59848 -16728804.48046  20861972.9304                   20861969.1094
    965255.82047    765924.75444  23267111.7194                   23267108.6564
 -12325497.91848  -9592174.63746  21404010.9694                   21404007.8134
   7049589.93146   5502820.38343  24769332.7194                   24769329.3444
 -21479757.41448 -16721839.66045  22108172.3754                   22108167.1214
 11  8 14  3 16 30.0000000  0  8G12G26G25G05G15G29G21G02
 -14646291.27347 -11397944.02045  22453564.2894                   22453560.6094
  -6164928.36747  -4790130.64845  22398466.7664                   22398463.5984
 -13602710.17648 -10584312.04346  21788086.4144                   21788085.5594
 -21455074.12948 -16702937.09046  20868290.1414                   20868286.4344
    844815.90647    672075.55144  23244192.4844                   23244189.8984
 -12419744.03548  -9665613.14146  21386076.8754                   21386073.6684
   6968160.17646   5439368.77043  24753836.7424                   24753833.7934
 -21458421.40647 -16705214.20346  22112232.7974                   22112226.9694
 11  8 14  3 17  0.0000000  0  8G12G26G25G05G15G29G21G02
 -14583687.59447 -11349161.93045  22465477.3594                   22465473.8834
  -6270901.20347  -4872706.86745  22378300.9534                   22378297.5664
 -13586586.69548 -10571748.28546  21791154.4384                   21791153.6524
 -21421502.98448 -16676777.74246  20874678.4534                   20874674.7704
    724445.96147    578280.86744  23221287.2894                   23221284.1174
 -12513750.60248  -9738864.98446  21368187.9924                   21368184.7504
   6886729.96146   5375916.73444  24738341.3284                   24738338.3324
 -21436988.23848 -16688513.03145  22116311.4614                   22116305.7154
 11  8 14  3 17 30.0000000  0  8G12G26G25G05G15G29G21G02
 -14520860.95747 -11300206.11745  22477432.7814                   22477428.9264
  -6376544.63747  -4955026.39545  22358197.2974                   22358194.4064
 -13569980.01248 -10558808.01246  21794314.6254                   21794313.6254
 -21387556.80148 -16650326.16046  20881138.0234                   20881134.1954
    604151.36747    484544.90644  23198395.8134                   23198393.2424
 -12607512.48048  -9811926.16446  21350345.5704                   21350342.4184
   6805301.03946   5312465.73043  24722845.8674                   24722842.8204
 -21415455.21548 -16671734.05145  22120408.9774                   22120403.5394
 11  8 14  3 18  0.0000000  0  8G12G26G25G05G15G29G21G02
 -14457817.51647 -11251081.36345  22489429.5234                   22489425.9344
  -6481858.39547  -5037089.02745  22338156.5554                   22338153.6454
 -13552895.46948 -10545495.37146  21797565.4844                   21797564.6134
 -21353241.05948 -16623586.61346  20887668.2814                   20887664.6334
    483931.81647    390867.40644  23175518.7664                   23175516.0394
 -12701030.55548  -9884797.36346  21332549.9144                   21332546.5744
   6723869.94946   5249013.06343  24707349.8364                   24707346.8164
 -21393825.34047 -16654879.61345  22124525.2194                   22124519.6884
 11  8 14  3 18 30.0000000  0  8G12G26G25G05G15G29G21G02
 -14394559.91847 -11201789.73845  22501466.7114                   22501463.6764
  -6586838.01647  -5118891.29745  22318180.1174                   22318176.7344
 -13535334.55548 -10531811.53946  21800907.5394                   21800906.5274
 -21318557.78948 -16596560.68446  20894268.2274                   20894264.7344
    363791.11747    297251.37144  23152656.2274                   23152653.7154
 -12794301.62148  -9957476.08646  21314800.9224                   21314797.4144
   6642436.86346   5185558.82043  24691853.9844                   24691850.6094
 -21372097.54347 -16637948.86745  22128659.5784                   22128654.0904
 11  8 14  3 19  0.0000000  0  8G12G26G25G05G15G29G21G02
 -14331090.32447 -11152332.91845  22513544.7424                   22513541.1644
  -6691478.92247  -5200429.62945  22298267.1094                   22298264.5354
 -13517298.68748 -10517757.61346  21804339.4454                   21804338.8484
 -21283508.35948 -16569249.43046  20900938.1414                   20900934.3954
    243733.12147    203699.75845  23129810.5394                   23129807.3204
 -12887322.85548 -10029960.13746  21297099.4924                   21297096.1764
   6561001.97346   5122103.17643  24676357.1564                   24676353.9144
 -21350270.61348 -16620940.87945  22132813.0704                   22132807.6564
 11  8 14  3 19 30.0000000  0  8G12G26G25G05G15G29G21G02
 -14267412.81647 -11102714.08645  22525662.1954                   22525658.5554
  -6795778.66047  -5281702.10945  22278419.9534                   22278416.7384
 -13498791.13348 -10503336.14546  21807861.3524                   21807860.5274
 -21248096.25448 -16541655.57846  20907676.4224                   20907672.7934
    123760.10547    110214.36745  23106979.9534                   23106976.8674
 -12980092.85548 -10102248.41846  21279445.7814                   21279442.1054
   6479563.70346   5058644.91843  24660859.7894                   24660856.5044
 -21328345.39548 -16603856.30145  22136985.5164                   22136980.2704
 11  8 14  3 20  0.0000000  0  8G12G26G25G05G15G29G21G02
 -14203531.05547 -11052936.09445  22537818.2814                   22537815.4344
  -6899733.91447  -5362706.16845  22258637.3444                   22258634.5514
 -13479814.73048 -10488549.32846  21811472.4384                   21811471.2384
 -21212324.32848 -16513781.34846  20914484.0394                   20914479.9224
      3874.30547     16796.94144  23084166.0474                   23084163.6414
 -13072609.82448 -10174339.53546  21261840.1414                   21261837.1994
   6398120.91846   4995183.11343  24645360.9534                   24645357.9024
 -21306322.24247 -16586695.41445  22141176.2894                   22141170.8094
 11  8 14  3 20 30.0000000  0  8G12G26G25G05G15G29G21G02
 -14139449.30147 -11003002.25845  22550012.7974                   22550009.6684
  -7003342.34047  -5443439.97745  22238921.8284                   22238918.3954
 -13460372.79748 -10473399.76646  21815172.0004                   21815171.0704
 -21176196.36348 -16485629.68746  20921358.7114                   20921355.0514
   -115922.21147    -76550.90244  23061369.5314                   23061366.4224
 -13164872.58648 -10246232.57446  21244283.5474                   21244279.9534
   6316672.54346   4931716.96943  24629862.3134                   24629859.2074
 -21284201.72748 -16569458.64145  22145385.5634                   22145380.4494
 11  8 14  3 21  0.0000000  0  8G12G26G25G05G15G29G21G02
 -14075167.18747 -10952912.30545  22562245.3754                   22562241.9064
  -7106597.25847  -5523898.31645  22219272.5084                   22219269.7664
 -13440464.33248 -10457886.67246  21818960.5394                   21818959.7974
 -21139711.37148 -16457199.82046  20928301.5784                   20928298.1024
   -235622.94547   -169824.14144  23038591.5234                   23038588.0904
 -13256875.32448 -10317922.99246  21226775.8834                   21226772.5514
   6235220.67646   4868248.10543  24614361.9064                   24614359.3444
 -21261980.73848 -16552143.58645  22149614.1564                   22149608.7664
 11  8 14  3 21 30.0000000  0  8G12G26G25G05G15G29G21G02
 -14010687.57447 -10902668.45345  22574515.7034                   22574512.1214
  -7209494.34047  -5604077.83645  22199692.3524                   22199689.0164
 -13420091.30148 -10442011.58646  21822837.7814                   21822836.6214
 -21102871.48047 -16428493.41046  20935312.1724                   20935308.2154
   -355224.86747   -263020.38744  23015832.1724                   23015828.9774
 -13348615.43448 -10389408.77046  21209318.1484                   21209314.9924
   6153765.50446   4804776.69543  24598862.0554                   24598859.3054
 -21239658.30148 -16534749.50045  22153862.3364                   22153856.6764
 11  8 14  3 22  0.0000000  0  8G12G26G25G05G15G29G21G02
 -13946014.19947 -10852273.62145  22586822.6174                   22586819.2034
  -7312030.68747  -5683976.25845  22180180.1334                   22180176.7974
 -13399256.68448 -10425776.81246  21826801.9224                   21826801.3794
 -21065679.77348 -16399512.85246  20942389.4924                   20942385.5204
   -474725.40247   -356137.62545  22993091.7734                   22993088.8094
 -13440091.08648 -10460688.47746  21191910.9774                   21191907.7154
   6072305.78946   4741301.70343  24583360.7504                   24583357.4384
 -21217234.88347 -16517276.70745  22158128.8674                   22158123.4104
 11  8 14  3 22 30.0000000  0  8G12G26G25G05G15G29G21G02
 -12305734.91047  -9574133.91845  22898957.4304                   22898953.8364
  -5838782.12947  -4535990.33245  22460530.1024                   22460526.8874
 -11802546.32448  -9181586.91046  22130646.1414                   22130645.3834
 -19452722.41048 -15142662.95746  21249325.1484                   21249321.0434
    981299.66047    778427.42245  23270164.2664                   23270160.8444
 -11955879.81648  -9304160.18446  21474347.0164                   21474343.6334
   7566260.93046   5905422.72343  24867650.3984                   24867647.1914
 -19619293.64848 -15272127.69545  22462207.2504                   22462201.5394
 11  8 14  3 23  0.0000000  0  8G12G26G25G05G15G29G21G02
 -12240685.84447  -9523446.34445  22911336.1094                   22911332.0124
  -5940589.35947  -4615320.61745  22441156.4844                   22441153.3984
 -11780798.43748  -9164640.50046  22134784.4224                   22134783.2034
 -19414836.93048 -15113141.79346  21256534.5474                   21256530.5864
    862008.16847    685473.07045  23247463.3984                   23247460.3554
 -12046822.68048  -9375024.72346  21457041.1484                   21457037.7624
   7484787.81346   5841937.30143  24852146.1884                   24852143.1174
 -19596670.08648 -15254498.94945  22466512.5704                   22466506.8054
 11  8 14  3 23 30.0000000  0  8G12G26G25G05G15G29G21G02
 -12175452.85947  -9472615.45745  22923749.0704                   22923745.5984
  -6042025.81647  -4694361.99245  22421854.0704                   22421850.4064
 -11758596.89148  -9147340.58646  22139009.3754                   22139008.1644
 -19376608.03148 -15083353.03946  21263808.8284                   21263805.3164
    742826.45747    592604.25445  23224784.0164                   23224780.8204
 -12137495.12948  -9445678.54746  21439786.7664                   21439783.8594
   7403308.02046   5778446.62943  24836641.4224                   24836637.8364
 -19573945.51647 -15236791.49245  22470836.7344                   22470830.8094
 11  8 14  3 24  0.0000000  0  8G12G26G25G05G15G29G21G02
 -12110037.33247  -9421642.32045  22936197.2034                   22936193.8674
  -6143086.26647  -4773110.37945  22402622.7114                   22402619.6724
 -11735942.27048  -9129687.61746  22143320.2194                   22143319.1884
 -19338035.84848 -15053296.78946  21271149.1024                   21271145.2814
    623759.43447    499824.82045  23202126.3054                   23202123.1914
 -12227892.72348  -9516118.19146  21422584.6094                   21422581.4384
   7321822.55546   5714951.57043  24821135.0004                   24821131.2074
 -19551118.00048 -15219003.81245  22475180.6334                   22475175.1334
 11  8 14  3 24 30.0000000  0  8G12G26G25G05G15G29G21G02
 -12044445.03147  -9370531.45745  22948678.7974                   22948675.3444
  -6243769.50847  -4851564.82445  22383463.1724                   22383459.8954
 -11712839.43448  -9111685.40246  22147716.4614                   22147715.8484
 -19299125.55948 -15022977.07846  21278553.4924                   21278549.6254
    504807.63347    407135.15645  23179489.8364                   23179487.5004
 -12318015.94548  -9586344.04746  21405434.6414                   21405431.4884
   7240328.55946   5651449.83243  24805627.4224                   24805623.6054
 -19528189.76247 -15201137.64845  22479543.6174                   22479537.9024
 11  8 14  3 25  0.0000000  0  8G12G26G25G05G15G29G21G02
 -11978678.51647  -9319284.82845  22961193.8834                   22961190.2814
  -6344071.84847  -4929722.47345  22364376.2584                   22364373.0984
 -11689290.46148  -9093335.53946  22152197.6024                   22152196.8014
 -19259879.22348 -14992395.51646  21286021.5784                   21286017.8324
    385974.61346    314538.07445  23156877.3594                   23156874.3984
 -12407861.78148  -9656353.74646  21388337.7664                   21388334.2154
   7158825.76646   5587941.22343  24790117.9774                   24790113.5044
 -19505159.78547 -15183192.21545  22483926.0084                   22483920.3444
 11  8 14  3 25 30.0000000  0  8G12G26G25G05G15G29G21G02
 -11912739.02047  -9267903.43045  22973741.6484                   22973738.5824
  -6443987.82447  -5007579.05945  22345362.8594                   22345359.8444
 -11665296.02348  -9074638.56646  22156764.1954                   22156762.8404
 -19220297.68748 -14961552.75046  21293553.9304                   21293550.0784
    267264.80546    222036.99245  23134287.3054                   23134284.4344
 -12497426.23848  -9726144.19546  21371294.4384                   21371290.9384
   7077315.68446   5524426.98443  24774607.2034                   24774602.9144
 -19482026.17247 -15165166.02345  22488328.6094                   22488322.6764
 11  8 14  3 26  0.0000000  0  8G12G26G25G05G15G29G21G02
 -11846634.77047  -9216393.62945  22986320.9694                   22986317.8524
  -6543519.03548  -5085135.82845  22326422.5084                   22326419.4844
 -11640863.48448  -9055600.20746  22161413.2424                   22161411.9804
 -19180388.24248 -14930454.48446  21301148.3754                   21301144.6604
    148676.71947    129630.76244  23111720.9224                   23111717.4344
 -12586711.91448  -9795717.40646  21354303.2034                   21354300.0234
   6995792.62547   5460902.60243  24759093.7664                   24759089.1294
 -19458793.53547 -15147062.66445  22492749.1334                   22492743.6294
 11  8 14  3 26 30.0000000  0  8G12G26G25G05G15G29G21G02
 -11780362.59047  -9164752.97745  22998932.2424                   22998929.1884
  -6642655.36347  -5162384.89545  22307557.5704                   22307554.8054
 -11615989.26648  -9036217.69146  22166146.4534                   22166145.6844
 -19140147.03548 -14899097.68446  21308806.2194                   21308802.3094
     30219.70747     37326.63745  23089179.4224                   23089175.9884
 -12675710.29748  -9865066.75846  21337367.3914                   21337364.1684
   6914262.47747   5397372.69143  24743578.8134                   24743574.5904
 -19435455.42647 -15128877.11745  22497190.1024                   22497184.8554
 11  8 14  3 27  0.0000000  0  9G12G18G26G25G05G15G29G21G02
 -11713930.32447  -9112987.59445  23011573.5784                   23011570.3524
  10860288.19956   8476057.70753  24780359.4144                   24780356.7894
  -6741398.56247  -5239327.62945  22288767.6174                   22288764.3554
 -11590680.82848  -9016496.82046  22170962.4224                   22170961.6294
 -19099581.58248 -14867488.24246  21316525.1174                   21316521.5514
    -88108.46947    -54877.07045  23066662.0314                   23066658.7384
 -12764424.20348  -9934194.43446  21320486.0944                   21320482.7544
   6832720.01247   5333833.20343  24728061.7344                   24728058.0514
 -19412016.50447 -15110613.00845  22501651.0394                   22501644.9064
 11  8 14  3 27 30.0000000  0  9G12G18G26G25G05G15G29G21G02
 -11647345.85247  -9061103.60245  23024244.3284                   23024241.2704
  10746308.48446   8387242.55943  24758668.6644                   24758666.5164
  -6839749.55947  -5315964.74645  22270052.1094                   22270049.0004
 -11564945.25848  -8996443.12146  22175859.9304                   22175858.7934
 -19058698.99648 -14835631.67646  21324305.0234                   21324301.5314
   -206309.21547   -146981.50445  23044169.2504                   23044165.5744
 -12852855.75448 -10003102.09846  21303657.8674                   21303654.6564
   6751160.69147   5270280.60243  24712541.2664                   24712537.9224
 -19388480.70747 -15092273.42245  22506129.4774                   22506124.0904
 11  8 14  3 28  0.0000000  0  9G12G18G26G25G05G15G29G21G02
 -11580614.53147  -9009105.19145  23036943.4304                   23036939.7504
  10632485.81346   8298549.78543  24737008.7584                   24737006.5594
  -6937707.01647  -5392295.21545  22251411.5394                   22251407.8364
 -11538787.25848  -8976060.25846  22180837.5314                   22180836.7464
 -19017503.91848 -14803531.61346  21332143.9064                   21332140.3134
   -324381.50847   -238985.83645  23021700.5704                   23021697.5744
 -12941004.52348 -10071789.42646  21286883.7664                   21286880.4064
   6669580.31647   5206711.59443  24697017.4534                   24697013.8794
 -19364850.21147 -15073860.03145  22510625.9384                   22510620.6054
 11  8 14  3 28 30.0000000  0  9G12G18G26G25G05G15G29G21G02
 -11513737.55947  -8956993.28145  23049669.5164                   23049666.0164
  10518823.50046   8209981.96943  24715379.9384                   24715377.4024
  -7035265.78947  -5468315.00845  22232846.8364                   22232842.9964
 -11512207.53148  -8955348.77746  22185895.3444                   22185894.3874
 -18975997.09048 -14771188.62146  21340042.7734                   21340039.1804
   -442320.57447   -330886.35545  22999257.7194                   22999254.0084
 -13028866.59848 -10140253.34846  21270164.2734                   21270160.9264
   6587980.62546   5143127.52343  24681489.9924                   24681485.5864
 -19341123.13747 -15055371.39545  22515141.4614                   22515135.7114
 11  8 14  3 29  0.0000000  0  9G12G18G26G25G05G15G29G21G02
 -11446715.43047  -8904768.26245  23062423.4064                   23062419.7424
  10405324.84446   8121541.66043  24693781.5944                   24693778.6214
  -7132419.73447  -5544019.36745  22214359.1644                   22214355.7814
 -11485206.22348  -8934308.79746  22191033.9694                   22191032.6954
 -18934178.37148 -14738602.60246  21348000.2584                   21347996.8984
   -560120.81647   -422678.71945  22976841.0004                   22976837.6644
 -13116437.27748 -10208490.21146  21253499.8284                   21253496.6764
   6506363.83647   5079530.13343  24665957.9224                   24665954.1884
 -19317296.52747 -15036805.19145  22519675.0704                   22519669.7114
 11  8 14  3 29 30.0000000  0  9G12G18G26G25G05G15G29G21G02
 -11379550.36747  -8852431.87545  23075204.4224                   23075201.1724
  10291992.46546   8033230.90643  24672215.0634                   24672212.1724
  -7229164.60947  -5619404.96145  22195948.8834                   22195945.6134
 -11457784.90248  -8912941.53146  22196251.8204                   22196250.2344
 -18892049.55148 -14705774.93746  21356017.3834                   21356013.6844
   -677778.25847   -514359.78945  22954451.3284                   22954448.2504
 -13203713.05548 -10276497.29346  21236892.0554                   21236888.5744
   6424730.52046   5015919.86743  24650423.7274                   24650420.6214
 -19293369.02047 -15018160.37145  22524228.7734                   22524223.0594
 11  8 14  3 30  0.0000000  0  9G12G18G26G25G05G15G29G21G02
 -11312243.78547  -8799985.19545  23088012.4064                   23088009.2704
  10178829.31646   7945052.03143  24650680.7504                   24650677.4454
  -7325495.09047  -5694467.65645  22177618.0394                   22177614.4384
 -11429944.51648  -8891247.73046  22201549.6334                   22201548.7234
 -18849611.09848 -14672706.00846  21364092.9844                   21364089.1914
   -795288.09447   -605925.84845  22932089.8754                   22932086.8594
 -13290690.00448 -10344271.52046  21220340.8754                   21220337.4534
   6343081.85546   4952297.64843  24634886.3914                   24634883.1374
 -19269338.81247 -14999435.52045  22528801.1884                   22528795.8244
 11  8 14  3 30 30.0000000  0  9G12G18G26G25G05G15G29G21G02
 -11244799.64847  -8747431.33245  23100847.0314                   23100843.1564
  10065835.51246   7857005.08643  24629177.8984                   24629175.2544
  -7421408.70747  -5769205.51245  22159365.8284                   22159362.5474
 -11401688.55548  -8869230.09446  22206926.6804                   22206925.7074
 -18806866.52748 -14639398.54746  21372227.4774                   21372223.4494
   -912647.94547   -697375.03145  22909757.3524                   22909754.1214
 -13377366.70348 -10411811.79346  21203846.9454                   21203843.2974
   6261416.50446   4888662.42643  24619345.7344                   24619341.7704
 -19245206.43047 -14980631.05145  22533393.4534                   22533387.5634
 11  8 14  3 31  0.0000000  0  9G12G18G26G25G05G15G29G21G02
 -11177217.63347  -8694770.03545  23113707.0634                   23113703.6684
   9953016.28146   7769094.22743  24607709.4614                   24607706.6174
  -7516898.45747  -5843613.09045  22141194.3524                   22141191.3444
 -11373016.19148  -8846887.99246  22212382.9384                   22212381.9884
 -18763815.02748 -14605851.91846  21380419.6174                   21380415.9654
  -1029851.55147   -788702.46145  22887453.9064                   22887451.1604
 -13463737.39848 -10479113.61746  21187411.1254                   21187407.3244
   6179737.40246   4825016.49643  24603802.8984                   24603799.3554
 -19220967.68447 -14961743.71945  22538005.9534                   22538000.1134
 11  8 14  3 31 30.0000000  0  9G12G18G26G25G05G15G29G21G02
 -11109502.74247  -8642005.18745  23126593.0474                   23126589.2934
   9840370.05946   7681318.10243  24586273.8834                   24586269.5824
  -7611962.96147  -5917689.31645  22123104.7504                   22123101.3404
 -11343932.06248  -8824225.04346  22217917.1174                   22217916.1804
 -18720460.84048 -14572069.42646  21388669.7194                   21388666.2114
  -1146897.44547   -879907.01245  22865180.9844                   22865178.1644
 -13549801.52048 -10546176.55146  21171033.2114                   21171030.1884
   6098042.15246   4761357.97343  24588255.9774                   24588252.9844
 -19196624.60947 -14942775.08645  22542638.1954                   22542632.9734
 11  8 14  3 32  0.0000000  0  9G12G18G26G25G05G15G29G21G02
 -11041656.68047  -8589138.14145  23139503.4774                   23139499.9614
   9727899.98946   7593679.32843  24564870.5864                   24564867.4104
  -7706597.40647  -5991430.41845  22105096.0164                   22105092.9884
 -11314437.35948  -8801242.15646  22223530.0004                   22223529.1884
 -18676805.14848 -14538051.99646  21396977.4304                   21396973.5434
  -1263781.39147   -970985.36345  22842938.6334                   22842935.1054
 -13635555.31248 -10612997.68046  21154715.1954                   21154711.7074
   6016331.57846   4697687.50843  24572707.0704                   24572703.5474
 -19172175.12147 -14923723.52745  22547290.9064                   22547285.2194
 11  8 14  3 32 30.0000000  0  9G12G18G26G25G05G15G29G21G02
 -10973683.42247  -8536171.96945  23152438.2814                   23152435.0864
   9615606.28146   7506177.84443  24543501.9144                   24543499.0784
  -7800799.29347  -6064834.46945  22087170.0944                   22087167.3094
 -11284535.55548  -8777942.05946  22229220.0864                   22229218.8794
 -18632851.25048 -14503802.19946  21405341.2814                   21405337.4924
  -1380500.98047  -1061935.65645  22820727.8284                   22820724.1954
 -13720997.45748 -10679575.96546  21138455.7424                   21138452.5474
   5934603.66456   4634003.29753  24557155.0864                   24557151.6644
 -19147620.11747 -14904589.75845  22551963.2894                   22551957.7384
 11  8 14  3 33  0.0000000  0  9G12G18G26G25G05G15G29G21G02
 -10905585.41847  -8483108.59445  23165396.8364                   23165393.0944
   9503490.65246   7418815.16843  24522166.9534                   24522163.4884
  -7894564.46547  -6137898.22345  22069327.1954                   22069323.9844
 -11254228.79748  -8754326.40646  22234987.3834                   22234986.5274
 -18588601.18748 -14469321.62946  21413761.9064                   21413757.8794
  -1497052.63747  -1152755.08645  22798548.6174                   22798545.1484
 -13806125.14848 -10745909.22746  21122256.5394                   21122253.3874
   5852860.40646   4570307.37543  24541599.7584                   24541596.2424
 -19122958.57847 -14885372.98045  22556656.3134                   22556651.2234
 11  8 14  3 33 30.0000000  0  9G12G18G26G25G05G15G29G21G02
 -10837364.75447  -8429949.64845  23178378.9454                   23178375.2544
   9391555.73046   7331593.35542  24500866.3284                   24500862.6414
  -7987888.48047  -6210618.21545  22051568.6644                   22051564.8984
 -11223518.68748  -8730396.45746  22240831.0944                   22240830.3754
 -18544056.11348 -14434611.17246  21422238.5394                   21422234.3244
  -1613432.16847  -1243440.39145  22776402.2504                   22776398.3554
 -13890934.81248 -10811994.66846  21106117.8594                   21106114.6254
   5771101.39546   4506599.15243  24526041.9774                   24526037.9964
 -19098189.05547 -14866072.05945  22561370.0084                   22561364.3874
 11  8 14  3 34  0.0000000  0  9G12G18G26G25G05G15G29G21G02
 -10769025.91847  -8376698.62545  23191383.2424                   23191379.7894
   9279800.69546   7244511.66842  24479599.9774                   24479596.2274
  -8080769.73447  -6282993.20745  22033893.8204                   22033890.1884
 -11192409.73848  -8706155.72346  22246750.7194                   22246749.8404
 -18499220.46948 -14399674.30146  21430770.2274                   21430766.3284
  -1729638.33247  -1333990.62145  22754288.6884                   22754285.2854
 -13975425.91048 -10877831.87546  21090039.8754                   21090036.4844
   5689324.00046   4442876.59443  24510479.9924                   24510476.1484
 -19073312.86747 -14846688.01645  22566103.4694                   22566097.9654
 11  8 14  3 34 30.0000000  0  9G12G18G26G25G05G15G29G21G02
 -10700560.29757  -8330110.37155  23204409.8594                   23204405.9964
  10973661.87156   7170321.95353  24458368.5394                   24458366.0634
  -8173224.03957  -6345923.91855  22016303.8594                   22016300.7154
  11041791.25458  -8684544.59456  22252746.2974                   22252745.3364
  11049626.16858 -14368978.25856  21439357.1724                   21439353.9224
  10972238.92257  -1413037.60955  22732209.1804                   22732205.7464
 -14059020.12158 -10935098.25856  21074023.0164                   21074019.2704
   5607502.24657   4387182.51654  24494914.6564                   24494911.6524
  11039947.03957 -14829682.05955  22570858.1884                   22570852.3444
 11  8 14  3 35  0.0000000  0  9G12G18G26G25G05G15G29G21G02
 -10631991.59047  -8276680.22745  23217458.2194                   23217454.5234
  10862273.81346   7083526.18843  24437171.5084                   24437167.7234
  -8265206.50847  -6417598.55545  21998800.0864                   21998797.1484
  11073693.13348  -8659686.00446  22258817.4454                   22258816.0664
  11095038.80148 -14333591.76646  21447998.8594                   21447995.1524
  10856392.14847  -1503307.78145  22710164.0554                   22710160.6334
 -14142863.68448 -11000430.89146  21058067.6724                   21058064.2344
   5525690.98847   4323433.58644  24479346.3914                   24479342.7304
  11065040.72347 -14810128.54345  22575633.4534                   22575627.7624
 11  8 14  3 35 30.0000000  0  9G12G18G26G25G05G15G29G21G02
 -10563311.51247  -8223163.30145  23230527.3204                   23230524.0594
  10751071.64246   6996875.22343  24416010.6484                   24416007.2114
  -8356733.82848  -6488918.52345  21981382.9924                   21981379.6334
  11105988.19148  -8634521.02746  22264962.7424                   22264961.8404
  11140737.32848 -14297982.52346  21456695.4304                   21456691.4924
  10740730.68047  -1593433.54745  22688154.0784                   22688151.1884
 -14226379.25047 -11065507.94546  21042175.5704                   21042171.9344
   5443862.94146   4259671.57044  24463774.9694                   24463770.9224
  11090244.66447 -14790489.12945  22580429.4144                   22580424.0944
 11  8 14  3 36  0.0000000  0  9G12G18G26G25G05G15G29G21G02
 -10494524.55547  -8169563.09445  23243617.1884                   23243613.6644
  10640055.22346   6910369.08643  24394884.5864                   24394881.4774
  -8447803.51648  -6559881.90645  21964053.1254                   21964049.7034
  11138672.49248  -8609052.74646  22271182.4774                   22271181.2814
  11186717.74248 -14262153.62546  21465444.8594                   21465441.0634
  10625256.75047  -1683413.19945  22666180.6644                   22666177.4344
 -14309565.76647 -11130328.57846  21026345.6024                   21026341.7774
   5362016.54346   4195895.23044  24448200.2424                   24448196.3984
  11115557.78147 -14770764.62145  22585246.2664                   22585240.6954
 11  8 14  3 36 30.0000000  0  9G12G18G26G25G05G15G29G21G02
 -10425633.88747  -8115882.06245  23256727.0864                   23256723.5984
  10529226.00046   6824008.78943  24373795.0004                   24373791.2464
  -8538412.72348  -6630486.46945  21946810.8984                   21946807.5634
  11171743.24247  -8583283.33646  22277475.7814                   22277474.5314
  11232977.72348 -14226106.88746  21474247.6644                   21474244.2304
  10509972.80547  -1773244.80145  22644242.2974                   22644239.4924
 -14392420.66848 -11194890.81246  21010578.8834                   21010575.4224
   5280150.87547   4132103.88744  24432621.5634                   24432617.7154
  11140980.48447 -14750954.73045  22590084.0084                   22590079.0594
 11  8 14  3 37  0.0000000  0  9G12G18G26G25G05G15G29G21G02
 -10356643.37547  -8062123.22745  23269855.4064                   23269851.1454
  10418584.23846   6737794.55543  24352740.2344                   24352736.9574
  -8628558.63748  -6700730.03145  21929656.6414                   21929653.2974
  11205196.70347  -8557215.70746  22283841.6884                   22283840.7114
  11279513.79348 -14189845.01246  21483103.3054                   21483099.8054
  10394881.05947  -1862926.63345  22622341.5554                   22622338.6024
 -14474942.53148 -11259193.53546  20994875.3204                   20994871.9024
   5198264.91047   4068296.71543  24417039.1564                   24417035.3754
  11166512.18447 -14731059.92245  22594942.4304                   22594937.2934
 11  8 14  3 37 30.0000000  0  9G12G18G26G25G05G15G29G21G02
 -10287554.84447  -8008288.02745  23283002.7814                   23282998.8674
  10308131.91846   6651727.94943  24331721.5004                   24331718.2274
  -8718237.11748  -6770609.34845  21912591.7344                   21912587.7774
  11239031.27347  -8530851.10546  22290280.1804                   22290279.2464
  11326324.50848 -14153369.12546  21492011.1484                   21492007.4224
  10279986.01647  -1952455.19145  22600478.3134                   22600474.7774
 -14557127.98848 -11323234.12146  20979235.9774                   20979232.2544
   5116359.41046   4004474.31643  24401453.3674                   24401448.8524
  11192154.47347 -14711078.92245  22599822.2504                   22599816.7544
 11  8 14  3 38  0.0000000  0  9G12G18G26G25G05G15G29G21G02
 -10218372.90647  -7954380.02345  23296167.0474                   23296163.8164
  10197868.90246   6565808.82443  24310739.4454                   24310735.9964
  -8807446.27747  -6840122.96945  21895615.1484                   21895611.7624
  11273242.59447  -8504192.94146  22296789.8364                   22296789.3444
  11373405.98048 -14116682.26246  21500970.3524                   21500966.7974
  10165289.23447  -2041829.27045  22578652.4924                   22578648.5314
 -14638976.57848 -11387012.20346  20963660.7974                   20963657.2384
   5034432.43047   3940635.19543  24385862.8134                   24385858.7734
  11217906.22747 -14691012.64145  22604722.4534                   22604717.3484
 11  8 14  3 38 30.0000000  0  9G12G18G26G25G05G15G29G21G02
 -10149099.68747  -7900400.90245  23309349.2814                   23309345.9964
  10087796.95346   6480038.59043  24289793.5004                   24289789.8244
  -8896182.13347  -6909267.77045  21878729.6414                   21878726.2584
  11307828.63347  -8477242.78546  22303371.8674                   22303370.9884
  11420756.49648 -14079785.74646  21509980.7584                   21509977.1134
  10050794.53947  -2131045.88745  22556864.2974                   22556860.8364
 -14720485.25048 -11450525.42246  20948150.4384                   20948146.8284
   4952484.23047   3876779.50843  24370268.3284                   24370264.2424
  11243768.32047 -14670860.37545  22609643.9614                   22609638.4184
 11  8 14  3 39  0.0000000  0  9G12G18G26G25G05G15G29G21G02
 -10079736.39847  -7846351.60944  23322548.8204                   23322545.4064
   9977919.10546   6394419.60543  24268884.1724                   24268880.5984
  -8984439.59847  -6978039.80545  21861934.4454                   21861931.0124
  11342788.56648  -8450001.28546  22310024.0704                   22310023.6914
  11468375.52348 -14042680.01246  21519042.2504                   21519038.6414
   9936506.72347  -2220101.28945  22535116.0394                   22535112.4264
 -14801649.50848 -11513770.26646  20932704.9144                   20932701.6174
   4870516.54347   3812908.64543  24354670.7274                   24354666.2624
  11269743.23447 -14650620.19545  22614586.5004                   22614581.0554
 11  8 14  3 39 30.0000000  0  9G12G18G26G25G05G15G29G21G02
 -10010286.98047  -7792235.18744  23335764.6564                   23335760.7384
   9868235.80146   6308952.21943  24248011.5704                   24248009.0984
  -9072215.93448  -7046436.93745  21845231.3054                   21845227.8984
  11378118.89147  -8422471.16846  22316747.3204                   22316746.5124
  11516260.00448 -14005367.42646  21528154.3914                   21528150.6914
   9822428.80147  -2308993.14545  22513407.6024                   22513404.0944
 -14882467.47348 -11576745.27046  20917325.8984                   20917322.7034
   4788528.14846   3749021.62143  24339068.4454                   24339063.7384
  11295830.77047 -14630292.25445  22619550.9694                   22619545.5354
 11  8 14  3 40  0.0000000  0  9G12G18G26G25G05G15G29G21G02
  -9940752.34047  -7738052.35944  23348996.2114                   23348993.0904
   9758750.07846   6223638.78943  24227176.4224                   24227173.5234
  -9159506.17647  -7114455.28945  21828620.6094                   21828616.9844
  11413818.60547  -8394653.20346  22323541.0314                   22323540.2234
  11564409.43848 -13967848.38746  21537317.2424                   21537313.1454
   9708565.31347  -2397717.91045  22491740.1254                   22491736.2304
 -14962935.23448 -11639447.38746  20902013.7034                   20902009.9064
   4706520.53146   3685119.64543  24323462.6334                   24323458.2154
  11322033.10547 -14609874.85545  22624537.2034                   22624531.7154
 11  8 14  3 40 30.0000000  0  9G12G18G26G25G05G15G29G21G02
  -9871138.74247  -7683808.02744  23362243.8284                   23362240.4304
   9649460.01646   6138477.82043  24206379.9224                   24206376.8244
  -9246310.24247  -7182094.80545  21812102.3284                   21812098.7814
  11449881.60947  -8366552.16046  22330403.7424                   22330402.7344
  11612817.92248 -13930127.48446  21546529.0394                   21546525.1024
   9594916.41047  -2486275.46545  22470113.4144                   22470109.2934
 -15043053.73048 -11701877.35946  20886767.1094                   20886763.6914
   4624489.92246   3621199.73043  24307853.3284                   24307848.6374
  11348347.37147 -14589370.24245  22629544.3524                   22629539.0824
